[[{"header":{"parameterUnit":"m.s-1","parameterCategory":1,"la1":30.6,"la2":29.2853,"lo1":-89.7004,"lo2":-87.6739,"dy":0.0162,"dx":0.0183,"nx":112,"ny":82,"refTime":"2024-03-02T18:00:00:Z","depth":0,"parameterNumber":2,"parameterNumberName":"U-component_of_WINDS"},"data":[0.0,0.0,0.0,0.0,0.0,0.0,0.0,0.0,0.0,0.0,0.0,0.0,0.0,0.0,0.0,0.0,0.0,0.0,0.0,0.0,0.0,0.0,0.0,0.0,0.0,0.0,0.0,0.0,0.0,0.0,0.0,0.0,0.0,0.0,0.0,0.0,0.0,0.0,0.0,0.0,0.0,0.0,0.0,0.0,0.0,0.0,0.0,0.0,0.0,0.0,0.0,0.0,0.0,0.0,0.0,0.0,0.0,0.0,0.0,0.0,0.0,0.0,0.0,0.0,0.0,0.0,0.0,0.0,0.0,0.0,0.0,0.0,0.0,0.0,0.0,0.0,0.0,0.0,0.0,0.0,0.0,0.0,0.0,0.0,0.0,0.0,0.0,0.0,0.0,0.0,-2.7509,-2.784,-2.9556,-3.0919,-3.1548,-3.1813,-3.1276,-2.9703,0.0,0.0,0.0,0.0,0.0,0.0,0.0,0.0,0.0,0.0,0.0,0.0,0.0,0.0,0.0,0.0,0.0,0.0,0.0,0.0,0.0,0.0,0.0,0.0,0.0,0.0,0.0,0.0,0.0,0.0,0.0,0.0,0.0,0.0,0.0,0.0,0.0,0.0,0.0,0.0,0.0,0.0,0.0,0.0,0.0,0.0,0.0,0.0,0.0,0.0,0.0,0.0,0.0,0.0,0.0,0.0,0.0,0.0,0.0,0.0,0.0,0.0,0.0,0.0,0.0,0.0,0.0,0.0,0.0,0.0,0.0,0.0,0.0,0.0,0.0,0.0,0.0,0.0,0.0,0.0,0.0,0.0,0.0,0.0,0.0,0.0,0.0,0.0,0.0,0.0,0.0,0.0,0.0,0.0,0.0,0.0,0.0,0.0,0.0,0.0,0.0,0.0,0.0,0.0,-2.8014,-2.9851,-3.087,-3.1482,-3.1598,-3.2762,-3.2359,-2.9752,0.0,0.0,0.0,0.0,0.0,0.0,0.0,0.0,0.0,0.0,0.0,0.0,0.0,0.0,0.0,0.0,0.0,0.0,0.0,0.0,0.0,0.0,0.0,0.0,0.0,0.0,0.0,0.0,0.0,0.0,0.0,0.0,0.0,0.0,0.0,0.0,0.0,0.0,0.0,0.0,0.0,0.0,0.0,0.0,0.0,0.0,0.0,0.0,0.0,0.0,0.0,0.0,0.0,0.0,0.0,0.0,0.0,0.0,0.0,0.0,0.0,0.0,0.0,0.0,0.0,0.0,0.0,0.0,0.0,0.0,0.0,0.0,0.0,0.0,0.0,0.0,0.0,0.0,0.0,0.0,0.0,0.0,0.0,0.0,0.0,0.0,0.0,0.0,0.0,0.0,0.0,0.0,0.0,0.0,0.0,0.0,0.0,0.0,0.0,0.0,0.0,0.0,0.0,-2.7736,-2.8763,-3.087,-3.1399,-3.1803,-3.2321,-3.2976,-3.2335,-2.9854,-2.9736,0.0,0.0,0.0,0.0,0.0,0.0,0.0,0.0,0.0,0.0,0.0,0.0,0.0,0.0,0.0,0.0,0.0,0.0,0.0,0.0,0.0,0.0,0.0,0.0,0.0,0.0,0.0,0.0,0.0,0.0,0.0,0.0,0.0,0.0,0.0,0.0,0.0,0.0,0.0,0.0,0.0,0.0,0.0,0.0,0.0,0.0,0.0,0.0,0.0,0.0,0.0,0.0,0.0,0.0,0.0,0.0,0.0,0.0,0.0,0.0,0.0,0.0,0.0,0.0,0.0,0.0,0.0,0.0,0.0,0.0,0.0,0.0,0.0,0.0,0.0,0.0,0.0,0.0,0.0,0.0,0.0,0.0,0.0,0.0,0.0,0.0,0.0,0.0,0.0,0.0,0.0,0.0,0.0,0.0,0.0,0.0,0.0,0.0,0.0,0.0,0.0,0.0,-2.8655,-2.9525,-3.1399,-3.1747,-3.2226,-3.3111,-3.3372,-3.2483,-3.012,-3.0021,0.0,0.0,0.0,0.0,0.0,0.0,0.0,0.0,0.0,0.0,0.0,0.0,0.0,0.0,0.0,0.0,0.0,0.0,0.0,0.0,0.0,0.0,0.0,0.0,0.0,0.0,0.0,0.0,0.0,0.0,0.0,0.0,0.0,0.0,0.0,0.0,0.0,0.0,0.0,0.0,0.0,0.0,0.0,0.0,0.0,0.0,0.0,0.0,0.0,0.0,0.0,0.0,0.0,0.0,0.0,0.0,0.0,0.0,0.0,0.0,0.0,0.0,0.0,0.0,0.0,0.0,0.0,0.0,0.0,0.0,0.0,0.0,0.0,0.0,0.0,0.0,0.0,0.0,0.0,0.0,0.0,0.0,0.0,0.0,0.0,0.0,0.0,0.0,0.0,0.0,0.0,0.0,0.0,0.0,0.0,0.0,0.0,0.0,0.0,0.0,0.0,0.0,-2.9194,-3.019,-3.1456,-3.2216,-3.2928,-3.3677,-3.4489,-3.3659,-3.065,-3.0692,0.0,0.0,0.0,0.0,0.0,0.0,0.0,0.0,0.0,0.0,0.0,0.0,0.0,0.0,0.0,0.0,0.0,0.0,0.0,0.0,0.0,0.0,0.0,0.0,0.0,0.0,0.0,0.0,0.0,0.0,0.0,0.0,0.0,0.0,0.0,0.0,0.0,0.0,0.0,0.0,0.0,0.0,0.0,0.0,0.0,0.0,0.0,0.0,0.0,0.0,0.0,0.0,0.0,0.0,0.0,0.0,0.0,0.0,0.0,0.0,0.0,0.0,0.0,0.0,0.0,0.0,0.0,0.0,0.0,0.0,0.0,0.0,0.0,0.0,0.0,0.0,0.0,0.0,0.0,0.0,0.0,0.0,0.0,0.0,0.0,0.0,0.0,0.0,0.0,0.0,0.0,0.0,0.0,0.0,0.0,0.0,0.0,0.0,0.0,0.0,0.0,0.0,-2.8945,-3.0231,-3.1366,-3.2063,-3.2635,-3.3157,-3.3486,-3.2467,-2.9697,0.0,0.0,0.0,0.0,0.0,0.0,0.0,0.0,0.0,0.0,0.0,0.0,0.0,0.0,0.0,0.0,0.0,0.0,0.0,0.0,0.0,0.0,0.0,0.0,0.0,0.0,0.0,0.0,0.0,0.0,0.0,0.0,0.0,0.0,0.0,0.0,0.0,0.0,0.0,0.0,0.0,0.0,0.0,0.0,0.0,0.0,0.0,0.0,0.0,0.0,0.0,0.0,0.0,0.0,0.0,0.0,0.0,0.0,0.0,0.0,0.0,0.0,0.0,0.0,0.0,0.0,0.0,0.0,0.0,0.0,0.0,0.0,0.0,0.0,0.0,0.0,0.0,0.0,0.0,0.0,0.0,0.0,0.0,0.0,0.0,0.0,0.0,0.0,0.0,0.0,0.0,0.0,0.0,0.0,0.0,0.0,0.0,0.0,0.0,0.0,0.0,0.0,-2.7666,-2.8834,-3.0147,-3.1491,-3.1987,-3.243,-3.2955,-3.3019,-3.1944,-2.9337,0.0,0.0,0.0,0.0,0.0,0.0,0.0,0.0,0.0,0.0,0.0,0.0,0.0,0.0,0.0,0.0,0.0,0.0,0.0,0.0,0.0,0.0,0.0,0.0,0.0,0.0,0.0,0.0,0.0,0.0,0.0,0.0,0.0,0.0,0.0,0.0,0.0,0.0,0.0,0.0,0.0,0.0,0.0,0.0,0.0,0.0,0.0,0.0,0.0,0.0,0.0,0.0,0.0,0.0,0.0,0.0,0.0,0.0,0.0,0.0,0.0,0.0,0.0,0.0,0.0,0.0,0.0,0.0,0.0,0.0,0.0,0.0,0.0,0.0,0.0,0.0,0.0,0.0,0.0,0.0,0.0,0.0,0.0,0.0,0.0,0.0,0.0,0.0,0.0,0.0,0.0,0.0,0.0,0.0,0.0,0.0,0.0,0.0,0.0,0.0,0.0,0.0,-2.8431,-2.9006,-3.0035,-3.1895,-3.2094,-3.2445,-3.3323,-3.3514,-3.2498,0.0,0.0,0.0,0.0,0.0,0.0,0.0,0.0,0.0,0.0,0.0,0.0,0.0,0.0,0.0,0.0,0.0,0.0,0.0,0.0,0.0,0.0,0.0,0.0,0.0,0.0,0.0,0.0,0.0,0.0,0.0,0.0,0.0,0.0,0.0,0.0,0.0,0.0,0.0,0.0,0.0,0.0,0.0,0.0,0.0,0.0,0.0,0.0,0.0,0.0,0.0,0.0,0.0,0.0,0.0,0.0,0.0,0.0,0.0,0.0,0.0,0.0,0.0,0.0,0.0,0.0,0.0,0.0,0.0,0.0,0.0,0.0,0.0,0.0,0.0,0.0,0.0,0.0,0.0,0.0,0.0,0.0,0.0,0.0,0.0,0.0,0.0,0.0,0.0,0.0,0.0,0.0,0.0,0.0,0.0,0.0,0.0,0.0,0.0,0.0,0.0,0.0,0.0,-2.7863,-2.9301,-3.0577,-3.138,-3.1894,-3.2303,-3.2652,-3.273,-3.1743,-2.938,0.0,0.0,0.0,0.0,0.0,0.0,0.0,0.0,0.0,0.0,0.0,0.0,0.0,0.0,0.0,0.0,0.0,0.0,0.0,0.0,0.0,0.0,0.0,0.0,0.0,0.0,0.0,0.0,0.0,0.0,0.0,0.0,0.0,0.0,0.0,0.0,0.0,0.0,0.0,0.0,0.0,0.0,0.0,0.0,0.0,0.0,0.0,0.0,0.0,0.0,0.0,0.0,0.0,0.0,0.0,0.0,0.0,0.0,0.0,0.0,0.0,0.0,0.0,0.0,0.0,0.0,0.0,0.0,0.0,0.0,0.0,0.0,0.0,0.0,0.0,0.0,0.0,0.0,0.0,0.0,0.0,0.0,0.0,0.0,0.0,0.0,0.0,0.0,0.0,0.0,0.0,0.0,0.0,0.0,0.0,0.0,0.0,0.0,0.0,0.0,0.0,0.0,-2.7938,-2.962,-3.1006,-3.1479,-3.1878,-3.2178,-3.2302,-3.2305,-3.1566,-2.9773,0.0,0.0,0.0,0.0,0.0,0.0,0.0,0.0,0.0,0.0,0.0,0.0,0.0,0.0,0.0,0.0,0.0,0.0,0.0,0.0,0.0,0.0,0.0,0.0,0.0,0.0,0.0,0.0,0.0,0.0,0.0,0.0,0.0,0.0,0.0,0.0,0.0,0.0,0.0,0.0,0.0,0.0,0.0,0.0,0.0,0.0,0.0,0.0,0.0,0.0,0.0,0.0,0.0,0.0,0.0,0.0,0.0,0.0,0.0,0.0,0.0,0.0,0.0,0.0,0.0,0.0,0.0,0.0,0.0,0.0,0.0,0.0,0.0,0.0,0.0,0.0,0.0,0.0,0.0,0.0,0.0,0.0,0.0,0.0,0.0,0.0,0.0,0.0,0.0,0.0,0.0,0.0,0.0,0.0,0.0,0.0,0.0,0.0,0.0,0.0,0.0,0.0,-2.8456,-2.9996,-3.1308,-3.1977,-3.2038,-3.2081,-3.2209,-3.2226,-3.1782,-3.0772,0.0,0.0,0.0,0.0,0.0,0.0,0.0,0.0,0.0,0.0,0.0,0.0,0.0,0.0,0.0,0.0,0.0,0.0,0.0,0.0,0.0,0.0,0.0,0.0,0.0,0.0,0.0,0.0,0.0,0.0,0.0,0.0,0.0,0.0,0.0,0.0,0.0,0.0,0.0,0.0,0.0,0.0,0.0,0.0,0.0,0.0,0.0,0.0,0.0,0.0,0.0,0.0,0.0,0.0,0.0,0.0,0.0,0.0,0.0,0.0,-2.4581,-2.3742,0.0,0.0,0.0,0.0,0.0,0.0,0.0,0.0,0.0,0.0,0.0,0.0,0.0,0.0,0.0,0.0,0.0,0.0,0.0,0.0,0.0,0.0,0.0,0.0,0.0,0.0,0.0,0.0,0.0,0.0,0.0,0.0,0.0,0.0,0.0,0.0,0.0,0.0,0.0,0.0,-2.8583,-3.0212,-3.1562,-3.2238,-3.2315,-3.233,-3.2358,-3.2373,-3.1873,-3.0772,-3.0464,0.0,0.0,0.0,0.0,0.0,0.0,0.0,0.0,0.0,0.0,0.0,0.0,0.0,0.0,0.0,0.0,0.0,0.0,0.0,0.0,0.0,0.0,0.0,0.0,0.0,0.0,0.0,0.0,0.0,0.0,0.0,0.0,0.0,0.0,0.0,0.0,0.0,0.0,0.0,0.0,0.0,0.0,0.0,0.0,0.0,0.0,0.0,0.0,0.0,0.0,0.0,0.0,0.0,0.0,0.0,0.0,0.0,0.0,0.0,-2.4936,-2.448,0.0,0.0,0.0,0.0,0.0,0.0,0.0,0.0,0.0,0.0,0.0,0.0,0.0,0.0,0.0,0.0,0.0,0.0,0.0,0.0,0.0,0.0,0.0,0.0,0.0,0.0,0.0,0.0,0.0,0.0,0.0,0.0,0.0,0.0,0.0,0.0,0.0,0.0,0.0,0.0,-2.8511,-3.049,-3.1997,-3.2351,-3.2398,-3.2398,-3.2398,-3.2398,-3.2161,-3.1546,-3.0991,0.0,0.0,0.0,0.0,0.0,0.0,0.0,0.0,0.0,0.0,0.0,0.0,0.0,0.0,0.0,0.0,0.0,0.0,0.0,0.0,0.0,0.0,0.0,0.0,0.0,0.0,0.0,0.0,0.0,0.0,0.0,0.0,0.0,0.0,0.0,0.0,0.0,0.0,0.0,0.0,0.0,0.0,0.0,0.0,0.0,0.0,0.0,0.0,0.0,0.0,0.0,0.0,0.0,-2.512,-2.5177,-2.51,-2.5845,-2.6168,-2.6067,-2.5525,-2.5489,-2.5694,-2.443,0.0,0.0,0.0,0.0,0.0,0.0,0.0,0.0,0.0,0.0,0.0,0.0,0.0,0.0,0.0,0.0,0.0,0.0,0.0,0.0,0.0,0.0,-2.6194,-2.6427,-2.6994,-2.7458,-2.7284,0.0,0.0,0.0,0.0,0.0,0.0,0.0,0.0,0.0,0.0,0.0,-2.8746,-3.09,-3.2398,-3.2398,-3.2398,-3.2398,-3.2398,-3.2398,-3.2398,-3.2398,-3.1515,-3.0888,0.0,0.0,0.0,0.0,0.0,0.0,0.0,0.0,0.0,0.0,0.0,0.0,0.0,0.0,0.0,0.0,0.0,0.0,0.0,0.0,0.0,0.0,0.0,0.0,0.0,0.0,0.0,0.0,0.0,0.0,0.0,0.0,-2.4859,-2.5442,0.0,0.0,0.0,0.0,0.0,0.0,0.0,0.0,0.0,0.0,0.0,0.0,0.0,-2.5269,-2.5388,-2.5504,-2.5568,-2.5585,-2.6826,-2.7385,-2.7384,-2.818,-2.8553,-2.8535,-2.8451,0.0,-2.6539,-2.6353,0.0,0.0,0.0,0.0,0.0,0.0,0.0,0.0,0.0,0.0,0.0,0.0,0.0,0.0,0.0,0.0,0.0,0.0,0.0,0.0,0.0,0.0,-2.8388,-2.748,-2.7759,-2.8254,-2.823,-2.7585,-2.6977,-2.6925,-2.6888,-2.6651,0.0,0.0,0.0,0.0,0.0,0.0,-2.9987,-3.1458,-3.2398,-3.2398,-3.2398,-3.2398,-3.2398,-3.2398,-3.2398,-3.2398,-3.225,-3.1662,-3.0496,-3.0268,0.0,0.0,0.0,0.0,0.0,0.0,0.0,0.0,0.0,0.0,0.0,0.0,0.0,0.0,0.0,0.0,0.0,0.0,0.0,0.0,0.0,0.0,0.0,0.0,0.0,0.0,0.0,0.0,0.0,-2.5324,-2.5646,-2.5932,-2.5582,-2.5267,0.0,0.0,0.0,0.0,0.0,0.0,0.0,0.0,0.0,-2.6637,-2.6238,-2.6355,-2.7063,-2.6955,-2.7097,-2.7555,-2.818,-2.8467,-2.8484,-2.884,-2.8993,-2.8993,-2.8993,-2.8857,-2.8552,-2.7689,-2.7282,-2.7161,0.0,0.0,0.0,0.0,-2.5661,-2.5737,-2.6703,-2.6983,-2.6986,-2.7321,0.0,0.0,0.0,0.0,0.0,0.0,0.0,-2.7114,-2.6656,-2.741,-2.824,-2.8029,-2.8473,-2.9073,-2.9433,-2.9206,-2.8708,-2.8091,-2.7957,-2.7612,-2.6585,-2.6856,0.0,0.0,0.0,-2.9739,-3.0322,-3.1564,-3.2398,-3.2398,-3.2398,-3.2398,-3.2398,-3.2398,-3.2398,-3.2398,-3.2398,-3.2146,-3.1546,-3.0815,-2.983,0.0,0.0,0.0,0.0,0.0,0.0,0.0,0.0,0.0,0.0,0.0,0.0,0.0,0.0,0.0,0.0,0.0,0.0,0.0,0.0,0.0,0.0,0.0,0.0,0.0,0.0,0.0,0.0,-2.6469,-2.6671,-2.6637,-2.649,-2.6161,0.0,0.0,0.0,0.0,0.0,0.0,-2.65,-2.6844,-2.7209,-2.7585,-2.7459,-2.7783,-2.8576,-2.827,-2.8416,-2.8993,-2.9196,-2.9281,-2.9297,-2.9484,-2.9568,-2.9568,-2.9568,-2.9871,-3.0294,-2.8939,-2.85,-2.8583,-2.7829,-2.752,-2.7466,-2.7,-2.6847,-2.6994,-2.7993,-2.8392,-2.8514,-2.8788,-2.8754,-2.8409,-2.7332,0.0,0.0,0.0,0.0,-2.7934,-2.7852,-2.8116,-2.8488,-2.8821,-2.9279,-2.9787,-3.0279,-3.0438,-3.0232,-2.9295,-2.9117,-2.8761,-2.7581,-2.8077,0.0,-2.7551,-2.9107,-3.0534,-3.0889,-3.1792,-3.2398,-3.2398,-3.2398,-3.2398,-3.2398,-3.2398,-3.2398,-3.2398,-3.2398,-3.2398,-3.2398,-3.1442,-3.0757,-3.0408,0.0,0.0,0.0,0.0,0.0,0.0,0.0,0.0,0.0,0.0,0.0,0.0,0.0,0.0,0.0,0.0,0.0,0.0,0.0,0.0,0.0,0.0,0.0,0.0,0.0,0.0,0.0,0.0,0.0,-2.8091,-2.7857,0.0,0.0,0.0,0.0,-2.6259,-2.6916,-2.7333,-2.7333,-2.8793,-2.9481,-2.9184,-2.9594,-2.9666,-2.9351,-2.9087,-2.8959,-2.901,-2.9702,-3.004,-3.0074,-3.0768,-3.1089,-3.1089,-3.1089,-3.1106,-3.1072,-3.0311,-3.0395,-3.0982,-3.0482,-3.0303,-3.0241,-2.9777,-2.9884,-3.0261,-3.0344,-3.0067,-2.9767,-3.0236,-2.9503,-2.8399,-2.8335,-2.77,0.0,0.0,-2.8963,-2.899,-3.0485,-3.0579,-3.0274,-3.0279,-3.0325,-3.0356,-3.0386,-3.0603,-3.0674,-3.0387,-3.032,-3.0089,-2.9396,0.0,-2.9541,-3.0114,-3.0309,-3.0849,-3.2148,-3.2364,-3.2398,-3.2398,-3.2398,-3.2398,-3.2398,-3.2398,-3.2398,-3.2398,-3.2398,-3.2398,-3.2398,-3.2324,-3.172,-3.0423,-3.0313,0.0,0.0,0.0,0.0,0.0,0.0,0.0,0.0,0.0,0.0,0.0,0.0,0.0,0.0,0.0,0.0,0.0,0.0,0.0,0.0,0.0,0.0,0.0,0.0,0.0,0.0,0.0,0.0,-2.6847,-2.7367,0.0,-2.6422,-2.6838,-2.7171,-2.7148,-2.8263,-2.8938,-2.8938,-2.9984,-3.0431,-3.0074,-3.0033,-3.0032,-3.0108,-2.9835,-2.9939,-3.0431,-3.0683,-3.0818,-3.0818,-3.1072,-3.119,-3.119,-3.119,-3.119,-3.1173,-3.092,-3.078,-3.0699,-3.0225,-3.0054,-2.9989,-2.9528,-2.9461,-2.9556,-2.9234,-2.925,-2.9438,-2.9903,-2.9702,-2.9291,-2.9291,-2.937,-2.9509,-2.9775,-3.0046,-3.03,-3.059,-3.0541,-3.0509,-3.0951,-3.1043,-3.1166,-3.1597,-3.1755,-3.1809,-3.1717,-3.1486,-3.1021,-3.0192,-3.0768,-3.1125,-3.0494,-3.1139,-3.1872,-3.2341,-3.2398,-3.2398,-3.2398,-3.2398,-3.2398,-3.2398,-3.2398,-3.2398,-3.2398,-3.2398,-3.2398,-3.2398,-3.2398,-3.2176,-3.172,-3.2103,-3.1164,0.0,0.0,0.0,0.0,0.0,0.0,0.0,0.0,0.0,0.0,0.0,0.0,0.0,0.0,0.0,0.0,0.0,0.0,0.0,0.0,0.0,0.0,0.0,0.0,0.0,-2.7334,-2.7699,-2.6451,-2.7372,-2.7721,-2.673,-2.767,-2.8343,-2.8343,-2.9497,-3.0201,-3.0201,-3.098,-3.1243,-3.0873,-3.092,-3.0934,-3.0901,-3.0733,-3.0834,-3.119,-3.119,-3.119,-3.119,-3.119,-3.119,-3.119,-3.119,-3.119,-3.119,-3.1035,-3.0679,-3.0267,-3.0284,-3.0284,-3.0199,-2.9572,-2.9438,-2.9467,-2.885,-2.885,-2.9136,-2.9273,-2.9478,-2.9669,-2.9669,-3.0139,-3.0648,-3.0553,-3.0861,-3.1191,-3.1092,-3.1063,-3.1197,-3.1628,-3.1747,-3.1844,-3.229,-3.2398,-3.2398,-3.2398,-3.2183,-3.1809,-3.1178,-3.1813,-3.2017,-3.0902,-3.1681,-3.2308,-3.2087,-3.225,-3.2398,-3.2398,-3.2398,-3.2398,-3.2398,-3.2176,-3.2161,-3.2382,-3.2398,-3.2514,-3.2736,-3.2441,-3.225,-3.225,-3.2695,-3.1849,-2.9669,0.0,0.0,0.0,0.0,0.0,0.0,0.0,0.0,0.0,0.0,0.0,0.0,0.0,0.0,0.0,0.0,0.0,0.0,0.0,0.0,0.0,0.0,0.0,-2.6396,-2.7329,-2.7857,-2.7191,-2.8077,-2.8779,-2.8893,-2.9464,-2.9839,-2.9839,-3.0581,-3.1053,-3.1053,-3.1799,-3.2054,-3.1653,-3.2369,-3.2452,-3.1695,-3.1677,-3.1524,-3.119,-3.119,-3.119,-3.119,-3.119,-3.119,-3.119,-3.119,-3.119,-3.1171,-3.072,-3.0246,-2.9903,-3.0797,-3.1151,-3.1015,-3.0118,-3.0075,-3.033,-2.9416,-2.909,-2.9029,-2.858,-2.8864,-2.9417,-2.9417,-2.9894,-3.0555,-3.1213,-3.1424,-3.1593,-3.2228,-3.2398,-3.2398,-3.2398,-3.2398,-3.2398,-3.2398,-3.2398,-3.2398,-3.2398,-3.2398,-3.2398,-3.2398,-3.2398,-3.2176,-3.153,-3.1968,0.0,-3.1515,-3.2014,-3.2398,-3.2398,-3.2382,-3.2398,-3.2441,-3.1824,-3.1748,-3.2422,-3.2468,-3.2767,-3.341,-3.2564,-3.2091,-3.2115,-3.2065,-3.1723,-3.11,0.0,0.0,0.0,0.0,0.0,0.0,0.0,0.0,0.0,0.0,0.0,0.0,0.0,0.0,0.0,0.0,0.0,0.0,0.0,0.0,0.0,-2.794,-2.8316,-2.7913,-2.7969,-2.7944,-2.7709,-2.8759,-2.9292,-2.8798,-2.9909,-3.0672,-3.0672,-3.1433,-3.1872,-3.1872,-3.2632,-3.2883,-3.2474,-3.2445,-3.2196,-3.1695,-3.1449,-3.1291,-3.119,-3.119,-3.119,-3.119,-3.119,-3.119,-3.119,-3.119,-3.119,-3.119,-3.1055,-3.072,-3.0309,-3.0225,-2.9968,-2.9683,-2.9772,-2.9661,-2.9461,-2.9189,-2.9202,-2.9292,-2.9184,-2.9571,-3.0125,-3.0125,-3.0597,-3.1151,-3.1362,-3.1736,-3.2151,-3.2336,-3.2398,-3.2398,-3.2398,-3.2398,-3.2398,-3.2398,-3.2398,-3.2398,-3.2398,-3.2398,-3.2398,-3.2398,-3.2398,-3.2324,-3.2161,-3.229,-3.2325,-3.2151,-3.2293,-3.2398,-3.2398,-3.2235,-3.2382,-3.3063,-3.2767,-3.2947,-3.3853,-3.391,-3.4022,-3.4182,-3.3955,-3.4044,-3.4537,-3.3334,-3.2896,0.0,0.0,0.0,0.0,0.0,0.0,0.0,0.0,0.0,0.0,0.0,0.0,0.0,0.0,0.0,0.0,0.0,0.0,0.0,0.0,0.0,0.0,-2.8566,-2.8996,-2.9406,-2.9279,-2.8969,-2.8553,-2.9606,-3.022,-2.9761,-3.083,-3.1547,-3.1547,-3.2291,-3.273,-3.2705,-3.3158,-3.3286,-3.3068,-3.27,-3.2334,-3.1967,-3.16,-3.1349,-3.119,-3.119,-3.119,-3.119,-3.119,-3.119,-3.1207,-3.1532,-3.1667,-3.1664,-3.1985,-3.1842,-3.1343,0.0,0.0,0.0,0.0,-3.0054,-2.9639,-2.9639,-2.9723,-2.9817,-2.9817,-3.0263,-3.0828,-3.0828,-3.1289,-3.1813,-3.1813,-3.209,-3.2398,-3.2398,-3.2398,-3.2398,-3.2398,-3.2398,-3.2398,-3.2398,-3.2398,-3.2398,-3.2398,-3.2398,0.0,-3.2398,-3.2398,-3.2308,-3.2014,-3.2211,-3.24,-3.2403,-3.2662,-3.2958,-3.3255,-3.3137,-3.3284,-3.3805,-3.3441,0.0,0.0,0.0,-3.4435,-3.4345,-3.4329,0.0,0.0,0.0,-3.3386,-3.4191,-3.2459,0.0,0.0,-3.0367,-3.0626,0.0,0.0,0.0,0.0,0.0,0.0,0.0,0.0,0.0,0.0,0.0,0.0,0.0,0.0,0.0,0.0,-2.9168,-2.9604,-3.08,-3.0983,-3.0628,-2.9642,-3.0607,-3.13,-3.126,-3.196,-3.2451,-3.2465,-3.3092,-3.3466,-3.3408,-3.3393,0.0,0.0,0.0,-3.2584,-3.2248,-3.1841,-3.1487,-3.119,-3.119,-3.1241,-3.1309,-3.1309,-3.136,-3.1478,-3.2141,-3.2429,-3.2479,-3.3136,-3.3096,-3.2492,-3.1179,-3.0762,-3.0942,-3.1118,-3.0876,-3.049,-3.049,0.0,0.0,-3.0509,-3.0966,-3.1516,-3.1516,-3.1921,-3.2398,-3.2398,-3.2398,-3.2398,-3.2398,-3.2398,-3.2398,-3.2398,-3.2398,-3.2398,-3.2398,-3.2398,-3.2441,-3.2514,-3.2514,-3.253,-3.2619,-3.2588,-3.2308,-3.172,-3.2192,-3.2647,-3.2647,-3.3163,-3.3768,-3.4441,-3.4457,0.0,-3.4591,-3.3999,-3.3902,-3.4664,-3.4725,-3.4634,-3.4359,-3.4359,-3.4359,-3.4359,-3.366,-3.3655,-3.4439,-3.3615,-3.3216,-3.3151,-3.0851,-3.0638,0.0,0.0,0.0,0.0,0.0,0.0,0.0,0.0,0.0,0.0,0.0,0.0,0.0,0.0,0.0,-2.9915,-3.0583,-3.1257,-3.1983,-3.2494,-3.2358,-3.1144,-3.1693,-3.2192,-3.2237,-3.2871,-3.3302,-3.334,-3.339,-3.3437,-3.3481,-3.3422,-3.3256,-3.2941,-3.2586,-3.2196,-3.1823,-3.1468,-3.1252,-3.119,-3.119,0.0,-3.209,-3.209,-3.2408,-3.2983,-3.3136,-3.3186,-3.3203,-3.3339,-3.2862,-3.2029,-3.1753,-3.1621,-3.1603,-3.1654,-3.138,-3.0961,-3.0961,-3.1057,-3.1197,-3.1197,-3.1659,-3.2198,-3.2198,-3.229,0.0,-3.2398,-3.2398,-3.2398,-3.2398,-3.2398,-3.2398,-3.2398,-3.2398,-3.2398,-3.2398,-3.2398,-3.2545,-3.3106,-3.3212,-3.3403,-3.3971,-3.3583,-3.3181,-3.3032,-3.3642,-3.4105,-3.4105,-3.4215,-3.4349,-3.4486,-3.4273,-3.4425,-3.5232,-3.494,-3.5107,-3.606,-3.609,-3.6075,-3.6044,-3.6044,-3.6044,-3.6044,-3.5291,-3.5026,-3.518,-3.3833,-3.3203,-3.3156,-3.2151,-3.2437,0.0,0.0,0.0,0.0,0.0,0.0,0.0,0.0,0.0,0.0,0.0,-2.7978,-2.7879,0.0,-2.9909,-3.0757,-3.1575,-3.2281,-3.2789,-3.3113,-3.3007,-3.2195,-3.2648,-3.3054,-3.3099,-3.341,-3.3601,-3.3661,-3.3549,-3.3506,-3.3549,-3.3495,-3.3357,-3.3202,-3.2651,-3.2248,-3.2056,-3.1844,-3.1752,-3.1752,-3.2121,-3.2493,-3.2848,-3.2848,-3.3051,-3.3423,-3.3795,-3.3947,-3.3981,-3.4353,-3.4052,-3.335,-3.335,-3.2644,-3.1637,-3.1984,-3.1956,-3.1763,-3.1763,-3.1812,-3.189,-3.189,-3.2121,-3.2398,-3.2398,-3.2398,-3.2398,-3.2398,-3.2398,-3.2398,-3.2398,-3.2398,-3.2398,-3.2398,-3.2398,-3.2398,-3.2398,-3.2662,-3.2989,-3.3329,-3.3715,-3.4067,-3.4429,-3.4489,-3.4338,-3.3992,-3.4263,-3.4611,-3.4974,-3.5003,-3.5123,-3.546,-3.5353,-3.5444,-3.5967,-3.5844,-3.5983,-3.6476,-3.6492,-3.6492,-3.6492,-3.6152,-3.5936,-3.5936,-3.4863,-3.4303,-3.4321,-3.322,-3.2718,-3.2704,-3.2359,-3.2577,0.0,0.0,0.0,0.0,0.0,0.0,0.0,-2.8359,-2.8024,-2.7471,-2.7934,-2.8473,-2.8533,-2.9767,-3.1058,-3.1843,-3.2535,-3.3094,-3.3489,-3.354,-3.3403,-3.3032,-3.3424,-3.3726,-3.3726,-3.3712,-3.3712,-3.3726,-3.3661,-3.3619,-3.3633,-3.3549,-3.3459,-3.3368,-3.2891,-3.258,-3.2371,-3.2483,-3.2551,-3.253,-3.3119,-3.3491,-3.3609,-3.3609,-3.3694,-3.3863,-3.4455,-3.4709,-3.4759,-3.5346,-3.527,-3.4793,-3.4793,-3.3564,-3.1816,-3.2373,-3.2492,-3.2398,-3.2398,-3.2398,-3.2398,-3.2398,-3.2398,-3.2398,-3.2398,-3.2398,-3.2398,-3.2398,-3.2398,-3.2398,-3.2398,-3.2398,-3.2398,-3.2398,-3.2398,-3.2441,-3.2588,-3.3032,-3.3485,-3.3746,-3.4286,-3.474,-3.4878,-3.5337,-3.546,-3.4801,-3.4801,-3.5092,-3.5613,-3.5675,-3.5906,-3.6461,-3.6492,-3.6492,-3.6492,-3.6492,-3.6492,-3.6492,-3.6492,-3.6461,-3.6306,-3.5737,-3.5318,-3.5194,-3.3873,-3.3217,-3.322,-3.2514,-3.2218,-3.2218,-3.2218,-3.2218,-2.6595,-2.6617,-2.7134,-2.7985,-2.8244,-2.8496,0.0,-2.8756,-2.829,-2.8893,-2.9568,-3.0278,-3.1027,-3.1902,-3.2793,-3.3601,-3.3804,-3.3978,-3.4327,-3.4376,-3.4199,-3.3734,-3.3752,-3.3793,-3.3793,-3.3739,-3.3726,-3.3793,-3.3671,-3.3633,-3.3684,-3.3633,-3.3247,-3.2569,-3.3191,-3.3157,-3.2318,-3.308,-3.3392,-3.3288,-3.3372,-3.3744,-3.437,-3.437,-3.4726,-3.5363,-3.543,-3.5481,-3.5481,-3.5566,-3.527,-3.4793,-3.4793,-3.4054,-3.3009,-3.3087,-3.2815,-3.2398,-3.2398,-3.2398,-3.2398,-3.2398,-3.2398,-3.2398,-3.2398,-3.2398,-3.2398,-3.2398,-3.2398,-3.2398,-3.2398,-3.2398,-3.2398,-3.2398,-3.2398,-3.2545,-3.3181,-3.3345,-3.3777,-3.5003,-3.5323,-3.5583,-3.6167,-3.6337,-3.6152,-3.5491,-3.589,-3.6306,-3.6384,-3.6399,-3.6414,-3.6492,-3.6492,-3.6492,-3.6492,-3.6492,-3.6492,-3.6492,-3.6492,-3.6214,-3.5568,-3.5429,-3.5085,-3.4455,-3.3619,-3.3221,-3.322,-3.2514,-3.2218,-3.2218,-3.2218,-3.2218,-2.8012,-2.794,-2.7961,-2.9419,-2.9411,-2.9141,-2.9529,-2.9177,-2.8896,-2.9221,-3.0235,-3.1175,-3.1533,-3.2642,-3.3605,-3.3949,-3.4285,-3.4519,-3.4494,-3.4405,-3.4184,-3.3842,-3.3807,-3.3807,-3.3807,-3.378,-3.378,-3.3807,-3.3712,-3.3684,-3.3753,-3.3684,-3.3644,-3.3619,-3.3696,-3.3652,-3.3481,-3.399,-3.4198,-3.4156,-3.451,-3.4883,-3.5254,-3.517,-3.5318,-3.56,-3.56,-3.56,-3.56,-3.56,-3.547,-3.527,-3.527,-3.4793,-3.407,-3.3417,-3.2868,-3.2398,-3.2398,-3.2398,-3.2398,-3.2398,-3.2398,-3.2398,-3.2398,-3.2398,-3.2398,-3.2398,-3.2398,-3.2398,-3.2398,-3.2398,-3.2398,-3.2398,-3.2693,-3.3048,-3.3345,-3.4034,-3.4802,-3.5385,-3.5829,-3.6167,-3.6461,-3.6492,-3.6399,-3.6137,-3.6322,-3.6492,-3.6492,-3.6492,-3.6492,-3.6492,-3.6492,-3.6492,-3.6492,-3.6492,-3.6492,-3.6492,-3.6492,-3.6167,-3.5429,-3.5001,-3.4395,-3.3659,-3.2951,-3.2641,-3.2641,-3.2359,-3.2218,-3.2218,-3.2218,-3.2218,-2.8363,-2.8624,-2.8825,-2.9919,-2.9883,-2.9609,-2.9607,-2.9448,-2.9437,-2.9913,-3.1046,-3.2032,-3.225,-3.3422,-3.4359,-3.4355,-3.4663,-3.4821,-3.454,-3.4325,-3.4099,-3.3829,-3.3807,-3.3807,-3.3807,-3.3807,-3.3807,-3.3807,-3.3766,-3.3844,-3.4105,-3.4,-3.4149,-3.4621,-3.4423,-3.4372,-3.4451,-3.4901,-3.5109,-3.5066,-3.5457,-3.5706,-3.5795,-3.5689,-3.5667,-3.5711,-3.5711,-3.5711,-3.5711,-3.5667,-3.5667,-3.5627,-3.5442,-3.5044,-3.4462,-3.3542,-3.2951,-3.2586,-3.2437,-3.2398,-3.2398,-3.2398,-3.2398,-3.2398,-3.2398,-3.2398,-3.2398,-3.2398,-3.2398,-3.2398,-3.2398,-3.253,-3.2678,-3.2678,-3.3196,-3.377,-3.395,-3.4772,-3.5568,-3.5737,-3.6167,-3.6492,-3.6492,-3.6492,-3.6492,-3.6492,-3.6492,-3.6492,-3.6492,-3.6492,-3.6414,-3.6229,-3.6214,-3.609,-3.5906,-3.589,-3.589,-3.589,-3.6075,-3.5767,-3.4817,-3.4473,-3.3879,-3.2937,-3.245,-3.2218,-3.2218,-3.2218,-3.2218,-3.2218,-3.2218,-3.2218,-2.7074,-2.814,-2.9288,-2.8563,-2.8982,-2.9609,-2.9608,-2.9432,-2.9771,-3.1465,-3.2372,-3.3109,-3.3883,-3.4705,-3.5255,-3.5254,-3.5063,-3.4821,-3.454,-3.4325,-3.4099,-3.3829,-3.3807,-3.3807,-3.3807,-3.3807,-3.3807,-3.3807,-3.3807,-3.4142,-3.4931,-3.4651,-3.4623,-3.4975,-3.5415,-3.5394,-3.489,-3.5728,-3.6088,-3.5963,-3.5844,-3.5795,-3.5795,-3.5795,-3.5861,-3.5997,-3.5997,-3.5997,-3.5975,-3.5849,-3.5788,-3.5749,-3.5071,-3.4509,-3.3949,-3.3397,-3.3203,-3.3093,-3.2574,-3.2398,-3.2398,-3.2398,-3.2398,-3.2398,-3.2398,-3.2398,-3.2398,-3.2398,-3.2398,-3.2398,-3.2398,-3.2884,-3.336,-3.336,-3.394,-3.4648,-3.5294,-3.546,-3.5675,-3.6337,-3.6492,-3.6492,-3.6492,-3.6492,-3.6492,-3.6492,-3.6492,-3.6492,-3.6492,-3.6492,-3.6229,-3.5506,-3.5429,-3.5138,-3.442,-3.4359,-3.4359,-3.4359,-3.5046,-3.4786,-3.3311,-3.3945,-3.3659,-3.2246,-3.2218,-3.2218,-3.2218,-3.2218,-3.2218,-3.2218,-3.2218,-3.2218,-2.8471,-2.8655,-2.8914,-2.9802,-2.9804,-2.9746,-3.033,-3.0741,-3.1358,-3.2516,-3.2866,-3.3235,-3.4071,-3.4384,-3.452,-3.4553,-3.4611,-3.4593,-3.4518,-3.4172,-3.3895,-3.382,-3.3807,-3.3807,-3.3807,-3.3807,-3.3807,-3.3807,-3.4289,-3.4711,-3.4986,-3.5178,-3.5467,-3.5847,-3.575,-3.5727,-3.5766,-3.6045,-3.6182,-3.6122,-3.6079,-3.6014,-3.5932,-3.5932,-3.5971,-3.5997,-3.5997,-3.5997,-3.5997,-3.5849,-3.5591,-3.5238,-3.4918,-3.4472,-3.394,-3.3406,-3.3191,-3.3119,-3.2602,-3.2398,-3.2398,-3.2398,-3.2398,-3.2398,-3.2398,-3.2398,-3.2398,-3.2398,-3.2736,-3.3048,-3.3048,-3.3583,-3.4126,-3.4131,-3.4651,-3.5216,-3.5461,-3.5844,-3.6229,-3.6461,-3.6492,-3.6492,-3.6492,-3.6492,-3.6492,-3.6492,-3.6492,-3.6492,-3.6492,-3.6492,-3.6399,-3.6152,-3.5692,-3.5276,-3.5042,-3.4574,-3.4292,-3.4292,-3.4511,-3.4215,-3.3249,-3.3433,-3.3142,-3.2218,-3.2218,-3.2218,-3.2218,-3.2218,-3.2218,-3.2218,-3.2218,-3.2218,-2.9326,-2.9378,-2.9508,-3.0624,-3.0488,-3.0371,-3.1521,-3.209,-3.2688,-3.3845,-3.3766,-3.3618,-3.4166,-3.418,-3.4139,-3.4153,-3.4428,-3.4622,-3.4551,-3.4196,-3.3908,-3.382,-3.3807,-3.3917,-3.4197,-3.4215,-3.4215,-3.4215,-3.4711,-3.5261,-3.5848,-3.6045,-3.631,-3.672,-3.6334,-3.615,-3.6251,-3.6251,-3.6229,-3.6204,-3.6204,-3.6144,-3.6062,-3.6062,-3.6084,-3.6105,-3.6105,-3.6084,-3.6062,-3.5929,-3.5543,-3.4986,-3.4628,-3.4198,-3.3662,-3.3096,-3.2922,-3.2868,-3.252,-3.2398,-3.2398,-3.2398,-3.2398,-3.2441,-3.2678,-3.2752,-3.281,-3.3063,-3.345,-3.3791,-3.3791,-3.4316,-3.485,-3.4866,-3.5368,-3.5844,-3.5844,-3.6214,-3.6492,-3.6492,-3.6492,-3.6492,-3.6492,-3.6492,-3.6492,-3.6492,-3.6492,-3.6492,-3.6492,-3.6492,-3.6306,-3.5767,-3.5292,-3.4807,-3.4301,-3.3815,-3.3531,-3.3531,-3.3751,-3.3586,-3.2862,-3.3059,-3.2873,-3.2218,-3.2218,-3.2218,-3.2218,-3.2218,-3.2218,-3.2218,-3.2218,-3.2218,-2.9548,-3.0223,-3.0916,-3.0955,-3.0996,-3.1465,-3.3085,-3.3401,-3.3787,-3.5375,-3.4933,-3.4245,-3.4212,-3.416,-3.4121,-3.4087,-3.4524,-3.4821,-3.4612,-3.4356,-3.4086,-3.3815,-3.3844,-3.4174,-3.4931,-3.5041,-3.5078,-3.5133,-3.5133,-3.5811,-3.7419,-3.7153,-3.712,-3.7488,-3.7113,-3.6719,-3.6301,-3.6301,-3.6276,-3.6225,-3.6225,-3.6225,-3.6225,-3.6225,-3.6251,-3.6301,-3.6301,-3.6255,-3.6187,-3.6036,-3.5574,-3.4901,-3.4216,-3.363,-3.3156,-3.265,-3.2475,-3.2505,-3.2518,-3.2475,-3.2444,-3.2456,-3.2487,-3.265,-3.327,-3.345,-3.3599,-3.4293,-3.4506,-3.4549,-3.4549,-3.5052,-3.5568,-3.5568,-3.6044,-3.6492,-3.6492,-3.6492,-3.6492,-3.6492,-3.6492,-3.6492,-3.6461,-3.6461,-3.6414,-3.6399,-3.6398,-3.6398,-3.643,-3.6461,-3.589,-3.4461,-3.4262,-3.3678,-3.2345,-3.2218,-3.2218,-3.2218,-3.2796,-3.2859,-3.2232,-3.2809,-3.2859,-3.2218,-3.2218,-3.2218,-3.2218,-3.2218,-3.2218,-3.2218,-3.2218,-3.2218,-3.0334,-3.0718,-3.1034,-3.1639,-3.2284,-3.3046,-3.412,-3.4809,-3.5316,-3.5697,-3.4586,-3.3703,-3.4179,-3.3735,-3.343,-3.3819,-3.4282,-3.4537,-3.4333,-3.4068,-3.3868,-3.382,-3.4325,-3.4766,-3.4986,-3.5591,-3.6211,-3.6817,-3.6853,-3.7052,-3.7474,-3.7699,-3.7697,-3.7523,-3.7113,-3.6719,-3.6301,-3.6301,-3.628,-3.6259,-3.6259,-3.6259,-3.6259,-3.6259,-3.628,-3.6301,-3.6301,-3.628,-3.6233,-3.5633,-3.5077,-3.4487,-3.3708,-3.3385,-3.332,-3.3187,-3.3475,-3.395,-3.3942,-3.3604,-3.3149,-3.3144,-3.3529,-3.3994,-3.4175,-3.4211,-3.426,-3.4451,-3.4865,-3.5262,-3.5262,-3.5723,-3.6245,-3.6245,-3.6384,-3.6492,-3.6492,-3.6492,-3.6492,-3.6492,-3.6492,-3.6322,-3.5767,-3.5675,-3.5491,-3.4954,-3.4846,-3.5049,-3.5594,-3.5675,-3.5317,-3.4407,-3.3804,-3.3346,-3.2996,-3.25,-3.2218,-3.2218,-3.2359,-3.2373,-3.2218,-3.2359,-3.2373,-3.2218,-3.2218,-3.2218,-3.2218,-3.2218,-3.2218,-3.2218,-3.2218,-3.2218,-3.1063,-3.1423,-3.1717,-3.2947,-3.3612,-3.4101,-3.459,-3.5028,-3.5211,-3.4792,-3.3644,-3.2936,-3.3613,-3.3334,-3.3179,-3.3719,-3.4292,-3.4551,-3.4244,-3.4068,-3.405,-3.4298,-3.4729,-3.5298,-3.6028,-3.6541,-3.7162,-3.7955,-3.7694,-3.7658,-3.8025,-3.8243,-3.8101,-3.7523,-3.7266,-3.688,-3.6301,-3.6301,-3.6301,-3.6301,-3.6301,-3.6301,-3.6301,-3.6301,-3.649,-3.6818,-3.6818,-3.6926,-3.7104,-3.6684,-3.5984,-3.5135,-3.4771,-3.435,-3.3962,-3.3966,-3.4233,-3.4583,-3.4521,-3.443,-3.4264,-3.3996,-3.4158,-3.4558,-3.4844,-3.4951,-3.4987,-3.5294,-3.566,-3.5921,-3.5921,-3.6229,-3.6492,-3.6492,-3.6492,-3.6492,-3.6492,-3.6492,-3.6492,-3.6492,-3.6245,-3.59,-3.5462,-3.5137,-3.4765,-3.4364,-3.4312,-3.4335,-3.4409,-3.4735,-3.4621,-3.3904,-3.3453,-3.3078,-3.2796,-3.2436,-3.2218,-3.2218,-3.2218,-3.2218,-3.2218,-3.2218,-3.2218,-3.2218,-3.2218,-3.2218,-3.2218,-3.2218,-3.2218,-3.2218,-3.2218,-3.2218,-3.1652,-3.2185,-3.2654,-3.4293,-3.4784,-3.4844,-3.4726,-3.4657,-3.4351,-3.3475,-3.2602,-3.2237,-3.3033,-3.307,-3.3199,-3.3816,-3.447,-3.4714,-3.4218,-3.4265,-3.4525,-3.494,-3.5206,-3.5885,-3.7364,-3.7603,-3.7936,-3.8652,-3.8046,-3.797,-3.867,-3.8707,-3.8336,-3.7523,-3.7414,-3.7017,-3.6301,-3.6301,-3.6301,-3.6301,-3.6301,-3.6301,-3.6301,-3.6404,-3.6835,-3.7512,-3.7616,-3.7858,-3.8219,-3.8134,-3.7398,-3.6346,-3.6275,-3.5726,-3.4929,-3.485,-3.4858,-3.4911,-3.4814,-3.5155,-3.5526,-3.4835,-3.4675,-3.4877,-3.5446,-3.564,-3.5745,-3.6322,-3.6492,-3.6492,-3.6492,-3.6492,-3.6492,-3.6492,-3.6492,-3.6492,-3.6492,-3.6492,-3.6492,-3.6492,-3.5983,-3.5484,-3.5282,-3.4713,-3.4242,-3.4036,-3.4022,-3.3801,-3.3156,-3.3687,-3.3879,-3.3156,-3.3078,-3.2809,-3.2232,-3.2218,-3.2218,-3.2218,-3.2218,-3.2218,-3.2218,-3.2218,-3.2218,-3.2218,-3.2218,-3.2218,-3.2218,-3.2218,-3.2218,-3.2218,-3.2218,-3.2218,-3.1812,-3.2635,-3.3417,-3.4432,-3.5233,-3.5585,-3.4863,-3.4684,-3.4415,-3.3491,-3.2618,-3.2415,-3.3824,-3.3495,-3.3346,-3.4377,-3.4728,-3.4656,-3.3979,-3.4629,-3.5136,-3.5014,-3.6229,-3.718,-3.7474,-3.8102,-3.856,-3.8689,-3.8579,-3.856,-3.8689,-3.8707,-3.8336,-3.7523,-3.6841,-3.6451,-3.6301,-3.6301,-3.6301,-3.6301,-3.6301,-3.6301,-3.6318,-3.6995,-3.7374,-3.753,-3.8151,-3.8384,-3.8322,-3.7777,-3.733,-3.692,-3.5959,-3.5805,-3.6052,-3.5547,-3.5706,-3.6184,-3.6153,-3.623,-3.6229,-3.5524,-3.5687,-3.6168,-3.6276,-3.6337,-3.6338,-3.6476,-3.6492,-3.6492,-3.6492,-3.6492,-3.6492,-3.6492,-3.6492,-3.6492,-3.6492,-3.6492,-3.6492,-3.6492,-3.6399,-3.5901,-3.4683,-3.4399,-3.3893,-3.2732,-3.2577,-3.2514,-3.2373,-3.2951,-3.3142,-3.245,-3.2373,-3.2309,-3.2218,-3.2218,-3.2218,-3.2218,-3.2218,-3.2218,-3.2218,-3.2218,-3.2218,-3.2218,-3.2218,-3.2218,-3.2218,-3.2218,-3.2218,-3.2218,-3.2218,-3.2218,-3.2419,-3.3417,-3.4295,-3.5155,-3.5683,-3.5644,-3.4336,-3.4019,-3.3633,-3.2271,-3.1644,-3.1667,-3.2783,-3.2666,-3.2621,-3.3432,-3.3838,-3.3903,-3.3451,-3.4423,-3.5316,-3.5638,-3.6762,-3.7658,-3.8065,-3.8469,-3.8707,-3.8707,-3.8707,-3.8707,-3.8707,-3.8302,-3.7896,-3.7523,-3.6719,-3.6301,-3.6301,-3.6301,-3.6301,-3.6301,-3.6301,-3.6301,-3.6335,-3.7129,-3.7676,-3.8023,-3.874,-3.9197,-3.9361,-3.9134,-3.8714,-3.8194,-3.7765,-3.7379,-3.6972,-3.6705,-3.658,-3.6585,-3.6507,-3.6492,-3.6446,-3.6127,-3.6226,-3.6492,-3.6492,-3.6492,-3.6492,-3.6492,-3.6492,-3.6492,-3.6492,-3.6492,-3.6492,-3.6492,-3.6492,-3.6492,-3.6492,-3.6492,-3.6492,-3.6492,-3.6183,-3.5582,-3.4481,-3.3981,-3.3379,-3.2355,-3.2218,-3.2218,-3.2218,-3.25,-3.2577,-3.2232,-3.2218,-3.2218,-3.2218,-3.2218,-3.2218,-3.2218,-3.2218,-3.2218,-3.2218,-3.2218,-3.2218,-3.2218,-3.2218,-3.2218,-3.2218,-3.2218,-3.2218,-3.2218,-3.2218,-3.2218,-3.32,-3.4179,-3.4902,-3.578,-3.5996,-3.5547,-3.3809,-3.3391,-3.2901,-3.1165,-3.076,-3.0923,-3.1687,-3.1802,-3.195,-3.2432,-3.3057,-3.3427,-3.3287,-3.45,-3.5708,-3.6464,-3.7272,-3.8025,-3.8634,-3.8707,-3.8707,-3.8707,-3.8707,-3.8707,-3.8707,-3.8017,-3.7596,-3.7505,-3.6801,-3.6388,-3.6301,-3.6301,-3.6301,-3.6301,-3.6301,-3.6301,-3.6335,-3.7284,-3.7976,-3.8443,-3.9352,-3.9946,-4.0305,-4.0412,-4.0028,-3.9391,-3.948,-3.8859,-3.7908,-3.7648,-3.7254,-3.6832,-3.6569,-3.6492,-3.6492,-3.6492,-3.6492,-3.6492,-3.6492,-3.6492,-3.6492,-3.6492,-3.6492,-3.6492,-3.6492,-3.6492,-3.6492,-3.6492,-3.6492,-3.6492,-3.6492,-3.6492,-3.6492,-3.6492,-3.6013,-3.5403,-3.4675,-3.3928,-3.3205,-3.2525,-3.2277,-3.2218,-3.2218,-3.2218,-3.2218,-3.2218,-3.2218,-3.2218,-3.2218,-3.2218,-3.2218,-3.2218,-3.2218,-3.2218,-3.2218,-3.2218,-3.2218,-3.2218,-3.2218,-3.2218,-3.2218,-3.2218,-3.2218,-3.2218,-3.2218,-3.2282,-3.4101,-3.4648,-3.4902,-3.5781,-3.5996,-3.5547,-3.3809,-3.3408,-3.2915,-3.1163,-3.0752,-3.0939,-3.174,-3.1839,-3.197,-3.2505,-3.3401,-3.4039,-3.409,-3.5661,-3.6963,-3.7331,-3.8102,-3.8615,-3.8689,-3.8707,-3.8707,-3.8707,-3.8707,-3.8707,-3.8707,-3.8285,-3.7879,-3.7523,-3.7057,-3.6678,-3.6301,-3.6301,-3.6301,-3.6301,-3.6301,-3.6301,-3.6353,-3.7818,-3.8458,-3.8477,-3.9959,-4.0483,-4.0305,-4.0313,-4.0188,-3.9969,-3.9444,-3.9162,-3.892,-3.7825,-3.7368,-3.7266,-3.6693,-3.6492,-3.6492,-3.6492,-3.6492,-3.6492,-3.6492,-3.6492,-3.6492,-3.6492,-3.6492,-3.6492,-3.6492,-3.6492,-3.6492,-3.6492,-3.6492,-3.6492,-3.6492,-3.6492,-3.6492,-3.6492,-3.6461,-3.6148,-3.5431,-3.4702,-3.3959,-3.3227,-3.2596,-3.2218,-3.2218,-3.2218,-3.2218,-3.2218,-3.2218,-3.2218,-3.2218,-3.2218,-3.2218,-3.2218,-3.2218,-3.2218,-3.2218,-3.2218,-3.2218,-3.2218,-3.2218,-3.2218,-3.2218,-3.2218,-3.2218,-3.2218,-3.2218,-3.25,-3.4354,-3.5078,-3.5566,-3.5918,-3.5996,-3.5547,-3.3809,-3.3407,-3.2911,-3.1155,-3.0747,-3.08,-3.1072,-3.106,-3.1081,-3.1306,-3.2354,-3.331,-3.3837,-3.5574,-3.705,-3.7664,-3.8339,-3.875,-3.8707,-3.8707,-3.8707,-3.8707,-3.8707,-3.8707,-3.8707,-3.832,-3.7913,-3.7523,-3.7113,-3.6719,-3.6301,-3.6301,-3.6301,-3.6301,-3.6301,-3.6301,-3.6353,-3.7887,-3.8465,-3.8385,-3.9908,-4.0436,-4.0188,-4.028,-4.0213,-4.007,-3.9918,-3.9592,-3.9098,-3.8238,-3.7703,-3.7307,-3.6724,-3.6492,-3.6492,-3.6492,-3.6492,-3.6492,-3.6492,-3.6492,-3.6492,-3.6492,-3.6492,-3.6492,-3.6492,-3.6492,-3.6492,-3.6492,-3.6492,-3.6492,-3.6492,-3.6492,-3.6492,-3.6492,-3.6492,-3.6273,-3.5539,-3.5169,-3.4547,-3.3388,-3.296,-3.2668,-3.2241,-3.2218,-3.2218,-3.2218,-3.2218,-3.2218,-3.2218,-3.2218,-3.2218,-3.2218,-3.2218,-3.2218,-3.2218,-3.2218,-3.2218,-3.2218,-3.2218,-3.2218,-3.2218,-3.2218,-3.2218,-3.2218,-3.2218,-3.2514,-3.4737,-3.5506,-3.5975,-3.5996,-3.5801,-3.5234,-3.373,-3.3194,-3.2583,-3.1111,-3.0747,-3.0697,-3.0634,-3.0561,-3.0583,-3.0839,-3.2057,-3.3228,-3.398,-3.569,-3.7063,-3.754,-3.8127,-3.8457,-3.8416,-3.8591,-3.8707,-3.8707,-3.8707,-3.8707,-3.8707,-3.8417,-3.8101,-3.7685,-3.7302,-3.688,-3.6492,-3.6364,-3.6301,-3.6301,-3.6301,-3.6301,-3.6335,-3.7663,-3.8276,-3.8328,-3.9621,-4.0182,-4.0163,-4.0213,-4.0188,-4.0113,-4.0213,-3.9918,-3.9391,-3.8794,-3.8181,-3.7578,-3.6983,-3.6662,-3.6492,-3.6492,-3.6492,-3.6492,-3.6492,-3.6492,-3.6492,-3.6492,-3.6492,-3.6492,-3.6492,-3.6492,-3.6492,-3.6492,-3.6492,-3.6492,-3.6492,-3.6492,-3.6492,-3.6492,-3.6492,-3.6352,-3.58,-3.5529,-3.496,-3.3699,-3.3353,-3.296,-3.2277,-3.2218,-3.2218,-3.2218,-3.2218,-3.2218,-3.2218,-3.2218,-3.2218,-3.2218,-3.2218,-3.2218,-3.2218,-3.2218,-3.2218,-3.2218,-3.2218,-3.2218,-3.2218,-3.2218,-3.2218,-3.2218,-3.2373,-3.2782,-3.5406,-3.5895,-3.5921,-3.5976,-3.5351,-3.4473,-3.3594,-3.2729,-3.1853,-3.0978,-3.0743,-3.0691,-3.0697,-3.0586,-3.0786,-3.1657,-3.3088,-3.4297,-3.4907,-3.633,-3.72,-3.6936,-3.7384,-3.7696,-3.7696,-3.832,-3.8707,-3.8707,-3.8707,-3.8707,-3.8707,-3.8692,-3.8515,-3.8101,-3.7703,-3.7302,-3.69,-3.6512,-3.6301,-3.6301,-3.6301,-3.6301,-3.6335,-3.715,-3.7838,-3.8443,-3.9121,-3.9747,-4.0305,-4.0163,-4.0096,-4.0096,-4.0096,-4.0096,-4.002,-3.9418,-3.881,-3.8193,-3.7608,-3.7013,-3.6492,-3.6492,-3.6492,-3.6492,-3.6492,-3.6492,-3.6492,-3.6492,-3.6492,-3.6492,-3.6492,-3.6492,-3.6492,-3.6492,-3.6492,-3.6492,-3.6492,-3.6492,-3.6492,-3.6492,-3.6492,-3.6492,-3.6492,-3.5879,-3.5157,-3.4413,-3.3665,-3.296,-3.2277,-3.2218,-3.2218,-3.2218,-3.2218,-3.2218,-3.2218,-3.2218,-3.2218,-3.2218,-3.2218,-3.2218,-3.2218,-3.2218,-3.2218,-3.2218,-3.2218,-3.2218,-3.2218,-3.2218,-3.2218,-3.2218,-3.2809,-3.3375,-3.3797,-3.4153,-3.4203,-3.4215,-3.4023,-3.3574,-3.2714,-3.2298,-3.185,-3.0989,-3.0755,-3.0707,-3.0699,-3.0625,-3.1018,-3.2405,-3.3499,-3.4644,-3.5971,-3.7252,-3.7988,-3.7873,-3.8169,-3.8379,-3.8379,-3.8591,-3.8707,-3.8707,-3.8707,-3.8707,-3.8707,-3.8707,-3.8515,-3.8118,-3.7983,-3.7578,-3.69,-3.6761,-3.6557,-3.6301,-3.6301,-3.6301,-3.6335,-3.7129,-3.7777,-3.8311,-3.9074,-3.9681,-4.0163,-4.0138,-4.0096,-4.0096,-4.0096,-4.0096,-4.002,-3.9418,-3.9082,-3.8838,-3.8238,-3.7621,-3.7134,-3.7134,-3.6831,-3.6492,-3.6492,-3.6492,-3.6492,-3.6492,-3.6492,-3.6492,-3.6492,-3.6492,-3.6492,-3.6492,-3.6492,-3.6492,-3.6492,-3.6492,-3.6492,-3.6492,-3.6492,-3.6492,-3.6492,-3.632,-3.5911,-3.5157,-3.4399,-3.3699,-3.296,-3.2467,-3.2218,-3.2218,-3.2218,-3.2218,-3.2218,-3.2218,-3.2218,-3.2218,-3.2218,-3.2218,-3.2218,-3.2218,-3.2218,-3.2218,-3.2218,-3.2218,-3.2218,-3.2218,-3.2422,-3.2843,-3.3786,-3.4121,-3.2964,-3.3331,-3.3373,-3.3392,-3.3143,-3.2773,-3.2226,-3.1869,-3.1486,-3.0927,-3.0779,-3.0739,-3.0695,-3.0649,-3.1124,-3.2742,-3.3923,-3.51,-3.6358,-3.7632,-3.8342,-3.8097,-3.8215,-3.8419,-3.867,-3.8707,-3.8707,-3.8707,-3.8707,-3.8707,-3.8707,-3.8707,-3.8596,-3.8318,-3.8186,-3.7791,-3.7132,-3.6978,-3.6698,-3.6301,-3.6301,-3.6301,-3.6335,-3.7129,-3.7777,-3.8311,-3.9057,-3.9705,0.0,-4.0138,-4.0096,-4.0096,-4.0096,-4.0096,-4.0045,-3.967,-3.9391,-3.9152,-3.8767,-3.8112,-3.7417,-3.7417,-3.6983,-3.6492,-3.6492,-3.6492,-3.6492,-3.6492,-3.6492,-3.6492,-3.6492,-3.6492,-3.6492,-3.6492,-3.6492,-3.6492,-3.6492,-3.6492,-3.6492,-3.6492,-3.6492,-3.6492,-3.6492,-3.6492,-3.6258,-3.5497,-3.478,-3.4027,-3.3283,-3.2596,-3.2218,-3.2218,-3.2218,-3.2218,-3.2218,-3.2218,-3.2218,-3.2218,-3.2218,-3.2218,-3.2218,-3.2218,-3.2218,-3.2218,-3.2218,-3.2218,-3.2218,-3.2436,-3.2952,-3.3751,-3.4235,-3.4279,0.0,-3.3129,-3.3132,-3.3193,-3.2614,-3.2011,-3.2011,-3.1443,0.0,-3.0812,-3.0808,-3.0781,-3.0715,-3.0649,-3.1143,-3.2819,-3.4391,-3.564,-3.6287,-3.7581,-3.8291,-3.785,-3.777,-3.8026,-3.868,-3.8723,-3.8707,-3.8707,-3.8707,-3.8707,-3.8707,-3.8707,-3.8707,-3.8707,-3.8336,-3.7948,-3.7542,-3.7133,-3.6739,-3.6343,-3.6322,-3.6301,-3.6335,-3.7129,-3.7821,-3.842,-3.9097,-3.973,-4.028,-4.0163,-4.0096,-4.0096,-4.0096,-4.0096,-4.0096,-4.0096,-3.9722,-3.9206,-3.9206,-3.8423,-3.7387,-3.7358,-3.6952,-3.6492,-3.6492,-3.6492,-3.6492,-3.6492,-3.6492,-3.6492,-3.6492,-3.6492,-3.6492,-3.6492,-3.6492,-3.6492,-3.6492,-3.6492,-3.6492,-3.6492,-3.6492,-3.6492,-3.6492,-3.646,-3.6179,-3.5497,-3.4714,-3.3973,-3.3283,-3.2596,-3.2218,-3.2218,-3.2218,-3.2218,-3.2218,-3.2218,-3.2218,-3.2218,-3.2218,-3.2218,-3.2218,-3.2218,-3.2218,-3.2218,-3.2259,-3.2273,-3.2286,-3.2911,-3.3726,-3.4728,-3.4216,-3.3908,-3.1265,0.0,-3.1382,-3.1404,-3.1263,-3.1113,0.0,-3.1049,-3.0882,-3.0817,-3.0804,-3.0756,-3.0657,-3.0606,-3.1341,-3.3622,-3.484,-3.5871,-3.7048,-3.7679,-3.8219,-3.872,-3.8604,-3.8604,-3.8974,-3.8807,-3.8707,-3.8707,-3.8707,-3.8707,-3.8707,-3.8707,-3.8707,-3.8707,-3.8611,-3.8368,-3.7948,-3.756,-3.717,-3.6759,-3.6451,-3.6301,-3.6335,-3.7129,-3.7777,-3.8288,-3.9057,-3.9681,-4.0121,-4.0096,-4.0096,-4.0096,-4.0096,-4.0096,-4.0096,-4.0096,-3.9722,-3.9206,-3.9206,-3.8423,-3.7328,-3.6861,-3.6616,-3.6492,-3.6492,-3.6492,-3.6492,-3.6492,-3.6492,-3.6492,-3.6492,-3.6492,-3.6492,-3.6492,-3.6492,-3.6492,-3.6492,-3.6492,-3.6492,-3.6492,-3.6492,-3.6492,-3.6492,-3.6038,-3.5608,-3.5432,-3.4279,-3.3388,-3.3213,-3.2596,-3.2218,-3.2218,-3.2218,-3.2218,-3.2218,-3.2218,-3.2218,-3.2218,-3.2218,-3.2218,-3.2218,-3.2218,-3.2218,-3.2218,-3.2653,-3.2898,-3.2898,-3.3905,-3.4312,-3.4122,-3.4446,-3.412,-3.0789,-3.0795,-3.0796,-3.08,-3.0814,-3.0859,-3.0896,-3.0892,-3.0882,-3.0808,-3.0808,-3.0762,-3.0656,-3.1256,-3.2189,-3.3531,-3.5355,-3.7068,-3.8404,-3.8301,-3.8384,-3.9192,-3.9045,-3.8935,-3.9087,-3.8851,-3.8707,-3.8707,-3.8707,-3.8707,-3.8707,-3.8707,-3.8707,-3.8707,-3.8707,-3.8499,-3.8101,-3.7879,-3.7487,-3.69,-3.6678,-3.6492,-3.6335,-3.7473,-3.8064,-3.8265,-3.9392,-3.9988,-4.0096,-4.0096,-4.0096,-4.0096,-4.0096,-4.0096,-4.0096,-4.0096,-3.9876,-3.9575,-3.9286,-3.8423,-3.7298,-3.6693,-3.6492,-3.6492,-3.6492,-3.6492,-3.6492,-3.6492,-3.6492,-3.6492,-3.6492,-3.6492,-3.6492,-3.6492,-3.6492,-3.6492,-3.6492,-3.6492,-3.6492,-3.6492,-3.6492,-3.6492,-3.6492,-3.6179,-3.58,-3.5464,-3.4447,-3.3596,-3.3248,-3.2596,-3.2218,-3.2218,-3.2218,-3.2218,-3.2218,-3.2218,-3.2218,-3.2218,-3.2218,-3.2218,-3.2218,-3.2218,-3.2341,-3.2612,-3.2938,-3.3237,-3.3471,-3.407,-3.4219,-3.3908,-3.4,-3.3675,-3.0774,-3.0891,-3.0976,-3.0828,-3.0836,-3.0898,-3.0895,-3.089,-3.0862,-3.0819,-3.0795,-3.08,-3.0862,-3.1979,-3.3028,-3.3396,-3.5991,-3.84,-3.961,-3.8964,-3.8633,-3.9358,-3.9192,-3.9045,-3.9101,-3.8851,-3.8707,-3.8707,-3.8707,-3.8707,-3.8707,-3.8707,-3.8707,-3.8707,-3.8707,-3.853,-3.8185,-3.8135,-3.7739,-3.6997,-3.6919,-3.6698,-3.6353,-3.7887,-3.8442,-3.8299,-3.9819,-4.0362,-4.0096,-4.0096,-4.0096,-4.0096,-4.0096,-4.0096,-4.0096,-4.0096,-4.0045,-3.985,-3.9179,-3.8197,-3.7178,-3.6662,-3.6492,-3.6492,-3.6492,-3.6492,-3.6492,-3.6492,-3.6492,-3.6492,-3.6492,-3.6492,-3.6492,-3.6492,-3.6492,-3.6492,-3.6492,-3.6492,-3.6492,-3.6492,-3.6492,-3.6492,-3.6492,-3.632,-3.5943,-3.5335,-3.4514,-3.3734,-3.3122,-3.2538,-3.2218,-3.2218,-3.2218,-3.2218,-3.2218,-3.2218,-3.2218,-3.2218,-3.2218,-3.2259,-3.2341,-3.2354,-3.2626,-3.3224,-3.3237,-3.3444,-3.3908,-3.3908,-3.3867,-3.3758,-3.3295,-3.3047,-3.0789,-3.134,-3.1713,-3.0971,-3.0819,-3.084,-3.0892,-3.0865,-3.0815,-3.0798,-3.0757,-3.0892,-3.1525,-3.1874,-3.2734,-3.4719,-3.6841,-3.8475,-3.9133,-3.8883,-3.8777,-3.9124,-3.8921,-3.8851,-3.9073,-3.8851,-3.8707,-3.8707,-3.8707,-3.8707,-3.8707,-3.8707,-3.8707,-3.8707,-3.8707,-3.8658,-3.8611,-3.8269,-3.7879,-3.7414,-3.7075,-3.6698,-3.6353,-3.7887,-3.8442,-3.8299,-3.9819,-4.0362,-4.0096,-4.0096,-4.0096,-4.0096,-4.0096,-4.0096,-4.0096,-4.0096,-3.9773,-3.9162,-3.8055,-3.7208,-3.6631,-3.6523,-3.6492,-3.6492,-3.6492,-3.6492,-3.6492,-3.6492,-3.6492,-3.6492,-3.6492,-3.6492,-3.6492,-3.6492,-3.6492,-3.6492,-3.6492,-3.6492,-3.6492,-3.6492,-3.6492,-3.6492,-3.6492,-3.5464,-3.4614,-3.448,-3.3346,-3.248,-3.2372,-3.2277,-3.2218,-3.2218,-3.2218,-3.2218,-3.2218,-3.2218,-3.2218,-3.2218,-3.2218,-3.2436,-3.2938,-3.2966,-3.32,-3.3758,-3.3772,-3.3826,-3.3908,-3.3908,-3.365,-3.3237,-3.3142,-3.283,-3.078,-3.1114,-3.1463,-3.1484,-3.1855,-3.2204,-3.2237,-3.2199,-3.2038,-3.1584,-3.1421,-3.1448,-3.1784,-3.2923,-3.4738,-3.7578,-3.7947,-3.8266,-3.9378,-3.8939,-3.8689,-3.9255,-3.9073,-3.8964,-3.9087,-3.8851,-3.8707,-3.8707,-3.8707,-3.8707,-3.8707,-3.8707,-3.8707,-3.8707,-3.8707,-3.8707,-3.8707,-3.8515,-3.8118,-3.7505,-3.7321,-3.7128,-3.6995,-3.8116,-3.8711,-3.8973,-4.0038,-4.0387,-4.0188,-4.0138,-4.0096,-4.0096,-4.0096,-4.0096,-4.0096,-4.0096,-3.9523,-3.8629,-3.8067,-3.7282,-3.6492,-3.6492,-3.6492,-3.6492,-3.6492,-3.6492,-3.6492,-3.6492,-3.6492,-3.6492,-3.6492,-3.6492,-3.6492,-3.6492,-3.6492,-3.6492,-3.6492,-3.6492,-3.6492,-3.6492,-3.6492,-3.6492,-3.6492,-3.5608,-3.4747,-3.438,-3.3402,-3.2596,-3.2241,-3.2218,-3.2218,-3.2218,-3.2218,-3.2218,-3.2218,-3.2218,-3.2354,-3.268,-3.2395,-3.2589,-3.3498,-3.2928,-3.301,-3.3894,-3.3634,-3.3471,-3.3471,-3.3471,-3.3159,-3.2612,-3.2612,-3.2653,-3.0786,-3.0983,-3.1386,-3.2206,-3.275,-3.3136,-3.3339,-3.3347,-3.3117,-3.2477,-3.225,-3.2184,-3.2167,-3.4098,-3.6535,-3.9137,-3.8651,-3.8348,-3.9451,-3.8914,-3.8621,-3.9249,-3.9142,-3.9007,-3.9007,-3.8807,-3.8707,-3.8707,-3.8707,-3.8707,-3.8707,-3.8707,-3.8707,-3.8707,-3.8707,-3.8707,-3.8707,-3.8707,-3.8285,-3.7505,-3.7505,-3.7498,-3.753,-3.8249,-3.894,-3.954,-4.024,-4.0436,-4.0288,-4.0188,-4.0138,-4.0096,-4.0096,-4.0096,-4.0096,-4.0096,-3.9348,-3.8306,-3.8306,-3.7504,-3.6492,-3.6492,-3.6492,-3.6492,-3.6492,-3.6492,-3.6492,-3.6492,-3.6492,-3.6492,-3.6492,-3.6492,-3.6492,-3.6492,-3.6492,-3.6492,-3.6492,-3.6492,-3.6492,-3.6492,-3.6352,-3.6289,-3.646,-3.5608,-3.4747,-3.4346,-3.3541,-3.2797,-3.2277,-3.2218,-3.2218,-3.2218,-3.2218,-3.2218,-3.2218,-3.2341,-3.2612,-3.3074,-3.268,-3.2793,-3.3664,-3.2861,-3.2874,-3.3894,-3.3363,-3.3101,-3.3101,-3.2966,-3.2653,-3.2218,-3.2354,-3.2667,-3.0786,-3.1395,-3.2226,-3.3084,-3.2748,-3.2383,-3.3139,-3.3295,-3.3251,-3.3063,-3.303,-3.2982,-3.2927,-3.4879,-3.6682,-3.7244,-3.8463,-3.9221,-3.8848,-3.8725,-3.8676,-3.875,-3.8735,-3.8738,-3.8738,-3.8723,-3.8707,-3.8707,-3.8707,-3.8707,-3.8707,-3.8707,-3.8707,-3.8707,-3.8707,-3.8707,-3.8707,-3.8707,-3.8285,-3.7505,-3.7505,-3.7498,-3.753,-3.8249,-3.894,-3.954,-4.0329,-4.0551,-4.0305,-4.0305,-4.0213,-4.0096,-4.0096,-4.0096,-4.0096,-4.0096,-3.9348,-3.8306,-3.8306,-3.7504,-3.6492,-3.6492,-3.6492,-3.6492,-3.6492,-3.6492,-3.6492,-3.6492,-3.6492,-3.6492,-3.6492,-3.6492,-3.6492,-3.6492,-3.6492,-3.6492,-3.6492,-3.6492,-3.6492,-3.6492,-3.5943,-3.5705,-3.6383,-3.4747,-3.3561,-3.4197,-3.315,-3.2241,-3.2218,-3.2218,-3.2218,-3.2218,-3.2218,-3.2218,-3.2218,-3.2721,-3.3047,-3.3101,-3.3061,-3.3074,-3.3156,-3.3074,-3.3295,-3.3894,-3.3363,-3.3101,-3.3101,-3.2544,-3.2259,-3.2218,-3.2775,-3.3061,-3.0788,-3.144,-3.2304,-3.3182,-3.3566,-3.3784,-3.4053,-3.4071,-3.3867,-3.3225,-3.3073,-3.3334,-3.4315,-3.6092,-3.7553,-3.8009,-3.8878,-3.9364,-3.8989,-3.881,-3.8707,-3.8707,-3.8707,-3.8707,-3.8707,-3.8707,-3.8707,-3.8707,-3.8707,-3.8707,-3.8707,-3.8707,-3.8707,-3.8707,-3.8707,-3.8707,-3.8707,-3.8707,-3.8417,-3.7879,-3.7614,-3.7881,-3.8558,-3.8589,-3.9244,-4.0386,-4.0583,-4.0648,-4.0527,-4.0379,-4.0263,-4.0213,-4.0121,-4.0096,-4.0096,-4.0096,-3.9348,-3.8306,-3.8306,-3.7504,-3.6492,-3.6492,-3.6492,-3.6492,-3.6492,-3.6492,-3.6492,-3.6492,-3.6492,-3.6492,-3.6492,-3.6492,-3.6492,-3.6492,-3.6492,-3.6492,-3.6492,-3.6492,-3.6492,-3.6492,-3.5911,-3.5497,-3.5769,-3.438,-3.3283,-3.3561,-3.281,-3.2218,-3.2218,-3.2218,-3.2354,-3.2721,-3.3064,-3.3132,-3.2803,-3.3268,-3.3295,-3.2599,-3.2544,-3.2847,-3.358,-3.2901,-3.2793,-3.339,-3.2806,-3.2544,-3.2544,-3.2694,-3.2762,-3.2775,-3.3335,-3.381,-3.1218,-3.1659,-3.2361,-3.3506,-3.3807,-3.3903,-3.4085,-3.4528,-3.4617,-3.3645,-3.3203,-3.3583,-3.5468,-3.6665,-3.7628,-3.8435,-3.9023,-3.9285,-3.9003,-3.8825,-3.8707,-3.8707,-3.8707,-3.8707,-3.8707,-3.8707,-3.8707,-3.8707,-3.8707,-3.8707,-3.8707,-3.8707,-3.8707,-3.8707,-3.8707,-3.8707,-3.8707,-3.8707,-3.8499,-3.8101,-3.7685,-3.8099,-3.9193,-3.8781,-3.9445,-4.0894,-4.0817,-4.0745,-4.0673,-4.0453,-4.0313,-4.0213,-4.0138,-4.0096,-4.0096,-4.0096,-3.9348,-3.8306,-3.8306,-3.7504,-3.6492,-3.6492,-3.6492,-3.6492,-3.6492,-3.6492,-3.6492,-3.6492,-3.6492,-3.6492,-3.6492,-3.6492,-3.6492,-3.6492,-3.6492,-3.6492,-3.6492,-3.6492,-3.6429,-3.6179,-3.5576,-3.5059,-3.5059,-3.3837,-3.296,-3.3157,-3.2632,-3.2218,-3.2218,-3.2381,-3.2721,-3.3281,-3.3664,-3.3664,-3.3156,-3.343,-3.324,-3.2236,-3.2218,-3.2535,-3.3311,-3.2603,-3.2395,-3.2816,-3.2422,-3.23,-3.2504,-3.2898,-3.3196,-3.3363,-3.3908,-3.4409,-3.2089,-3.2109,-3.2514,-3.4168,-3.3295,-3.2216,-3.2957,-3.4453,-3.5393,-3.4398,-3.3577,-3.3775,-3.6257,-3.6425,-3.6663,-3.8082,-3.8739,-3.9007,-3.8753,-3.8707,-3.8707,-3.8707,-3.8707,-3.8707,-3.8707,-3.8707,-3.8707,-3.8707,-3.8707,-3.8707,-3.8707,-3.8707,-3.8707,-3.8707,-3.8707,-3.8707,-3.8707,-3.8692,-3.8499,-3.8101,-3.7703,-3.8098,-3.9193,-3.8781,-3.9445,-4.0912,-4.0912,-4.0817,-4.0697,-4.0558,-4.032,-4.0096,-4.0096,-4.0096,-4.0096,-4.0096,-3.9322,-3.8306,-3.8278,-3.7504,-3.6492,-3.6492,-3.6492,-3.6492,-3.6492,-3.6492,-3.6492,-3.6492,-3.6492,-3.6492,-3.6492,-3.6492,-3.6492,-3.6492,-3.6492,-3.6492,-3.6492,-3.6492,-3.6289,-3.5529,-3.478,-3.4279,-3.4279,-3.3115,-3.2444,-3.3087,-3.2632,-3.2218,-3.2218,-3.2735,-3.3295,-3.384,-3.3908,-3.3664,-3.3156,-3.3101,-3.2843,-3.2259,-3.2218,-3.2218,-3.2218,-3.2218,-3.2218,-3.2218,-3.2218,-3.2517,-3.3115,-3.3115,-3.3376,-3.3935,-3.4531,-3.4802,-3.1269,-3.2078,-3.3066,-3.3561,-3.3718,-3.396,-3.4681,-3.4352,-3.394,-3.4141,-3.4455,-3.5102,-3.6442,-3.688,-3.7316,-3.8165,-3.8739,-3.9007,-3.8753,-3.8707,-3.8707,-3.8707,-3.8707,-3.8707,-3.8707,-3.8707,-3.8707,-3.8707,-3.8707,-3.8707,-3.8707,-3.8707,-3.8707,-3.8707,-3.8707,-3.8707,-3.8707,-3.8417,-3.8219,-3.8085,-3.7964,-3.837,-3.9193,-3.8781,-3.9445,-4.0912,-4.0912,-4.0817,-4.0673,-4.0436,-4.0263,-4.0096,-4.0096,-4.0096,-4.0045,-3.9601,-3.8957,-3.8222,-3.7825,-3.7148,-3.6492,-3.6492,-3.6492,-3.6492,-3.6492,-3.6492,-3.6492,-3.6492,-3.6492,-3.6492,-3.6492,-3.6492,-3.6492,-3.6492,-3.6492,-3.6352,-3.5847,-3.5737,-3.5497,-3.478,-3.4027,-3.3526,-3.3526,-3.281,-3.2277,-3.248,-3.235,-3.2368,-3.2789,-3.3322,-3.3718,-3.3894,-3.3908,-3.3664,-3.3156,-3.3101,-3.2843,-3.2259,-3.2218,-3.2218,-3.2218,-3.2218,-3.2409,-3.283,-3.283,-3.3091,-3.365,-3.4109,-3.4394,-3.4545,-3.5141,-3.5412,-3.2118,-3.3002,-3.3721,-3.3703,-3.381,-3.4108,-3.4875,-3.4257,-3.3759,-3.4546,-3.4833,-3.5362,-3.6796,-3.7176,-3.7597,-3.8536,-3.8824,-3.8877,-3.8719,-3.8707,-3.8707,-3.8707,-3.8707,-3.8707,-3.8707,-3.8707,-3.8707,-3.8707,-3.8707,-3.8707,-3.8707,-3.8707,-3.8707,-3.8707,-3.8707,-3.8627,-3.8449,-3.8219,-3.793,-3.7632,-3.7962,-3.8394,-3.8955,-3.9022,-3.9738,-4.0912,-4.0912,-4.0817,-4.0673,-4.0478,-4.0288,-4.0163,-4.0138,-4.0096,-4.002,-3.9418,-3.8821,-3.8193,-3.7608,-3.7013,-3.6492,-3.6492,-3.6492,-3.6492,-3.6492,-3.6492,-3.6492,-3.6492,-3.6492,-3.6492,-3.6492,-3.6289,-3.6148,-3.6429,-3.6289,-3.5943,-3.5512,-3.5157,-3.4747,-3.4007,-3.3492,-3.3122,-3.2868,-3.248,-3.2218,-3.2218,-3.2409,-3.2789,-3.3335,-3.3691,-3.3908,-3.3908,-3.3704,-3.3444,-3.3129,-3.2884,-3.2599,-3.2232,-3.2436,-3.2572,-3.2572,-3.2572,-3.2843,-3.3403,-3.3417,-3.3702,-3.426,-3.4612,-3.491,-3.5154,-3.5547,-3.571,-3.3631,-3.4109,-3.4155,-3.409,-3.3596,-3.3279,-3.3923,-3.4205,-3.4545,-3.5346,-3.4865,-3.4971,-3.7186,-3.7325,-3.7565,-3.9044,-3.8946,-3.8707,-3.8707,-3.8707,-3.8707,-3.8707,-3.8707,-3.8707,-3.8707,-3.8707,-3.8707,-3.8707,-3.8707,-3.8707,-3.8707,-3.8707,-3.8707,-3.8707,-3.8658,-3.8467,-3.8101,-3.8034,-3.7632,-3.6917,-3.7755,-3.8314,-3.8634,-3.9353,-4.0129,-4.0912,-4.0888,-4.0817,-4.0697,-4.0534,-4.0412,-4.0305,-4.0163,-4.0096,-4.002,-3.9365,-3.8767,-3.821,-3.7549,-3.6952,-3.6492,-3.6492,-3.6492,-3.6492,-3.6492,-3.6492,-3.6492,-3.6492,-3.6492,-3.6492,-3.6429,-3.5911,-3.5561,-3.6148,-3.5784,-3.5287,-3.5222,-3.4681,-3.3973,-3.3262,-3.3122,-3.2925,-3.23,-3.2218,-3.2232,-3.2286,-3.2803,-3.3335,-3.384,-3.3867,-3.3826,-3.3826,-3.3335,-3.302,-3.302,-3.2572,-3.2286,-3.2286,-3.2843,-3.321,-3.3251,-3.321,-3.3417,-3.3975,-3.3989,-3.4287,-3.487,-3.487,-3.5141,-3.571,-3.571,-3.571,-3.1226,-3.1926,-3.2353,-3.2343,-3.3139,-3.382,-3.3301,-3.4237,-3.5269,-3.5462,-3.5306,-3.5637,-3.7229,-3.7244,-3.7488,-3.8904,-3.8884,-3.8707,-3.8707,-3.8707,-3.8707,-3.8707,-3.8707,-3.8707,-3.8707,-3.8707,-3.8707,-3.8707,-3.8707,-3.8707,-3.8707,-3.8707,-3.8707,-3.8707,-3.8401,-3.8203,-3.8101,-3.7469,-3.7075,-3.6917,-3.7986,-3.8533,-3.8634,-3.9353,-4.0129,-4.0894,-4.0793,-4.0721,-4.0673,-4.0436,-4.033,-4.0305,-4.028,-4.0188,-3.9995,-3.9011,-3.8502,-3.8153,-3.7058,-3.66,-3.6492,-3.6492,-3.6492,-3.6492,-3.6492,-3.6492,-3.6492,-3.6492,-3.6492,-3.6367,-3.5784,-3.5529,-3.5302,-3.4879,-3.4647,-3.438,-3.3802,-3.3561,-3.3227,-3.2538,-3.2408,-3.2372,-3.2205,-3.2218,-3.2368,-3.2843,-3.3376,-3.3772,-3.3894,-3.3539,-3.3254,-3.3254,-3.2762,-3.2395,-3.2395,-3.2721,-3.2911,-3.2911,-3.343,-3.3935,-3.4434,-3.3962,-3.4002,-3.4585,-3.4612,-3.4897,-3.5533,-3.5533,-3.5588,-3.571,-3.571,-3.571,-3.1864,-3.2401,-3.248,-3.2858,-3.3268,-3.368,-3.4064,-3.4846,-3.5493,-3.546,-3.5376,-3.5695,-3.6991,-3.7036,-3.738,-3.8785,-3.8815,-3.8707,-3.8707,-3.8707,-3.8707,-3.8707,-3.8707,-3.8707,-3.8707,-3.8707,-3.8707,-3.8707,-3.8707,-3.8707,-3.8707,-3.8707,-3.8611,-3.8417,-3.8219,-3.7913,-3.7523,-3.7113,-3.7011,-3.721,-3.8157,-3.8996,-3.9721,-4.0118,-4.0515,-4.0912,-4.084,-4.0793,-4.0752,-4.051,-4.0436,-4.0478,-4.0263,-4.007,-3.9756,-3.875,-3.8222,-3.7822,-3.6861,-3.6492,-3.6492,-3.6492,-3.6492,-3.6492,-3.6492,-3.6492,-3.6492,-3.6492,-3.6258,-3.5879,-3.5497,-3.4894,-3.4245,-3.3856,-3.3754,-3.3665,-3.3283,-3.296,-3.2596,-3.2277,-3.2218,-3.2218,-3.2218,-3.2449,-3.2806,-3.3403,-3.3718,-3.3813,-3.3552,-3.3254,-3.2993,-3.2707,-3.2395,-3.2327,-3.2612,-3.2925,-3.3224,-3.3471,-3.4002,-3.4463,-3.4788,-3.4775,-3.4897,-3.5209,-3.5209,-3.5371,-3.571,-3.571,-3.571,-3.571,-3.571,-3.571,-3.2838,-3.3323,-3.3145,-3.3808,-3.3545,-3.3506,-3.4942,-3.5364,-3.5424,-3.532,-3.525,-3.554,-3.6727,-3.6857,-3.7253,-3.8662,-3.878,-3.8707,-3.8707,-3.8707,-3.8707,-3.8707,-3.8707,-3.8707,-3.8707,-3.8707,-3.8707,-3.8707,-3.8707,-3.8707,-3.8707,-3.8707,-3.8515,-3.8118,-3.8034,-3.765,-3.69,-3.6821,-3.7039,-3.7512,-3.8392,-3.9549,-4.0912,-4.0912,-4.0912,-4.0912,-4.0912,-4.0912,-4.0888,-4.0607,-4.0583,-4.0648,-4.0196,-3.9833,-3.9463,-3.8601,-3.7966,-3.7517,-3.68,-3.6523,-3.6523,-3.6523,-3.6492,-3.6492,-3.6492,-3.6492,-3.6492,-3.6492,-3.5975,-3.5367,-3.5222,-3.4211,-3.3157,-3.3052,-3.303,-3.303,-3.303,-3.2596,-3.2218,-3.2218,-3.2286,-3.2368,-3.2368,-3.2857,-3.3376,-3.384,-3.3826,-3.362,-3.3169,-3.3006,-3.2762,-3.2259,-3.23,-3.2572,-3.3061,-3.3292,-3.358,-3.403,-3.4612,-3.4951,-3.4951,-3.5412,-3.571,-3.571,-3.571,-3.571,-3.571,-3.571,-3.571,-3.571,-3.5818,-3.5873,-3.0516,-3.1934,-3.2942,-3.3045,-3.3545,-3.409,-3.4321,-3.4824,-3.5166,-3.4936,-3.499,-3.5512,-3.6834,-3.6887,-3.7156,-3.8589,-3.875,-3.8707,-3.8707,-3.8707,-3.8707,-3.8707,-3.8707,-3.8707,-3.8707,-3.8707,-3.8707,-3.8707,-3.8707,-3.8707,-3.8707,-3.8707,-3.8515,-3.8118,-3.7756,-3.7377,-3.69,-3.6536,-3.6761,-3.753,-3.8888,-4.0026,-4.0912,-4.0912,-4.0912,-4.0912,-4.0912,-4.0912,-4.0888,-4.0607,-4.0583,-4.0624,-3.9935,-3.9584,-3.9332,-3.8451,-3.7895,-3.7517,-3.6876,-3.6662,-3.6662,-3.6554,-3.6492,-3.6492,-3.6492,-3.6492,-3.6492,-3.6492,-3.5975,-3.5255,-3.4614,-3.3837,-3.3052,-3.2467,-3.2336,-3.2336,-3.2336,-3.2277,-3.2218,-3.2218,-3.2626,-3.2979,-3.2979,-3.343,-3.3826,-3.3894,-3.3512,-3.3183,-3.3115,-3.2653,-3.23,-3.2218,-3.268,-3.3006,-3.3088,-3.4,-3.4585,-3.4666,-3.5236,-3.5601,-3.5601,-3.5683,-3.571,-3.571,-3.571,-3.571,-3.571,-3.571,-3.571,-3.5723,-3.6252,-3.6483,-2.9936,-3.2033,-3.3622,-3.3622,-3.3897,-3.4275,-3.4808,-3.5044,-3.5096,-3.4944,-3.4774,-3.5101,-3.6551,-3.6662,-3.705,-3.8589,-3.8765,-3.8707,-3.8707,-3.8707,-3.8707,-3.8707,-3.8707,-3.8707,-3.8707,-3.8707,-3.8707,-3.8707,-3.8707,-3.8707,-3.8707,-3.8483,-3.8186,-3.7791,-3.7359,-3.6978,-3.6557,-3.6838,-3.756,-3.8732,-3.9859,-4.0567,-4.0912,-4.0912,-4.0912,-4.0912,-4.0912,-4.0864,-4.0769,-4.0583,-4.037,-4.0154,-3.9679,-3.9199,-3.8723,-3.8169,-3.7682,-3.7224,-3.6831,-3.6662,-3.6569,-3.6523,-3.6492,-3.6492,-3.6492,-3.6492,-3.6414,-3.6006,-3.5367,-3.4614,-3.3871,-3.3157,-3.2574,-3.2277,-3.2218,-3.2218,-3.2218,-3.2218,-3.2218,-3.2218,-3.2694,-3.321,-3.3498,-3.3731,-3.3908,-3.3908,-3.3444,-3.2979,-3.2653,-3.2368,-3.2341,-3.268,-3.2938,-3.3373,-3.4,-3.449,-3.4924,-3.5263,-3.5574,-3.571,-3.571,-3.571,-3.571,-3.571,-3.571,-3.571,-3.571,-3.571,-3.5886,-3.6212,-3.6483,-3.6782,-2.9887,-3.1996,-3.3667,-3.409,-3.4113,-3.4283,-3.5206,-3.5174,-3.4926,-3.487,-3.4688,-3.4946,-3.6321,-3.645,-3.6932,-3.8619,-3.8795,-3.8707,-3.8707,-3.8707,-3.8707,-3.8707,-3.8707,-3.8707,-3.8707,-3.8707,-3.8707,-3.8707,-3.8707,-3.8707,-3.8707,-3.832,-3.7913,-3.7523,-3.7113,-3.6719,-3.6301,-3.7267,-3.8422,-3.9698,-4.0532,-4.0912,-4.0912,-4.0912,-4.0912,-4.0912,-4.0912,-4.0817,-4.0673,-4.0395,-4.0129,-3.9791,-3.9242,-3.8701,-3.821,-3.7915,-3.7478,-3.7014,-3.6877,-3.6723,-3.6616,-3.6585,-3.6523,-3.6492,-3.6492,-3.6492,-3.6398,-3.5847,-3.5157,-3.4413,-3.3665,-3.296,-3.2408,-3.2241,-3.2218,-3.2218,-3.2218,-3.2218,-3.2259,-3.2409,-3.2911,-3.343,-3.3826,-3.3908,-3.3853,-3.3704,-3.3213,-3.2721,-3.2273,-3.2341,-3.2612,-3.3047,-3.3373,-3.3878,-3.4721,-3.4924,-3.5209,-3.5683,-3.571,-3.571,-3.571,-3.571,-3.571,-3.571,-3.5859,-3.594,-3.594,-3.594,-3.6252,-3.6836,-3.6999,-3.7311,-3.0027,-3.1149,-3.2218,-3.3801,-3.4057,-3.4128,-3.5026,-3.486,-3.4539,-3.4528,-3.4866,-3.5427,-3.6348,-3.6398,-3.6875,-3.8623,-3.8795,-3.8707,-3.8707,-3.8707,-3.8707,-3.8707,-3.8707,-3.8707,-3.8707,-3.8707,-3.8707,-3.8707,-3.8707,-3.8707,-3.8707,-3.832,-3.7913,-3.7523,-3.7113,-3.6719,-3.6301,-3.7784,-3.8922,-3.9698,-4.0532,-4.0912,-4.0912,-4.0912,-4.0912,-4.0912,-4.0912,-4.0817,-4.0648,-3.9935,-3.9774,-3.9851,-3.849,-3.8014,-3.8042,-3.7671,-3.7375,-3.7194,-3.7194,-3.7089,-3.6938,-3.6754,-3.66,-3.6492,-3.6492,-3.6492,-3.6492,-3.646,-3.5911,-3.5157,-3.4447,-3.3699,-3.2995,-3.2336,-3.2218,-3.2218,-3.2218,-3.2218,-3.2381,-3.2938,-3.3498,-3.388,-3.3908,-3.3908,-3.3718,-3.3237,-3.264,-3.2259,-3.2218,-3.2707,-3.3074,-3.3101,-3.4068,-3.4734,-3.4788,-3.5303,-3.5683,-3.571,-3.571,-3.571,-3.571,-3.571,-3.571,-3.571,-3.6266,-3.6551,-3.6551,-3.6551,-3.6877,-3.7458,-3.8057,-3.8342,-2.8823,-3.06,-3.2487,-3.2564,-3.3195,-3.3887,-3.4276,-3.4396,-3.442,-3.4383,-3.486,-3.5495,-3.6293,-3.6779,-3.7467,-3.8637,-3.8765,-3.8707,-3.8707,-3.8707,-3.8707,-3.8707,-3.8707,-3.8707,-3.8707,-3.8707,-3.8707,-3.8707,-3.8707,-3.8596,-3.8336,-3.793,-3.7542,-3.7132,-3.6721,-3.6918,-3.7767,-3.8784,-3.9698,-4.0457,-4.0774,-4.0912,-4.0912,-4.0912,-4.0847,-4.0769,-4.0847,-4.0793,-4.0534,-3.9868,-3.9454,-3.9152,-3.8355,-3.7902,-3.7685,-3.7553,-3.7359,-3.7194,-3.7194,-3.7089,-3.6969,-3.6754,-3.6754,-3.6816,-3.6677,-3.6631,-3.6538,-3.6054,-3.532,-3.4514,-3.3802,-3.3066,-3.2503,-3.2241,-3.2218,-3.2327,-3.2694,-3.2789,-3.2843,-3.3061,-3.3539,-3.3908,-3.3908,-3.3634,-3.3308,-3.3129,-3.2599,-3.2354,-3.2735,-3.2966,-3.3387,-3.4109,-3.4545,-3.4951,-3.5317,-3.5601,-3.571,-3.571,-3.571,-3.571,-3.571,-3.6076,-3.628,-3.628,-3.689,-3.6999,-3.6605,-3.6999,-3.7514,-3.8055,-3.8315,-3.8627,-2.7612,-2.9294,-3.1237,-3.1256,-3.1879,-3.2722,-3.3559,-3.3863,-3.4078,-3.4475,-3.5153,-3.5878,-3.6628,-3.7393,-3.8095,-3.87,-3.875,-3.8707,-3.8707,-3.8707,-3.8707,-3.8707,-3.8707,-3.8707,-3.8707,-3.8707,-3.8707,-3.8707,-3.8707,-3.8515,-3.8118,-3.7721,-3.7247,-3.6719,-3.671,-3.7301,-3.8599,-3.9319,-4.0095,-4.0912,-4.0912,-4.0912,-4.0912,-4.0912,-4.0864,-4.0769,-4.059,-4.0541,-4.0493,-3.9697,-3.9172,-3.8871,-3.81,-3.7685,-3.751,-3.751,-3.7435,-3.73,-3.73,-3.718,-3.7044,-3.6907,-3.6923,-3.6969,-3.6831,-3.68,-3.6693,-3.6212,-3.5642,-3.4978,-3.3939,-3.2938,-3.2218,-3.2218,-3.2218,-3.2381,-3.2966,-3.3101,-3.3156,-3.3322,-3.365,-3.384,-3.365,-3.3322,-3.3033,-3.283,-3.264,-3.2653,-3.3047,-3.3441,-3.3959,-3.4707,-3.4965,-3.5249,-3.5683,-3.571,-3.571,-3.571,-3.571,-3.5805,-3.5995,-3.6388,-3.67,-3.6904,-3.7472,-3.758,-3.7216,-3.7623,-3.8095,-3.8708,-3.8708,-3.8925,0.0,0.0,0.0,-2.9923,-3.0228,-3.0719,-3.2911,-3.325,-3.3494,-3.4795,-3.5735,-3.6556,-3.7345,-3.8157,-3.8719,-3.8792,-3.875,-3.8707,-3.8707,-3.8707,-3.8707,-3.8707,-3.8707,-3.8707,-3.8707,-3.8707,-3.8707,-3.8707,-3.8707,-3.8515,-3.8101,-3.7685,-3.7113,-3.6356,-3.7094,-3.7892,-3.8634,-3.937,-4.0112,-4.0912,-4.0912,-4.0912,-4.0912,-4.0912,-4.0912,-4.0847,-4.0137,-4.0154,-4.0607,-3.9378,-3.8995,-3.9044,-3.7725,-3.7329,-3.751,-3.751,-3.751,-3.751,-3.751,-3.7359,-3.7224,-3.7194,-3.7119,-3.6999,-3.7015,-3.7015,-3.7015,-3.7015,-3.6984,-3.66,-3.4993,-3.3381,-3.2205,-3.2205,-3.2218,-3.2395,-3.2966,-3.3115,-3.3292,-3.3799,-3.3908,-3.3718,-3.3196,-3.3088,-3.2884,-3.2327,-3.2721,-3.3115,-3.3142,-3.4122,-3.4802,-3.4816,-3.5331,-3.571,-3.571,-3.571,-3.571,-3.571,-3.5737,-3.5995,-3.6578,-3.6632,-3.6944,-3.7512,-3.8095,-3.845,-3.845,-3.845,-3.8735,-3.9305,-3.9305,-3.9305,-2.7535,0.0,0.0,0.0,0.0,0.0,-3.1039,-3.2267,-3.3598,-3.4362,-3.5646,-3.683,-3.7404,-3.8157,-3.8707,-3.8719,-3.8704,-3.8707,-3.8707,-3.8707,-3.8707,-3.8707,-3.8707,-3.8707,-3.8707,-3.8707,-3.8707,-3.8707,-3.8707,-3.8401,-3.7703,-3.7017,-3.6793,-3.7167,-3.7909,-3.8646,-3.9388,-4.0187,-4.0687,-4.0912,-4.0912,-4.0912,-4.0912,-4.0912,-4.0912,-4.0888,-4.0686,-4.0704,-4.0704,-3.9011,-3.8339,-3.8355,-3.7685,-3.7435,-3.751,-3.751,-3.751,-3.751,-3.751,-3.7464,-3.7405,-3.7254,-3.727,-3.7315,-3.718,-3.7134,-3.7134,-3.7134,-3.6693,-3.5817,-3.4211,-3.3367,-3.2797,-3.2314,-3.2544,-3.2898,-3.3061,-3.3403,-3.3718,-3.388,-3.3908,-3.3718,-3.3196,-3.2748,-3.2544,-3.2816,-3.2993,-3.3414,-3.4231,-3.4585,-3.4965,-3.5385,-3.5615,-3.571,-3.571,-3.571,-3.571,-3.571,-3.6117,-3.6429,-3.6592,-3.7446,-3.7989,-3.8122,-3.8749,-3.9061,-3.9061,-3.9061,-3.9142,-3.9305,-3.9305,-3.9305,-2.7997,-2.8852,-2.9621,-2.8646,0.0,0.0,-3.0858,-3.2221,-3.374,-3.4891,-3.6168,-3.7281,-3.7886,-3.8377,-3.8707,-3.8707,-3.8707,-3.8707,-3.8707,-3.8707,-3.8707,-3.8707,-3.8707,-3.8707,-3.8707,-3.8707,-3.8707,-3.8707,-3.8707,-3.8352,-3.7542,-3.69,-3.6835,-3.7478,-3.8237,-3.8939,-3.9681,-4.0515,-4.0912,-4.0912,-4.0912,-4.0912,-4.0912,-4.0912,-4.0912,-4.0888,-4.0621,-4.0402,-4.0087,-3.8739,-3.8339,-3.8495,-3.7772,-3.751,-3.751,-3.751,-3.751,-3.751,-3.751,-3.751,-3.748,-3.7359,-3.7405,-3.748,-3.7359,-3.7329,-3.7329,-3.7329,-3.6415,-3.516,-3.3993,-3.3262,-3.2759,-3.2627,-3.2653,-3.2857,-3.3322,-3.3498,-3.358,-3.358,-3.358,-3.339,-3.283,-3.2436,-3.2409,-3.3006,-3.3268,-3.377,-3.4666,-3.5005,-3.529,-3.5683,-3.571,-3.571,-3.571,-3.571,-3.5818,-3.6076,-3.6415,-3.6836,-3.7338,-3.8043,-3.8532,-3.8776,-3.9129,-3.9305,-3.9305,-3.9305,-3.9305,-3.9305,-3.9305,-3.9305,-2.8401,-2.8703,-2.9223,-2.9127,-2.9175,0.0,-3.1386,-3.2468,-3.3639,-3.5502,-3.6519,-3.7329,-3.821,-3.8375,-3.8412,-3.8486,-3.8548,-3.8628,-3.8689,-3.8707,-3.8707,-3.8707,-3.8707,-3.8707,-3.8707,-3.8707,-3.8707,-3.8707,-3.8676,-3.8302,-3.7542,-3.7184,-3.7207,-3.7599,-3.8336,-3.9077,-3.9819,-4.0549,-4.0912,-4.0912,-4.0912,-4.0912,-4.0912,-4.0912,-4.0912,-4.0871,-4.0336,-3.9791,-3.9242,-3.8657,-3.8629,-3.8909,-3.7889,-3.751,-3.751,-3.751,-3.751,-3.751,-3.751,-3.751,-3.751,-3.751,-3.751,-3.751,-3.751,-3.751,-3.748,-3.7421,-3.6259,-3.4865,-3.423,-3.3276,-3.2572,-3.3026,-3.2767,-3.2636,-3.362,-3.343,-3.3074,-3.3006,-3.3047,-3.2911,-3.2314,-3.2273,-3.2517,-3.3115,-3.3661,-3.4219,-3.4816,-3.5358,-3.571,-3.571,-3.571,-3.571,-3.571,-3.5778,-3.6035,-3.6564,-3.6727,-3.7284,-3.8369,-3.8477,-3.8762,-3.9292,-3.9305,-3.9305,-3.9305,-3.9305,-3.9305,-3.9305,-3.9305,-3.9305,-2.9962,-3.0019,-2.9987,-2.928,-2.9585,0.0,-2.9736,-3.0844,-3.2172,-3.2996,-3.3805,-3.476,-3.6041,-3.6304,-3.6509,-3.7156,-3.7647,-3.8145,-3.8628,-3.8707,-3.8707,-3.8707,-3.8707,-3.8707,-3.8707,-3.8707,-3.8707,-3.8707,-3.8401,-3.8017,-3.7523,-3.7731,-3.8028,-3.8375,-3.9094,-3.9871,-4.067,-4.0825,-4.0912,-4.0912,-4.0912,-4.0912,-4.0912,-4.0912,-4.0912,-4.0894,-4.0776,-4.0385,-3.98,-3.9252,-3.8551,-3.7801,-3.7583,-3.751,-3.751,-3.751,-3.751,-3.751,-3.751,-3.751,-3.751,-3.751,-3.751,-3.751,-3.751,-3.751,-3.7405,-3.6968,-3.6523,-3.5911,-3.4795,-3.424,-3.3899,-3.3573,-3.3409,-3.3321,-3.3247,-3.3183,-3.2966,-3.2477,-3.2775,-3.2911,-3.2314,-3.2612,-3.3091,-3.365,-3.4246,-3.4829,-3.5425,-3.5642,-3.571,-3.571,-3.571,-3.571,-3.571,-3.6157,-3.6469,-3.6592,-3.7514,-3.8165,-3.841,-3.8884,-3.9183,-3.9305,-3.9305,-3.9305,-3.9305,-3.9305,-3.9305,-3.9305,-3.9305,-3.9305,-3.0531,-3.0404,-3.0308,-2.9871,-3.0028,0.0,0.0,-3.1077,-3.2232,-3.3242,-3.374,-3.4358,-3.5496,-3.5698,-3.5829,-3.6241,-3.715,-3.7905,-3.8208,-3.8504,-3.8707,-3.8707,-3.8707,-3.8707,-3.8707,-3.8707,-3.8707,-3.8707,-3.8515,-3.8135,-3.7542,-3.8048,-3.8427,-3.8582,-3.9319,-4.0077,-4.0894,-4.0912,-4.0912,-4.0912,-4.0912,-4.0912,-4.0912,-4.0912,-4.0912,-4.0912,-4.0912,-4.0402,-3.9568,-3.9295,-3.8539,-3.751,-3.751,-3.751,-3.751,-3.751,-3.751,-3.751,-3.751,-3.751,-3.751,-3.751,-3.751,-3.751,-3.751,-3.7315,-3.6998,-3.6445,-3.5928,-3.535,-3.4457,-3.4246,-3.4178,-3.3715,-3.3615,-3.3555,-3.3162,-3.2857,-3.2572,-3.2273,-3.2694,-3.3006,-3.2707,-3.2898,-3.3363,-3.4219,-3.4612,-3.5005,-3.5642,-3.571,-3.571,-3.571,-3.571,-3.5832,-3.613,-3.6429,-3.6863,-3.7473,-3.8084,-3.8545,-3.8844,-3.9142,-3.9305,-3.9305,-3.9305,-3.9305,-3.9305,-3.9305,-3.9305,-3.9305,-3.9305,-3.9305,-3.0691,-3.0519,-3.0615,-3.0436,-3.0471,-3.0636,0.0,0.0,0.0,-3.3634,-3.3876,-3.4166,-3.5174,-3.523,-3.5174,-3.5354,-3.6407,-3.7217,-3.7217,-3.7711,-3.825,-3.8652,-3.8707,-3.8707,-3.8707,-3.8707,-3.8707,-3.8707,-3.8707,-3.8407,-3.7756,-3.8413,-3.8823,-3.8812,-3.9526,-4.0233,-4.0894,-4.0912,-4.0912,-4.0912,-4.0912,-4.0912,-4.0912,-4.0912,-4.0912,-4.0912,-4.0912,-4.0254,-3.9206,-3.9206,-3.8539,-3.751,-3.751,-3.751,-3.751,-3.751,-3.751,-3.751,-3.751,-3.751,-3.751,-3.751,-3.751,-3.748,-3.7375,-3.7135,-3.6708,-3.6086,-3.5385,-3.4758,-3.4345,-3.4227,-3.4178,-3.3932,-3.3798,-3.36,-3.3283,-3.2773,-3.2422,-3.2422,-3.2901,-3.3274,-3.3125,-3.3292,-3.3729,-3.4653,-3.4897,-3.5141,-3.5655,-3.571,-3.571,-3.571,-3.5818,-3.6076,-3.6564,-3.6809,-3.7365,-3.8355,-3.8532,-3.8803,-3.9278,-3.9305,-3.9305,-3.9305,-3.9305,-3.9305,-3.9305,-3.9305,-3.9305,-3.9305,-3.9305,-3.9305,-3.0858,-3.0962,-3.1346,-3.0508,-3.0881,-3.1244,-3.0487,0.0,-3.0703,-3.1653,0.0,-3.2313,-3.3903,0.0,0.0,-3.4075,-3.4727,-3.514,-3.514,-3.5546,-3.6562,-3.8462,-3.8707,-3.8707,-3.8707,-3.8707,-3.8707,-3.8707,-3.8707,-3.8627,-3.8469,-3.9232,-3.9653,-3.9589,-4.0359,-4.0808,-4.0912,-4.0912,-4.0912,-4.0912,-4.0912,-4.0912,-4.0912,-4.0912,-4.0912,-4.0912,-4.0912,-4.0254,-3.9206,-3.9206,-3.8539,-3.751,-3.751,-3.751,-3.751,-3.751,-3.751,-3.751,-3.751,-3.751,-3.751,-3.751,-3.751,-3.7405,-3.6938,-3.7089,-3.718,-3.6165,-3.5817,-3.5761,-3.5833,-3.5088,-3.4482,-3.4854,-3.4348,-3.3748,-3.3564,-3.3348,-3.3178,-3.3178,-3.3654,-3.3871,-3.3199,-3.3932,-3.4639,-3.4775,-3.5249,-3.5642,-3.571,-3.571,-3.571,-3.571,-3.6185,-3.6537,-3.6592,-3.7596,-3.8274,-3.841,-3.8912,-3.9237,-3.9305,-3.9305,-3.9305,-3.9305,-3.9305,-3.9305,-3.9305,-3.9305,-3.9305,-3.9305,-3.9305,-3.9305,-3.1493,-3.2153,-3.2877,-3.1455,-3.1738,-3.1994,-3.0586,-3.059,-3.114,-3.2012,0.0,0.0,0.0,0.0,0.0,0.0,-3.3728,-3.4093,-3.4093,-3.4548,-3.5534,-3.7327,-3.7064,-3.7086,-3.8033,-3.8459,-3.8707,-3.8707,-3.8707,-3.8664,-3.8594,-3.9357,-3.9776,-3.9687,-4.0498,-4.0912,-4.0912,-4.0912,-4.0912,-4.0912,-4.0912,-4.0912,-4.0912,-4.0912,-4.0912,-4.0912,-4.0912,-4.0254,-3.9206,-3.9206,-3.8539,-3.751,-3.751,-3.751,-3.751,-3.751,-3.751,-3.751,-3.751,-3.751,-3.751,-3.751,-3.751,-3.745,-3.7225,-3.7089,-3.6877,-3.6102,-3.5689,-3.5522,-3.5561,-3.5492,-3.5273,-3.4889,-3.4816,-3.4583,-3.3641,-3.3346,-3.3403,-3.3769,-3.4295,-3.4769,-3.4826,-3.5044,-3.5343,-3.5674,-3.5721,-3.571,-3.571,-3.571,-3.5845,-3.6185,-3.6456,-3.689,-3.7596,-3.8125,-3.8559,-3.8912,-3.9169,-3.9305,-3.9305,-3.9305,-3.9305,-3.9305,-3.9305,-3.9305,-3.9305,-3.9305,-3.9305,-3.9305,-3.9305,-3.9305,-3.2627,-3.3487,-3.4205,-3.2436,-3.2449,-3.248,-3.0963,-3.1042,-3.1744,-3.2833,-3.3062,0.0,0.0,0.0,-3.2986,-3.2737,0.0,-3.3276,-3.3029,-3.326,-3.4177,-3.6112,-3.589,-3.6061,-3.7267,-3.7971,-3.8377,-3.8377,-3.8781,-3.9059,-3.9083,-3.9755,-4.0156,-4.0186,-4.0654,-4.0912,-4.0912,-4.0912,-4.0912,-4.0912,-4.0912,-4.0912,-4.0912,-4.0912,-4.0912,-4.0894,-4.0734,-4.0112,-3.9179,-3.9028,-3.8383,-3.7494,-3.7275,-3.7306,-3.751,-3.751,-3.751,-3.751,-3.751,-3.751,-3.751,-3.751,-3.751,-3.748,-3.7315,-3.7105,-3.6816,-3.6274,-3.5864,-3.5653,-3.5849,-3.5974,-3.5844,-3.5081,-3.5175,-3.5107,-3.3717,-3.3655,-3.4015,-3.4434,-3.5157,-3.5815,-3.6222,-3.599,-3.5905,-3.6336,-3.6018,-3.571,-3.571,-3.5859,-3.6117,-3.6551,-3.6904,-3.746,-3.8342,-3.8559,-3.8844,-3.9278,-3.9305,-3.9305,-3.9305,-3.9305,-3.9305,-3.9305,-3.9305,-3.9305,-3.9305,-3.9305,-3.9305,-3.9305,-3.9305,-3.9305,-3.4365,-3.4777,-3.5027,-3.3216,-3.2779,-3.2567,-3.1678,-3.1484,-3.1962,-3.3632,-3.3956,-3.4197,-3.5018,-3.4503,-3.3681,-3.2833,-3.2711,0.0,0.0,-3.1254,-3.2192,-3.5107,-3.5996,-3.6408,-3.6533,-3.7139,-3.7547,-3.7547,-3.898,-3.9995,-4.0329,-4.0733,-4.1118,-4.1442,-4.1094,-4.0912,-4.0912,-4.0912,-4.0912,-4.0912,-4.0912,-4.0912,-4.0912,-4.0912,-4.0912,-4.0871,-4.0269,-3.9697,-3.9152,-3.8574,-3.8014,-3.7431,-3.6722,-3.688,-3.751,-3.751,-3.751,-3.751,-3.751,-3.751,-3.751,-3.751,-3.751,-3.7405,-3.6877,-3.7075,-3.7345,-3.6816,-3.6646,-3.6801,-3.7435,-3.6764,-3.5853,-3.5619,-3.5377,-3.4968,-3.3977,-3.4603,-3.5343,-3.5357,-3.6367,-3.7126,-3.6719,-3.6508,-3.6377,-3.6405,-3.6018,-3.571,-3.571,-3.6212,-3.6578,-3.6605,-3.765,-3.8383,-3.8423,-3.8952,-3.9278,-3.9305,-3.9305,-3.9305,-3.9305,-3.9305,-3.9305,-3.9305,-3.9305,-3.9305,-3.9305,-3.9305,-3.9305,-3.9305,-3.9305,-3.9305,0.0,0.0,-3.7453,-3.5159,-3.4997,-3.4861,-3.2814,-3.2763,-3.3471,-3.4579,-3.4789,-3.5057,-3.5889,-3.4923,-3.3899,-3.3605,-3.263,-3.1801,0.0,-3.1208,-3.1393,-3.2426,-3.3976,-3.474,-3.4172,-3.6242,-3.7374,-3.6758,-3.8689,-4.005,-4.0383,-4.0769,-4.1153,-4.1499,-4.1094,-4.0912,-4.0912,-4.0912,-4.0912,-4.0912,-4.0912,-4.0912,-4.0912,-4.0912,-4.0912,-4.0888,-4.0686,-3.9799,-3.847,-3.8243,-3.735,-3.6121,-3.6314,-3.6535,-3.6785,-3.6785,-3.7069,-3.751,-3.751,-3.751,-3.751,-3.751,-3.751,-3.748,-3.7285,-3.7361,-3.7391,-3.6846,-3.6693,-3.6677,-3.6534,-3.6222,-3.5814,-3.5436,-3.5266,-3.5004,-3.4332,-3.4839,-3.5523,-3.5909,-3.6707,-3.7286,-3.7315,-3.7021,-3.6693,-3.6431,-3.6018,-3.5859,-3.6252,-3.6469,-3.6904,-3.7718,-3.8165,-3.8572,-3.8966,-3.9183,-3.9305,-3.9305,-3.9305,-3.9305,-3.9305,-3.9305,-3.9305,-3.9305,-3.9305,-3.9305,-3.9305,-3.9305,-3.9305,-3.9305,-3.9305,-3.9305,-3.749,-3.8448,0.0,-3.6846,-3.6536,-3.6257,-3.4503,-3.4546,-3.5146,-3.596,-3.5886,-3.5944,-3.6837,-3.5597,-3.4339,-3.4048,-3.2829,-3.1699,0.0,-3.0739,-3.0582,-3.0564,-3.2208,-3.3332,-3.3339,-3.4929,-3.6164,-3.6684,-3.8432,-3.9823,-4.0612,-4.1152,-4.1537,-4.1739,-4.1209,-4.0912,-4.0912,-4.0912,-4.0912,-4.0912,-4.0912,-4.0912,-4.0912,-4.0912,-4.0739,-4.0457,-4.0268,-3.9257,-3.7691,-3.7475,-3.6594,-3.5426,-3.5884,-3.6172,-3.6424,-3.6677,-3.7085,-3.751,-3.751,-3.751,-3.751,-3.751,-3.751,-3.751,-3.751,-3.751,-3.7468,-3.7356,-3.7033,-3.6677,-3.6565,-3.6222,-3.5785,-3.5299,-3.5201,-3.5162,-3.5047,-3.5414,-3.595,-3.6789,-3.7317,-3.7604,-3.7591,-3.738,-3.7031,-3.647,-3.6138,-3.6102,-3.6524,-3.6906,-3.7465,-3.8315,-3.86,-3.8884,-3.9278,-3.9305,-3.9305,-3.9305,-3.9305,-3.9305,-3.9305,-3.9305,-3.9305,-3.9305,-3.9305,-3.9305,-3.9305,-3.9305,-3.9305,-3.9305,-3.9305,-3.9414]},{"header":{"parameterUnit":"m.s-1","parameterCategory":1,"la1":30.6,"la2":29.2853,"lo1":-89.7004,"lo2":-87.6739,"dy":0.0162,"dx":0.0183,"nx":112,"ny":82,"refTime":"2024-03-02T18:00:00:Z","depth":0,"parameterNumber":3,"parameterNumberName":"V-component_of_WINDS"},"data":[0.0,0.0,0.0,0.0,0.0,0.0,0.0,0.0,0.0,0.0,0.0,0.0,0.0,0.0,0.0,0.0,0.0,0.0,0.0,0.0,0.0,0.0,0.0,0.0,0.0,0.0,0.0,0.0,0.0,0.0,0.0,0.0,0.0,0.0,0.0,0.0,0.0,0.0,0.0,0.0,0.0,0.0,0.0,0.0,0.0,0.0,0.0,0.0,0.0,0.0,0.0,0.0,0.0,0.0,0.0,0.0,0.0,0.0,0.0,0.0,0.0,0.0,0.0,0.0,0.0,0.0,0.0,0.0,0.0,0.0,0.0,0.0,0.0,0.0,0.0,0.0,0.0,0.0,0.0,0.0,0.0,0.0,0.0,0.0,0.0,0.0,0.0,0.0,0.0,0.0,-1.6899,-1.7144,-1.8379,-1.9367,-1.9761,-1.9927,-1.9496,-1.8291,0.0,0.0,0.0,0.0,0.0,0.0,0.0,0.0,0.0,0.0,0.0,0.0,0.0,0.0,0.0,0.0,0.0,0.0,0.0,0.0,0.0,0.0,0.0,0.0,0.0,0.0,0.0,0.0,0.0,0.0,0.0,0.0,0.0,0.0,0.0,0.0,0.0,0.0,0.0,0.0,0.0,0.0,0.0,0.0,0.0,0.0,0.0,0.0,0.0,0.0,0.0,0.0,0.0,0.0,0.0,0.0,0.0,0.0,0.0,0.0,0.0,0.0,0.0,0.0,0.0,0.0,0.0,0.0,0.0,0.0,0.0,0.0,0.0,0.0,0.0,0.0,0.0,0.0,0.0,0.0,0.0,0.0,0.0,0.0,0.0,0.0,0.0,0.0,0.0,0.0,0.0,0.0,0.0,0.0,0.0,0.0,0.0,0.0,0.0,0.0,0.0,0.0,0.0,0.0,-1.742,-1.8608,-1.9336,-1.972,-1.9793,-2.0472,-2.0122,-1.8322,0.0,0.0,0.0,0.0,0.0,0.0,0.0,0.0,0.0,0.0,0.0,0.0,0.0,0.0,0.0,0.0,0.0,0.0,0.0,0.0,0.0,0.0,0.0,0.0,0.0,0.0,0.0,0.0,0.0,0.0,0.0,0.0,0.0,0.0,0.0,0.0,0.0,0.0,0.0,0.0,0.0,0.0,0.0,0.0,0.0,0.0,0.0,0.0,0.0,0.0,0.0,0.0,0.0,0.0,0.0,0.0,0.0,0.0,0.0,0.0,0.0,0.0,0.0,0.0,0.0,0.0,0.0,0.0,0.0,0.0,0.0,0.0,0.0,0.0,0.0,0.0,0.0,0.0,0.0,0.0,0.0,0.0,0.0,0.0,0.0,0.0,0.0,0.0,0.0,0.0,0.0,0.0,0.0,0.0,0.0,0.0,0.0,0.0,0.0,0.0,0.0,0.0,0.0,-1.7164,-1.7842,-1.9336,-1.9668,-2.0163,-2.109,-2.1517,-2.0998,-1.9295,-1.9081,0.0,0.0,0.0,0.0,0.0,0.0,0.0,0.0,0.0,0.0,0.0,0.0,0.0,0.0,0.0,0.0,0.0,0.0,0.0,0.0,0.0,0.0,0.0,0.0,0.0,0.0,0.0,0.0,0.0,0.0,0.0,0.0,0.0,0.0,0.0,0.0,0.0,0.0,0.0,0.0,0.0,0.0,0.0,0.0,0.0,0.0,0.0,0.0,0.0,0.0,0.0,0.0,0.0,0.0,0.0,0.0,0.0,0.0,0.0,0.0,0.0,0.0,0.0,0.0,0.0,0.0,0.0,0.0,0.0,0.0,0.0,0.0,0.0,0.0,0.0,0.0,0.0,0.0,0.0,0.0,0.0,0.0,0.0,0.0,0.0,0.0,0.0,0.0,0.0,0.0,0.0,0.0,0.0,0.0,0.0,0.0,0.0,0.0,0.0,0.0,0.0,0.0,-1.7905,-1.8539,-1.9668,-1.9886,-2.0481,-2.1916,-2.2088,-2.1449,-1.9889,-1.9683,0.0,0.0,0.0,0.0,0.0,0.0,0.0,0.0,0.0,0.0,0.0,0.0,0.0,0.0,0.0,0.0,0.0,0.0,0.0,0.0,0.0,0.0,0.0,0.0,0.0,0.0,0.0,0.0,0.0,0.0,0.0,0.0,0.0,0.0,0.0,0.0,0.0,0.0,0.0,0.0,0.0,0.0,0.0,0.0,0.0,0.0,0.0,0.0,0.0,0.0,0.0,0.0,0.0,0.0,0.0,0.0,0.0,0.0,0.0,0.0,0.0,0.0,0.0,0.0,0.0,0.0,0.0,0.0,0.0,0.0,0.0,0.0,0.0,0.0,0.0,0.0,0.0,0.0,0.0,0.0,0.0,0.0,0.0,0.0,0.0,0.0,0.0,0.0,0.0,0.0,0.0,0.0,0.0,0.0,0.0,0.0,0.0,0.0,0.0,0.0,0.0,0.0,-1.8913,-1.9888,-1.9799,-2.0131,-2.0576,-2.1146,-2.1394,-2.088,-1.9245,-1.8808,0.0,0.0,0.0,0.0,0.0,0.0,0.0,0.0,0.0,0.0,0.0,0.0,0.0,0.0,0.0,0.0,0.0,0.0,0.0,0.0,0.0,0.0,0.0,0.0,0.0,0.0,0.0,0.0,0.0,0.0,0.0,0.0,0.0,0.0,0.0,0.0,0.0,0.0,0.0,0.0,0.0,0.0,0.0,0.0,0.0,0.0,0.0,0.0,0.0,0.0,0.0,0.0,0.0,0.0,0.0,0.0,0.0,0.0,0.0,0.0,0.0,0.0,0.0,0.0,0.0,0.0,0.0,0.0,0.0,0.0,0.0,0.0,0.0,0.0,0.0,0.0,0.0,0.0,0.0,0.0,0.0,0.0,0.0,0.0,0.0,0.0,0.0,0.0,0.0,0.0,0.0,0.0,0.0,0.0,0.0,0.0,0.0,0.0,0.0,0.0,0.0,0.0,-1.9432,-2.0391,-2.1257,-2.1831,-2.2482,-2.327,-2.3447,-2.2893,-2.1428,0.0,0.0,0.0,0.0,0.0,0.0,0.0,0.0,0.0,0.0,0.0,0.0,0.0,0.0,0.0,0.0,0.0,0.0,0.0,0.0,0.0,0.0,0.0,0.0,0.0,0.0,0.0,0.0,0.0,0.0,0.0,0.0,0.0,0.0,0.0,0.0,0.0,0.0,0.0,0.0,0.0,0.0,0.0,0.0,0.0,0.0,0.0,0.0,0.0,0.0,0.0,0.0,0.0,0.0,0.0,0.0,0.0,0.0,0.0,0.0,0.0,0.0,0.0,0.0,0.0,0.0,0.0,0.0,0.0,0.0,0.0,0.0,0.0,0.0,0.0,0.0,0.0,0.0,0.0,0.0,0.0,0.0,0.0,0.0,0.0,0.0,0.0,0.0,0.0,0.0,0.0,0.0,0.0,0.0,0.0,0.0,0.0,0.0,0.0,0.0,0.0,0.0,-1.9193,-2.0284,-2.1404,-2.2514,-2.3028,-2.3616,-2.4385,-2.4266,-2.3584,-2.2308,0.0,0.0,0.0,0.0,0.0,0.0,0.0,0.0,0.0,0.0,0.0,0.0,0.0,0.0,0.0,0.0,0.0,0.0,0.0,0.0,0.0,0.0,0.0,0.0,0.0,0.0,0.0,0.0,0.0,0.0,0.0,0.0,0.0,0.0,0.0,0.0,0.0,0.0,0.0,0.0,0.0,0.0,0.0,0.0,0.0,0.0,0.0,0.0,0.0,0.0,0.0,0.0,0.0,0.0,0.0,0.0,0.0,0.0,0.0,0.0,0.0,0.0,0.0,0.0,0.0,0.0,0.0,0.0,0.0,0.0,0.0,0.0,0.0,0.0,0.0,0.0,0.0,0.0,0.0,0.0,0.0,0.0,0.0,0.0,0.0,0.0,0.0,0.0,0.0,0.0,0.0,0.0,0.0,0.0,0.0,0.0,0.0,0.0,0.0,0.0,0.0,0.0,-1.9632,-2.1611,-2.3099,-2.3387,-2.3479,-2.3627,-2.3879,-2.3304,-2.244,0.0,0.0,0.0,0.0,0.0,0.0,0.0,0.0,0.0,0.0,0.0,0.0,0.0,0.0,0.0,0.0,0.0,0.0,0.0,0.0,0.0,0.0,0.0,0.0,0.0,0.0,0.0,0.0,0.0,0.0,0.0,0.0,0.0,0.0,0.0,0.0,0.0,0.0,0.0,0.0,0.0,0.0,0.0,0.0,0.0,0.0,0.0,0.0,0.0,0.0,0.0,0.0,0.0,0.0,0.0,0.0,0.0,0.0,0.0,0.0,0.0,0.0,0.0,0.0,0.0,0.0,0.0,0.0,0.0,0.0,0.0,0.0,0.0,0.0,0.0,0.0,0.0,0.0,0.0,0.0,0.0,0.0,0.0,0.0,0.0,0.0,0.0,0.0,0.0,0.0,0.0,0.0,0.0,0.0,0.0,0.0,0.0,0.0,0.0,0.0,0.0,0.0,0.0,-2.043,-2.213,-2.3516,-2.4297,-2.4751,-2.4956,-2.4886,-2.4719,-2.4467,-2.4112,0.0,0.0,0.0,0.0,0.0,0.0,0.0,0.0,0.0,0.0,0.0,0.0,0.0,0.0,0.0,0.0,0.0,0.0,0.0,0.0,0.0,0.0,0.0,0.0,0.0,0.0,0.0,0.0,0.0,0.0,0.0,0.0,0.0,0.0,0.0,0.0,0.0,0.0,0.0,0.0,0.0,0.0,0.0,0.0,0.0,0.0,0.0,0.0,0.0,0.0,0.0,0.0,0.0,0.0,0.0,0.0,0.0,0.0,0.0,0.0,0.0,0.0,0.0,0.0,0.0,0.0,0.0,0.0,0.0,0.0,0.0,0.0,0.0,0.0,0.0,0.0,0.0,0.0,0.0,0.0,0.0,0.0,0.0,0.0,0.0,0.0,0.0,0.0,0.0,0.0,0.0,0.0,0.0,0.0,0.0,0.0,0.0,0.0,0.0,0.0,0.0,0.0,-2.1244,-2.2934,-2.4333,-2.5152,-2.5528,-2.5653,-2.5465,-2.5524,-2.5448,-2.5317,0.0,0.0,0.0,0.0,0.0,0.0,0.0,0.0,0.0,0.0,0.0,0.0,0.0,0.0,0.0,0.0,0.0,0.0,0.0,0.0,0.0,0.0,0.0,0.0,0.0,0.0,0.0,0.0,0.0,0.0,0.0,0.0,0.0,0.0,0.0,0.0,0.0,0.0,0.0,0.0,0.0,0.0,0.0,0.0,0.0,0.0,0.0,0.0,0.0,0.0,0.0,0.0,0.0,0.0,0.0,0.0,0.0,0.0,0.0,0.0,0.0,0.0,0.0,0.0,0.0,0.0,0.0,0.0,0.0,0.0,0.0,0.0,0.0,0.0,0.0,0.0,0.0,0.0,0.0,0.0,0.0,0.0,0.0,0.0,0.0,0.0,0.0,0.0,0.0,0.0,0.0,0.0,0.0,0.0,0.0,0.0,0.0,0.0,0.0,0.0,0.0,0.0,-2.1885,-2.3753,-2.524,-2.5779,-2.5828,-2.5805,-2.5677,-2.5749,-2.5679,-2.531,0.0,0.0,0.0,0.0,0.0,0.0,0.0,0.0,0.0,0.0,0.0,0.0,0.0,0.0,0.0,0.0,0.0,0.0,0.0,0.0,0.0,0.0,0.0,0.0,0.0,0.0,0.0,0.0,0.0,0.0,0.0,0.0,0.0,0.0,0.0,0.0,0.0,0.0,0.0,0.0,0.0,0.0,0.0,0.0,0.0,0.0,0.0,0.0,0.0,0.0,0.0,0.0,0.0,0.0,0.0,0.0,0.0,0.0,0.0,0.0,-1.4299,-1.3915,0.0,0.0,0.0,0.0,0.0,0.0,0.0,0.0,0.0,0.0,0.0,0.0,0.0,0.0,0.0,0.0,0.0,0.0,0.0,0.0,0.0,0.0,0.0,0.0,0.0,0.0,0.0,0.0,0.0,0.0,0.0,0.0,0.0,0.0,0.0,0.0,0.0,0.0,0.0,0.0,-2.1686,-2.3445,-2.4826,-2.5357,-2.5418,-2.543,-2.5394,-2.5407,-2.5409,-2.531,-2.4232,0.0,0.0,0.0,0.0,0.0,0.0,0.0,0.0,0.0,0.0,0.0,0.0,0.0,0.0,0.0,0.0,0.0,0.0,0.0,0.0,0.0,0.0,0.0,0.0,0.0,0.0,0.0,0.0,0.0,0.0,0.0,0.0,0.0,0.0,0.0,0.0,0.0,0.0,0.0,0.0,0.0,0.0,0.0,0.0,0.0,0.0,0.0,0.0,0.0,0.0,0.0,0.0,0.0,0.0,0.0,0.0,0.0,0.0,0.0,-1.4543,-1.424,0.0,0.0,0.0,0.0,0.0,0.0,0.0,0.0,0.0,0.0,0.0,0.0,0.0,0.0,0.0,0.0,0.0,0.0,0.0,0.0,0.0,0.0,0.0,0.0,0.0,0.0,0.0,0.0,0.0,0.0,0.0,0.0,0.0,0.0,0.0,0.0,0.0,0.0,0.0,0.0,-2.1877,-2.3661,-2.4999,-2.5276,-2.5312,-2.5312,-2.5312,-2.5312,-2.5297,-2.5318,-2.5321,0.0,0.0,0.0,0.0,0.0,0.0,0.0,0.0,0.0,0.0,0.0,0.0,0.0,0.0,0.0,0.0,0.0,0.0,0.0,0.0,0.0,0.0,0.0,0.0,0.0,0.0,0.0,0.0,0.0,0.0,0.0,0.0,0.0,0.0,0.0,0.0,0.0,0.0,0.0,0.0,0.0,0.0,0.0,0.0,0.0,0.0,0.0,0.0,0.0,0.0,0.0,0.0,0.0,-1.4104,-1.4281,-1.4455,-1.4922,-1.5184,-1.5278,-1.4774,-1.4679,-1.4872,-1.4247,0.0,0.0,0.0,0.0,0.0,0.0,0.0,0.0,0.0,0.0,0.0,0.0,0.0,0.0,0.0,0.0,0.0,0.0,0.0,0.0,0.0,0.0,-1.8129,-1.885,-1.9433,-1.9858,-2.0097,0.0,0.0,0.0,0.0,0.0,0.0,0.0,0.0,0.0,0.0,0.0,-2.2308,-2.4088,-2.5312,-2.5312,-2.5312,-2.5312,-2.5312,-2.5312,-2.5312,-2.5312,-2.5294,-2.5292,0.0,0.0,0.0,0.0,0.0,0.0,0.0,0.0,0.0,0.0,0.0,0.0,0.0,0.0,0.0,0.0,0.0,0.0,0.0,0.0,0.0,0.0,0.0,0.0,0.0,0.0,0.0,0.0,0.0,0.0,0.0,0.0,-0.6836,-0.7356,0.0,0.0,0.0,0.0,0.0,0.0,0.0,0.0,0.0,0.0,0.0,0.0,0.0,-1.2393,-1.2417,-1.3812,-1.4502,-1.4512,-1.5371,-1.5811,-1.585,-1.6269,-1.6443,-1.6475,-1.6385,0.0,-1.5322,-1.5215,0.0,0.0,0.0,0.0,0.0,0.0,0.0,0.0,0.0,0.0,0.0,0.0,0.0,0.0,0.0,0.0,0.0,0.0,0.0,0.0,0.0,0.0,-2.0672,-2.0943,-2.1445,-2.1827,-2.1858,-2.074,-1.969,-1.9562,-1.958,-1.9408,0.0,0.0,0.0,0.0,0.0,0.0,-2.2906,-2.4357,-2.5312,-2.5312,-2.5312,-2.5312,-2.5312,-2.5312,-2.5312,-2.5312,-2.531,-2.5298,-2.5307,-2.4785,0.0,0.0,0.0,0.0,0.0,0.0,0.0,0.0,0.0,0.0,0.0,0.0,0.0,0.0,0.0,0.0,0.0,0.0,0.0,0.0,0.0,0.0,0.0,0.0,0.0,0.0,0.0,0.0,0.0,-0.6608,-0.6842,-0.7131,-0.7366,-0.7605,0.0,0.0,0.0,0.0,0.0,0.0,0.0,0.0,0.0,-1.1376,-1.227,-1.3104,-1.3827,-1.4903,-1.5566,-1.5789,-1.6229,-1.6436,-1.6445,-1.6609,-1.6697,-1.6697,-1.6697,-1.6619,-1.6484,-1.5986,-1.5871,-1.5999,0.0,0.0,0.0,0.0,-1.7106,-1.7238,-1.7549,-1.7691,-1.7651,-1.7238,0.0,0.0,0.0,0.0,0.0,0.0,0.0,-1.8548,-1.9234,-2.019,-2.1136,-2.1703,-2.2246,-2.2714,-2.3047,-2.2512,-2.1781,-2.0976,-2.0829,-2.0572,-1.9762,-2.0376,0.0,0.0,0.0,-2.2359,-2.2591,-2.422,-2.5312,-2.5312,-2.5312,-2.5312,-2.5312,-2.5312,-2.5312,-2.5312,-2.5312,-2.5285,-2.5318,-2.5289,-2.4426,0.0,0.0,0.0,0.0,0.0,0.0,0.0,0.0,0.0,0.0,0.0,0.0,0.0,0.0,0.0,0.0,0.0,0.0,0.0,0.0,0.0,0.0,0.0,0.0,0.0,0.0,0.0,0.0,-0.6938,-0.724,-0.7293,-0.7878,-0.8154,0.0,0.0,0.0,0.0,0.0,0.0,-1.074,-1.0982,-1.1479,-1.2282,-1.3024,-1.4004,-1.5274,-1.5913,-1.6406,-1.6697,-1.6814,-1.6863,-1.6872,-1.698,-1.7028,-1.7028,-1.7028,-1.7246,-1.749,-1.675,-1.6496,-1.6586,-1.6597,-1.6618,-1.6708,-1.745,-1.7685,-1.7782,-1.8572,-1.8748,-1.8562,-1.8208,-1.7968,-1.7709,-1.7037,0.0,0.0,0.0,0.0,-1.9696,-2.061,-2.1235,-2.1811,-2.2467,-2.2927,-2.3324,-2.371,-2.3727,-2.3356,-2.2428,-2.2242,-2.1969,-2.1068,-2.1641,0.0,-2.0294,-2.1244,-2.2337,-2.2909,-2.434,-2.5312,-2.5312,-2.5312,-2.5312,-2.5312,-2.5312,-2.5312,-2.5312,-2.5312,-2.5312,-2.5312,-2.5291,-2.5298,-2.529,0.0,0.0,0.0,0.0,0.0,0.0,0.0,0.0,0.0,0.0,0.0,0.0,0.0,0.0,0.0,0.0,0.0,0.0,0.0,0.0,0.0,0.0,0.0,0.0,0.0,0.0,0.0,0.0,0.0,-0.8588,-0.9321,0.0,0.0,0.0,0.0,-1.0344,-1.0806,-1.1078,-1.1078,-1.1633,-1.2324,-1.3108,-1.4036,-1.4912,-1.5771,-1.6373,-1.6677,-1.6707,-1.7148,-1.7344,-1.7363,-1.7764,-1.7949,-1.7949,-1.7949,-1.7959,-1.7939,-1.75,-1.7549,-1.7978,-1.8588,-1.8843,-1.8942,-1.9663,-1.95,-1.8909,-1.8961,-1.9433,-1.989,-1.917,-1.9297,-1.9747,-1.9702,-1.9622,0.0,0.0,-2.1043,-2.1697,-2.2404,-2.3095,-2.3652,-2.371,-2.3746,-2.377,-2.3794,-2.3482,-2.3325,-2.3634,-2.3688,-2.3508,-2.2967,0.0,-2.2362,-2.2899,-2.0831,-2.0661,-2.4613,-2.5228,-2.5312,-2.5312,-2.5312,-2.5312,-2.5312,-2.5312,-2.5312,-2.5312,-2.5312,-2.5312,-2.5312,-2.5311,-2.5288,-2.5303,-2.5099,0.0,0.0,0.0,0.0,0.0,0.0,0.0,0.0,0.0,0.0,0.0,0.0,0.0,0.0,0.0,0.0,0.0,0.0,0.0,0.0,0.0,0.0,0.0,0.0,0.0,0.0,0.0,0.0,-0.8048,-0.9124,0.0,-0.9292,-1.0034,-1.0532,-1.0591,-1.1276,-1.1692,-1.1692,-1.2076,-1.2683,-1.3508,-1.4204,-1.5096,-1.6178,-1.6837,-1.7285,-1.7525,-1.7715,-1.7793,-1.7793,-1.7939,-1.8008,-1.8008,-1.8008,-1.8008,-1.7998,-1.7852,-1.8131,-1.8721,-1.9441,-1.9704,-1.9802,-2.0484,-2.0581,-2.0409,-2.0901,-2.0912,-2.0613,-1.9933,-1.9846,-2.0037,-2.0037,-2.0232,-2.0614,-2.1287,-2.188,-2.2523,-2.3209,-2.3594,-2.389,-2.4181,-2.4254,-2.435,-2.4687,-2.4643,-2.4574,-2.4724,-2.416,-2.3643,-2.3535,-2.3877,-2.3829,-2.2719,-2.2832,-2.3584,-2.5098,-2.5312,-2.5312,-2.5312,-2.5312,-2.5312,-2.5312,-2.5312,-2.5312,-2.5312,-2.5312,-2.5312,-2.5312,-2.5312,-2.5309,-2.5288,-2.5308,-2.5293,0.0,0.0,0.0,0.0,0.0,0.0,0.0,0.0,0.0,0.0,0.0,0.0,0.0,0.0,0.0,0.0,0.0,0.0,0.0,0.0,0.0,0.0,0.0,0.0,0.0,-0.7773,-0.8535,-0.7804,-0.9292,-1.0124,-0.9531,-1.0483,-1.1129,-1.1129,-1.1768,-1.2164,-1.2164,-1.2477,-1.3021,-1.3826,-1.4336,-1.5213,-1.656,-1.6992,-1.749,-1.8008,-1.8008,-1.8008,-1.8008,-1.8008,-1.8008,-1.8008,-1.8008,-1.8008,-1.8008,-1.8236,-1.8754,-1.9375,-1.9386,-1.9386,-1.9518,-2.042,-2.0613,-2.0537,-2.1494,-2.1494,-2.1071,-2.088,-2.0929,-2.1065,-2.1065,-2.1449,-2.2013,-2.2608,-2.3045,-2.3451,-2.4128,-2.4324,-2.4374,-2.4711,-2.4748,-2.4879,-2.5228,-2.5312,-2.5312,-2.5312,-2.4695,-2.4188,-2.4304,-2.4855,-2.4846,-2.3445,-2.442,-2.5299,-2.5296,-2.531,-2.5312,-2.5312,-2.5312,-2.5312,-2.5312,-2.5309,-2.5297,-2.53,-2.5312,-2.5289,-2.529,-2.5288,-2.531,-2.531,-2.6007,-2.5906,-2.4895,0.0,0.0,0.0,0.0,0.0,0.0,0.0,0.0,0.0,0.0,0.0,0.0,0.0,0.0,0.0,0.0,0.0,0.0,0.0,0.0,0.0,0.0,0.0,-0.6429,-0.7933,-0.875,-0.8054,-0.9942,-1.1192,-1.0839,-1.1532,-1.2018,-1.2018,-1.2317,-1.2507,-1.2507,-1.2848,-1.3359,-1.4093,-1.4454,-1.5349,-1.6897,-1.6932,-1.7295,-1.8008,-1.8008,-1.8008,-1.8008,-1.8008,-1.8008,-1.8008,-1.8008,-1.8008,-1.8042,-1.8687,-1.9408,-1.9933,-1.8596,-1.8076,-1.8269,-1.9606,-1.9671,-1.9276,-2.0645,-2.1135,-2.1285,-2.198,-2.2602,-2.3035,-2.3035,-2.3408,-2.3926,-2.4386,-2.4496,-2.4628,-2.518,-2.5312,-2.5312,-2.5312,-2.5312,-2.5312,-2.5312,-2.5312,-2.5312,-2.5312,-2.5312,-2.5312,-2.5312,-2.5312,-2.5309,-2.5306,-2.5258,0.0,-2.5294,-2.5294,-2.5312,-2.5312,-2.53,-2.5312,-2.5288,-2.5314,-2.5253,-2.5217,-2.5253,-2.5314,-2.5406,-2.5385,-2.5355,-2.5261,-2.7386,-2.7094,-2.4244,0.0,0.0,0.0,0.0,0.0,0.0,0.0,0.0,0.0,0.0,0.0,0.0,0.0,0.0,0.0,0.0,0.0,0.0,0.0,0.0,0.0,-0.6258,-0.6798,-0.7284,-0.8385,-0.9181,-0.9271,-1.0752,-1.1649,-1.1199,-1.1895,-1.2353,-1.2353,-1.266,-1.2877,-1.2877,-1.3184,-1.3705,-1.4458,-1.5086,-1.5877,-1.6897,-1.7432,-1.7794,-1.8008,-1.8008,-1.8008,-1.8008,-1.8008,-1.8008,-1.8008,-1.8008,-1.8008,-1.8008,-1.8202,-1.8687,-1.9309,-1.9441,-1.9835,-2.0258,-2.0128,-2.0291,-2.0581,-2.0965,-2.1707,-2.2528,-2.2699,-2.3156,-2.3589,-2.3589,-2.3905,-2.4338,-2.4448,-2.4795,-2.5119,-2.5264,-2.5312,-2.5312,-2.5312,-2.5312,-2.5312,-2.5312,-2.5312,-2.5312,-2.5312,-2.5312,-2.5312,-2.5312,-2.5312,-2.5311,-2.5297,-2.4003,-2.3593,-2.5119,-2.5287,-2.5312,-2.5312,-2.5298,-2.53,-2.5313,-2.5314,-2.4658,-2.3158,-2.4468,-2.5988,-2.7557,-2.7619,-2.6598,-2.4465,-2.7114,-2.8096,0.0,0.0,0.0,0.0,0.0,0.0,0.0,0.0,0.0,0.0,0.0,0.0,0.0,0.0,0.0,0.0,0.0,0.0,0.0,0.0,0.0,0.0,-0.6235,-0.6895,-0.8051,-0.8847,-0.9378,-0.9519,-1.0996,-1.1904,-1.1686,-1.2222,-1.2586,-1.2586,-1.2883,-1.3099,-1.3214,-1.3397,-1.3702,-1.4122,-1.4859,-1.5596,-1.6376,-1.7157,-1.7691,-1.8008,-1.8008,-1.8008,-1.8008,-1.8008,-1.8008,-1.8018,-1.8159,-1.8237,-1.8281,-1.8467,-1.8944,-1.9538,0.0,0.0,0.0,0.0,-2.1635,-2.2233,-2.2233,-2.2704,-2.3348,-2.3348,-2.3697,-2.4085,-2.4085,-2.4446,-2.4855,-2.4855,-2.5071,-2.5312,-2.5312,-2.5312,-2.5312,-2.5312,-2.5312,-2.5312,-2.5312,-2.5312,-2.5312,-2.5312,-2.5312,0.0,-2.5312,-2.5312,-2.5299,-2.5294,-2.4272,-2.392,-2.5146,-2.529,-2.529,-2.5288,-2.5313,-2.5539,-2.6175,-2.6481,0.0,0.0,0.0,-2.7208,-2.8438,-2.8487,0.0,0.0,0.0,-2.8515,-2.85,-3.0401,0.0,0.0,-2.6572,-2.7575,0.0,0.0,0.0,0.0,0.0,0.0,0.0,0.0,0.0,0.0,0.0,0.0,0.0,0.0,0.0,0.0,-0.6034,-0.6869,-0.8578,-0.9214,-0.951,-0.9453,-1.0989,-1.2093,-1.2196,-1.2549,-1.2742,-1.2707,-1.3035,-1.3309,-1.3455,-1.3492,0.0,0.0,0.0,-1.5065,-1.5816,-1.662,-1.7364,-1.8008,-1.8008,-1.8037,-1.8076,-1.8076,-1.8105,-1.8174,-1.851,-1.8676,-1.8705,-1.9131,-1.9739,-2.0352,-1.9578,-1.9977,-2.1117,-2.2196,-2.3056,-2.3661,-2.3661,0.0,0.0,-2.389,-2.4194,-2.4568,-2.4568,-2.4939,-2.5312,-2.5312,-2.5312,-2.5312,-2.5312,-2.5312,-2.5312,-2.5312,-2.5312,-2.5312,-2.5312,-2.5312,-2.5288,-2.5289,-2.5289,-2.5301,-2.5313,-2.5289,-2.5299,-2.5288,-2.5321,-2.5278,-2.5278,-2.5504,-2.5678,-2.566,-2.5672,0.0,-2.7515,-2.8151,-2.851,-2.8511,-2.8498,-2.8486,-2.8512,-2.8512,-2.8512,-2.8512,-2.8495,-2.8681,-2.9026,-2.9028,-3.0504,-3.3223,-3.0384,-3.0571,0.0,0.0,0.0,0.0,0.0,0.0,0.0,0.0,0.0,0.0,0.0,0.0,0.0,0.0,0.0,-0.5883,-0.6326,-0.7001,-0.816,-0.905,-0.9931,-1.0876,-1.1771,-1.2277,-1.2213,-1.2741,-1.3034,-1.2882,-1.3237,-1.3382,-1.3273,-1.3419,-1.3775,-1.4366,-1.5108,-1.5877,-1.6655,-1.7398,-1.7862,-1.8008,-1.8008,0.0,-1.8481,-1.8481,-1.8711,-1.9043,-1.9131,-1.916,-1.917,-1.9248,-2.0088,-2.125,-2.1066,-2.1228,-2.1568,-2.1806,-2.2332,-2.291,-2.291,-2.3563,-2.4374,-2.4374,-2.4735,-2.5155,-2.5155,-2.5228,0.0,-2.5312,-2.5312,-2.5312,-2.5312,-2.5312,-2.5312,-2.5312,-2.5312,-2.5312,-2.5312,-2.5312,-2.5313,-2.5289,-2.5312,-2.5286,-2.531,-2.5307,-2.5288,-2.5289,-2.5294,-2.5294,-2.5294,-2.6792,-2.7877,-2.7864,-2.7878,-2.8001,-2.8277,-2.842,-2.8493,-2.8491,-2.8515,-2.8503,-2.8479,-2.8479,-2.8479,-2.8479,-2.8514,-2.9783,-3.2378,-3.2388,-3.27,-3.3301,-3.2646,-3.2721,0.0,0.0,0.0,0.0,0.0,0.0,0.0,0.0,0.0,0.0,0.0,-0.3994,-0.4634,0.0,-0.5814,-0.6257,-0.664,-0.7341,-0.8709,-0.93,-1.0013,-1.1125,-1.2004,-1.2482,-1.2416,-1.27,-1.2856,-1.2753,-1.3046,-1.3156,-1.3046,-1.3236,-1.3477,-1.3753,-1.4966,-1.5772,-1.6202,-1.7606,-1.8286,-1.8286,-1.8545,-1.876,-1.8965,-1.8965,-1.9082,-1.9297,-1.9512,-1.96,-1.9619,-1.9834,-2.0612,-2.1658,-2.1658,-2.2226,-2.3144,-2.3398,-2.37,-2.399,-2.399,-2.441,-2.4915,-2.4915,-2.5095,-2.5312,-2.5312,-2.5312,-2.5312,-2.5312,-2.5312,-2.5312,-2.5312,-2.5312,-2.5312,-2.5312,-2.5312,-2.5312,-2.5312,-2.529,-2.5313,-2.5287,-2.6164,-2.6917,-2.6899,-2.6885,-2.6888,-2.6918,-2.689,-2.692,-2.6897,-2.7843,-2.8505,-2.8523,-2.85,-2.8511,-2.8482,-2.8512,-2.8494,-2.8498,-2.851,-2.851,-2.851,-2.85,-2.8521,-2.8521,-2.8484,-3.0083,-3.3288,-3.3292,-3.3294,-3.328,-3.329,-3.3296,0.0,0.0,0.0,0.0,0.0,0.0,0.0,-0.1052,-0.1867,-0.2192,-0.3275,-0.4382,-0.5095,-0.5618,-0.6143,-0.6696,-0.6915,-0.764,-0.9406,-0.9657,-1.0053,-1.1213,-1.2042,-1.2526,-1.2526,-1.2562,-1.2562,-1.2526,-1.2753,-1.2863,-1.2826,-1.3046,-1.3222,-1.3397,-1.4816,-1.5715,-1.6096,-1.7821,-1.8699,-1.8734,-1.9121,-1.9336,-1.9404,-1.9404,-1.9453,-1.9551,-1.9893,-2.0039,-2.0068,-2.0458,-2.1088,-2.1794,-2.1794,-2.2853,-2.4468,-2.4897,-2.5158,-2.5312,-2.5312,-2.5312,-2.5312,-2.5312,-2.5312,-2.5312,-2.5312,-2.5312,-2.5312,-2.5312,-2.5312,-2.5312,-2.5312,-2.5312,-2.5312,-2.5312,-2.5312,-2.5288,-2.5289,-2.5289,-2.5405,-2.5836,-2.7333,-2.851,-2.8496,-2.8488,-2.8523,-2.8497,-2.8497,-2.8481,-2.8519,-2.8504,-2.8497,-2.8486,-2.851,-2.851,-2.851,-2.851,-2.851,-2.851,-2.851,-2.8486,-2.8493,-2.849,-2.8792,-2.9401,-2.9446,-3.0705,-3.3292,-3.3303,-3.329,-3.329,-3.329,-3.329,0.4839,0.3711,0.2463,0.1865,0.0986,0.0155,0.0,-0.1381,-0.2475,-0.275,-0.4188,-0.5543,-0.5996,-0.6309,-0.6634,-0.7066,-0.7147,-0.7805,-0.96,-0.9857,-1.0456,-1.1987,-1.2285,-1.2342,-1.2342,-1.2489,-1.2526,-1.2342,-1.2673,-1.2826,-1.2636,-1.2826,-1.3644,-1.5144,-1.5566,-1.6577,-1.8238,-1.8716,-1.9037,-1.9219,-1.9268,-1.9482,-1.9844,-1.9844,-2.0049,-2.0468,-2.0507,-2.0537,-2.0537,-2.0586,-2.1088,-2.1794,-2.1794,-2.2754,-2.4148,-2.4205,-2.4671,-2.5312,-2.5312,-2.5312,-2.5312,-2.5312,-2.5312,-2.5312,-2.5312,-2.5312,-2.5312,-2.5312,-2.5312,-2.5312,-2.5312,-2.5312,-2.5312,-2.5312,-2.5312,-2.5313,-2.5288,-2.5298,-2.5859,-2.778,-2.835,-2.8494,-2.8512,-2.8518,-2.85,-2.8484,-2.8485,-2.8493,-2.849,-2.8502,-2.8514,-2.851,-2.851,-2.851,-2.851,-2.851,-2.851,-2.851,-2.851,-2.8485,-2.8482,-2.8499,-2.9834,-3.2697,-3.275,-3.2932,-3.3292,-3.3303,-3.329,-3.329,-3.329,-3.329,0.375,0.266,0.1618,0.0931,0.0417,0.0,-0.0354,-0.1561,-0.2719,-0.3007,-0.462,-0.5954,-0.5951,-0.6493,-0.6952,-0.7023,-0.7601,-0.8487,-0.9728,-1.0314,-1.1025,-1.215,-1.2305,-1.2305,-1.2305,-1.2378,-1.2378,-1.2305,-1.2562,-1.2636,-1.2452,-1.2636,-1.3338,-1.4618,-1.5312,-1.6413,-1.799,-1.889,-1.9398,-1.9472,-1.9874,-2.0089,-2.0149,-2.0255,-2.0391,-2.0605,-2.0605,-2.0605,-2.0605,-2.0605,-2.0789,-2.1088,-2.1088,-2.1794,-2.2872,-2.3781,-2.46,-2.5312,-2.5312,-2.5312,-2.5312,-2.5312,-2.5312,-2.5312,-2.5312,-2.5312,-2.5312,-2.5312,-2.5312,-2.5312,-2.5312,-2.5312,-2.5312,-2.5312,-2.5314,-2.5301,-2.5298,-2.6293,-2.7436,-2.8336,-2.8499,-2.8512,-2.8486,-2.851,-2.8502,-2.8488,-2.8505,-2.851,-2.851,-2.851,-2.851,-2.851,-2.851,-2.851,-2.851,-2.851,-2.851,-2.851,-2.851,-2.8512,-2.8499,-3.0292,-3.1934,-3.3294,-3.3312,-3.3288,-3.3288,-3.329,-3.329,-3.329,-3.329,-3.329,0.295,0.197,0.1133,0.0392,0.0098,-0.0065,-0.0388,-0.1608,-0.2802,-0.3144,-0.4744,-0.6045,-0.5941,-0.6572,-0.7068,-0.699,-0.7963,-0.8965,-0.9782,-1.0576,-1.1409,-1.2187,-1.2305,-1.2305,-1.2305,-1.2305,-1.2305,-1.2305,-1.2415,-1.2486,-1.2455,-1.2797,-1.3495,-1.4562,-1.5552,-1.6718,-1.8078,-1.9098,-1.9611,-1.9688,-2.0265,-2.0459,-2.0303,-2.045,-2.0489,-2.0411,-2.0411,-2.0411,-2.0411,-2.0489,-2.0489,-2.0518,-2.0566,-2.1161,-2.206,-2.3161,-2.416,-2.5004,-2.5229,-2.5312,-2.5312,-2.5312,-2.5312,-2.5312,-2.5312,-2.5312,-2.5312,-2.5312,-2.5312,-2.5312,-2.5312,-2.5301,-2.5302,-2.5302,-2.53,-2.5448,-2.6051,-2.7412,-2.8482,-2.849,-2.8512,-2.851,-2.851,-2.851,-2.851,-2.851,-2.851,-2.851,-2.851,-2.851,-2.8514,-2.8497,-2.8485,-2.8515,-2.8497,-2.8485,-2.8485,-2.8485,-2.8503,-2.8514,-2.851,-3.1589,-3.3293,-3.3298,-3.3311,-3.329,-3.329,-3.329,-3.329,-3.329,-3.329,-3.329,0.3055,0.2153,0.1279,0.081,0.0348,-0.0065,-0.0258,-0.1542,-0.2801,-0.3134,-0.4586,-0.5913,-0.6242,-0.6628,-0.6973,-0.7173,-0.8055,-0.8965,-0.9782,-1.0576,-1.1409,-1.2187,-1.2305,-1.2305,-1.2305,-1.2305,-1.2305,-1.2305,-1.2305,-1.2469,-1.2757,-1.3606,-1.4607,-1.5801,-1.694,-1.8083,-1.9241,-1.95,-1.9696,-1.9883,-2.0177,-2.0303,-2.0303,-2.0303,-2.0186,-1.9902,-1.9902,-1.9902,-1.9942,-2.0128,-2.0196,-2.0226,-2.0504,-2.1251,-2.2205,-2.2262,-2.3034,-2.4264,-2.5052,-2.5312,-2.5312,-2.5312,-2.5312,-2.5312,-2.5312,-2.5312,-2.5312,-2.5312,-2.5312,-2.5312,-2.5312,-2.529,-2.531,-2.531,-2.5287,-2.5873,-2.7948,-2.846,-2.8504,-2.8518,-2.851,-2.851,-2.851,-2.851,-2.851,-2.851,-2.851,-2.851,-2.851,-2.851,-2.8497,-2.8497,-2.8499,-2.8517,-2.85,-2.8512,-2.8512,-2.8512,-2.8507,-2.8485,-2.8513,-3.1585,-3.3294,-3.3319,-3.329,-3.329,-3.329,-3.329,-3.329,-3.329,-3.329,-3.329,0.2178,0.1439,0.082,0.0358,0.013,-0.0065,-0.0364,-0.1577,-0.2812,-0.3418,-0.4582,-0.5524,-0.574,-0.6218,-0.6554,-0.6482,-0.819,-0.9593,-0.9857,-1.1062,-1.2003,-1.2268,-1.2305,-1.2305,-1.2305,-1.2305,-1.2305,-1.2305,-1.2522,-1.2677,-1.2777,-1.3813,-1.4918,-1.6148,-1.71,-1.8204,-1.947,-1.9571,-1.9645,-1.9715,-1.9794,-1.9912,-2.002,-2.002,-1.999,-1.9902,-1.9902,-1.9902,-1.9902,-2.0128,-2.0188,-2.0294,-2.1293,-2.2333,-2.3272,-2.3391,-2.3729,-2.4228,-2.5016,-2.5312,-2.5312,-2.5312,-2.5312,-2.5312,-2.5312,-2.5312,-2.5312,-2.5312,-2.529,-2.5301,-2.5301,-2.5307,-2.5657,-2.7088,-2.7439,-2.7637,-2.8334,-2.8512,-2.8497,-2.8486,-2.851,-2.851,-2.851,-2.851,-2.851,-2.851,-2.851,-2.851,-2.851,-2.851,-2.8502,-2.85,-3.0417,-3.1693,-3.169,-3.1681,-3.1699,-3.1699,-3.1693,-3.074,-2.8586,-3.1589,-3.3287,-3.329,-3.329,-3.329,-3.329,-3.329,-3.329,-3.329,-3.329,-3.329,0.1697,0.0994,0.0483,0.0167,0.0067,-0.0066,-0.0378,-0.1576,-0.286,-0.3483,-0.4483,-0.5362,-0.5641,-0.6027,-0.625,-0.6176,-0.8027,-0.9561,-0.9744,-1.0987,-1.1966,-1.2268,-1.2305,-1.2345,-1.2489,-1.2496,-1.2496,-1.2496,-1.2677,-1.2878,-1.3092,-1.4063,-1.518,-1.6397,-1.7282,-1.832,-1.9478,-1.9478,-1.9518,-1.9606,-1.9606,-1.9676,-1.9784,-1.9784,-1.9745,-1.9706,-1.9706,-1.9745,-1.9784,-1.9864,-1.9956,-2.0301,-2.2488,-2.3724,-2.4345,-2.449,-2.4528,-2.46,-2.5123,-2.5312,-2.5312,-2.5312,-2.5312,-2.5288,-2.5302,-2.5302,-2.529,-2.5313,-2.5321,-2.529,-2.529,-2.5859,-2.6802,-2.8171,-2.8513,-2.8512,-2.8512,-2.8485,-2.851,-2.851,-2.851,-2.851,-2.851,-2.851,-2.851,-2.851,-2.851,-2.851,-2.851,-2.851,-2.8493,-2.8514,-3.0343,-3.2035,-3.3196,-3.3303,-3.3312,-3.3312,-3.3312,-3.2363,-3.0311,-3.2205,-3.3306,-3.329,-3.329,-3.329,-3.329,-3.329,-3.329,-3.329,-3.329,-3.329,0.1581,0.0824,0.0304,0.0304,0.0169,-0.0034,-0.0253,-0.1568,-0.2845,-0.3289,-0.4289,-0.5271,-0.584,-0.6023,-0.6132,-0.6318,-0.7693,-0.8965,-0.9599,-1.0545,-1.1446,-1.2224,-1.2318,-1.2438,-1.2757,-1.2797,-1.2811,-1.2831,-1.2831,-1.3079,-1.3573,-1.4448,-1.5471,-1.6642,-1.7553,-1.8407,-1.9301,-1.9301,-1.939,-1.9566,-1.9566,-1.9566,-1.9566,-1.9566,-1.9478,-1.9301,-1.9301,-1.9429,-1.9597,-1.9464,-1.9618,-2.0252,-2.3903,-2.5342,-2.5384,-2.5337,-2.5372,-2.5396,-2.5348,-2.5372,-2.5348,-2.53,-2.5324,-2.5337,-2.5299,-2.5321,-2.5318,-2.5434,-2.5475,-2.5449,-2.5449,-2.6957,-2.8482,-2.8482,-2.8479,-2.851,-2.851,-2.851,-2.851,-2.851,-2.851,-2.851,-2.8486,-2.8486,-2.8514,-2.8502,-2.863,-2.8693,-2.8526,-2.8486,-2.8548,-2.8725,-2.875,-2.9993,-3.3058,-3.329,-3.329,-3.329,-3.33,-3.3292,-3.3304,-3.3314,-3.3292,-3.329,-3.329,-3.329,-3.329,-3.329,-3.329,-3.329,-3.329,-3.329,0.1026,0.0503,0.0305,0.0311,0.0247,0.0144,-0.0223,-0.1026,-0.1967,-0.2966,-0.333,-0.3877,-0.5184,-0.5494,-0.5895,-0.6881,-0.8468,-0.9863,-1.0619,-1.144,-1.2077,-1.2268,-1.2536,-1.2697,-1.2777,-1.2998,-1.318,-1.34,-1.3414,-1.344,-1.3593,-1.466,-1.5711,-1.6657,-1.7553,-1.8407,-1.9301,-1.9301,-1.9341,-1.9381,-1.9381,-1.9381,-1.9381,-1.9381,-1.9341,-1.9301,-1.9301,-1.9341,-1.9469,-2.0625,-2.061,-2.0264,-2.3878,-2.5791,-2.6445,-2.6046,-2.6154,-2.6465,-2.6221,-2.6019,-2.5841,-2.5432,-2.5669,-2.6025,-2.5462,-2.5315,-2.5641,-2.722,-2.7671,-2.7673,-2.7673,-2.8098,-2.8509,-2.8509,-2.849,-2.851,-2.851,-2.851,-2.851,-2.851,-2.851,-2.8505,-2.8514,-2.8504,-2.8484,-2.8495,-3.0559,-3.1214,-2.8823,-2.8504,-2.9438,-3.1805,-3.2078,-3.2414,-3.3212,-3.3289,-3.329,-3.329,-3.329,-3.3304,-3.329,-3.329,-3.3304,-3.329,-3.329,-3.329,-3.329,-3.329,-3.329,-3.329,-3.329,-3.329,0.0813,0.0411,0.0311,0.0395,0.0293,0.0112,-0.0113,-0.0879,-0.173,-0.2509,-0.2907,-0.3534,-0.4874,-0.528,-0.585,-0.7167,-0.851,-0.9744,-1.0838,-1.144,-1.1974,-1.2441,-1.2683,-1.2891,-1.3113,-1.33,-1.348,-1.3814,-1.3673,-1.366,-1.3793,-1.4441,-1.5394,-1.6657,-1.718,-1.8037,-1.9301,-1.9301,-1.9301,-1.9301,-1.9301,-1.9301,-1.9301,-1.9301,-1.9402,-1.9577,-1.9577,-1.9789,-2.0199,-2.0913,-2.1568,-2.2276,-2.4404,-2.5944,-2.6893,-2.6477,-2.6387,-2.6477,-2.6429,-2.6419,-2.6411,-2.6086,-2.6388,-2.6637,-2.5607,-2.5627,-2.6365,-2.8011,-2.8492,-2.8509,-2.8509,-2.8497,-2.851,-2.851,-2.851,-2.851,-2.851,-2.851,-2.851,-2.851,-2.8509,-2.8942,-3.0355,-3.0612,-3.0622,-3.0603,-3.2137,-3.2654,-3.0846,-3.0596,-3.131,-3.31,-3.3307,-3.3295,-3.33,-3.3297,-3.329,-3.329,-3.329,-3.329,-3.329,-3.329,-3.329,-3.329,-3.329,-3.329,-3.329,-3.329,-3.329,-3.329,-3.329,-3.329,0.0725,0.0421,0.0356,0.0524,0.0304,0.0038,0.0,-0.087,-0.1725,-0.2011,-0.2709,-0.3637,-0.479,-0.5201,-0.5854,-0.7458,-0.8275,-0.9221,-1.0789,-1.1092,-1.1552,-1.2674,-1.2857,-1.3105,-1.3553,-1.364,-1.3808,-1.4068,-1.3848,-1.3773,-1.4075,-1.4088,-1.4908,-1.6657,-1.6903,-1.7755,-1.9301,-1.9301,-1.9301,-1.9301,-1.9301,-1.9301,-1.9301,-1.9356,-1.9586,-1.9893,-1.9948,-2.0448,-2.1131,-2.0921,-2.2249,-2.4458,-2.5047,-2.5957,-2.6924,-2.6802,-2.6567,-2.6367,-2.6593,-2.6854,-2.7076,-2.679,-2.7091,-2.731,-2.6109,-2.6372,-2.7304,-2.8251,-2.851,-2.851,-2.851,-2.851,-2.851,-2.851,-2.851,-2.851,-2.851,-2.851,-2.851,-2.851,-2.8494,-2.9512,-3.2758,-3.3303,-3.3285,-3.3301,-3.3287,-3.3289,-3.3301,-3.3321,-3.3293,-3.3301,-3.3295,-3.3314,-3.3304,-3.329,-3.329,-3.329,-3.329,-3.329,-3.329,-3.329,-3.329,-3.329,-3.329,-3.329,-3.329,-3.329,-3.329,-3.329,-3.329,-3.329,0.0521,0.032,0.0292,0.0338,0.0307,0.0194,0.0038,-0.0492,-0.1127,-0.1719,-0.2245,-0.305,-0.4641,-0.5006,-0.5917,-0.8571,-0.8699,-0.9286,-1.17,-1.1671,-1.1756,-1.2701,-1.3186,-1.3487,-1.3593,-1.3868,-1.4035,-1.4082,-1.4041,-1.4035,-1.4082,-1.4088,-1.4908,-1.6657,-1.8118,-1.8975,-1.9301,-1.9301,-1.9301,-1.9301,-1.9301,-1.9301,-1.9311,-1.9619,-1.982,-1.9902,-2.0232,-2.0624,-2.1024,-2.1756,-2.2209,-2.2625,-2.4714,-2.6014,-2.6799,-2.7338,-2.7771,-2.8079,-2.8119,-2.8179,-2.7925,-2.6167,-2.6831,-2.8258,-2.8024,-2.8072,-2.8263,-2.8435,-2.851,-2.851,-2.851,-2.851,-2.851,-2.851,-2.851,-2.851,-2.851,-2.851,-2.851,-2.851,-2.8502,-2.9528,-3.2769,-3.3292,-3.3307,-3.3308,-3.3296,-3.3303,-3.3304,-3.3312,-3.3287,-3.3311,-3.3304,-3.3311,-3.329,-3.329,-3.329,-3.329,-3.329,-3.329,-3.329,-3.329,-3.329,-3.329,-3.329,-3.329,-3.329,-3.329,-3.329,-3.329,-3.329,-3.329,0.046,0.0292,0.0299,0.0307,0.0234,0.0117,0.0037,-0.0557,-0.1138,-0.148,-0.2178,-0.3084,-0.4316,-0.4736,-0.5642,-0.7911,-0.8633,-0.9522,-1.1192,-1.1853,-1.2376,-1.2927,-1.338,-1.366,-1.3854,-1.4001,-1.4088,-1.4088,-1.4088,-1.4088,-1.4088,-1.4943,-1.5842,-1.6657,-1.8407,-1.9301,-1.9301,-1.9301,-1.9301,-1.9301,-1.9301,-1.9301,-1.932,-1.9742,-2.0085,-2.043,-2.087,-2.1338,-2.1931,-2.2254,-2.2747,-2.3348,-2.4291,-2.551,-2.68,-2.7099,-2.769,-2.8327,-2.8459,-2.851,-2.8347,-2.7286,-2.7672,-2.851,-2.851,-2.851,-2.851,-2.851,-2.851,-2.851,-2.851,-2.851,-2.851,-2.851,-2.851,-2.851,-2.851,-2.851,-2.851,-2.851,-2.8524,-2.9332,-3.2013,-3.2459,-3.2659,-3.3213,-3.329,-3.329,-3.329,-3.3289,-3.3296,-3.3304,-3.329,-3.329,-3.329,-3.329,-3.329,-3.329,-3.329,-3.329,-3.329,-3.329,-3.329,-3.329,-3.329,-3.329,-3.329,-3.329,-3.329,-3.329,-3.329,-3.329,0.0435,0.0224,0.0228,0.0234,0.0118,0.0,0.0,-0.0692,-0.1365,-0.1293,-0.2218,-0.325,-0.3961,-0.4434,-0.5275,-0.6931,-0.8051,-0.9192,-1.0495,-1.1627,-1.2557,-1.3227,-1.352,-1.3793,-1.4062,-1.4088,-1.4088,-1.4088,-1.4088,-1.4088,-1.4088,-1.5602,-1.6494,-1.6698,-1.8198,-1.9094,-1.9301,-1.9301,-1.9301,-1.9301,-1.9301,-1.9301,-1.932,-1.9824,-2.0352,-2.0927,-2.1422,-2.2085,-2.2803,-2.2574,-2.3169,-2.4198,-2.4016,-2.4935,-2.6359,-2.673,-2.7441,-2.8198,-2.8443,-2.851,-2.851,-2.851,-2.851,-2.851,-2.851,-2.851,-2.851,-2.851,-2.851,-2.851,-2.851,-2.851,-2.851,-2.851,-2.851,-2.851,-2.851,-2.851,-2.851,-2.851,-2.8518,-2.9119,-3.1017,-3.1431,-3.1857,-3.2881,-3.3206,-3.329,-3.329,-3.329,-3.329,-3.329,-3.329,-3.329,-3.329,-3.329,-3.329,-3.329,-3.329,-3.329,-3.329,-3.329,-3.329,-3.329,-3.329,-3.329,-3.329,-3.329,-3.329,-3.329,-3.329,-3.3283,0.0223,0.0038,0.0038,0.0039,0.0,0.0,0.0,-0.0802,-0.1509,-0.1327,-0.2319,-0.3286,-0.3686,-0.4156,-0.5028,-0.6576,-0.6682,-0.7624,-1.0544,-1.0818,-1.1433,-1.3357,-1.3868,-1.4055,-1.4082,-1.4088,-1.4088,-1.4088,-1.4088,-1.4088,-1.4088,-1.4985,-1.5884,-1.6657,-1.7626,-1.8487,-1.9301,-1.9301,-1.9301,-1.9301,-1.9301,-1.9301,-1.9329,-2.0108,-2.061,-2.0946,-2.1696,-2.2325,-2.2803,-2.275,-2.2969,-2.3309,-2.4112,-2.4531,-2.4914,-2.6547,-2.7714,-2.8466,-2.8475,-2.851,-2.851,-2.851,-2.851,-2.851,-2.851,-2.851,-2.851,-2.851,-2.851,-2.851,-2.851,-2.851,-2.851,-2.851,-2.851,-2.851,-2.851,-2.851,-2.851,-2.851,-2.8486,-2.8882,-3.0061,-3.0634,-3.1254,-3.2087,-3.281,-3.329,-3.329,-3.329,-3.329,-3.329,-3.329,-3.329,-3.329,-3.329,-3.329,-3.329,-3.329,-3.329,-3.329,-3.329,-3.329,-3.329,-3.329,-3.329,-3.329,-3.329,-3.329,-3.329,-3.329,-3.3289,0.03,0.0,0.0,0.0,0.0,0.0,0.0,-0.0838,-0.1581,-0.1497,-0.2386,-0.3305,-0.3678,-0.4089,-0.4645,-0.545,-0.6436,-0.7575,-0.8948,-1.0285,-1.1549,-1.2694,-1.3435,-1.3913,-1.4088,-1.4088,-1.4088,-1.4088,-1.4088,-1.4088,-1.4088,-1.495,-1.5801,-1.6657,-1.7553,-1.8407,-1.9301,-1.9301,-1.9301,-1.9301,-1.9301,-1.9301,-1.9329,-2.0145,-2.0722,-2.1113,-2.1951,-2.253,-2.2969,-2.2847,-2.2925,-2.3135,-2.3396,-2.3907,-2.4669,-2.5913,-2.6955,-2.7795,-2.8307,-2.851,-2.851,-2.851,-2.851,-2.851,-2.851,-2.851,-2.851,-2.851,-2.851,-2.851,-2.851,-2.851,-2.851,-2.851,-2.851,-2.851,-2.851,-2.851,-2.851,-2.851,-2.851,-2.8788,-2.9689,-3.0037,-3.0632,-3.1892,-3.239,-3.2739,-3.3241,-3.329,-3.329,-3.329,-3.329,-3.329,-3.329,-3.329,-3.329,-3.329,-3.329,-3.329,-3.329,-3.329,-3.329,-3.329,-3.329,-3.329,-3.329,-3.329,-3.329,-3.329,-3.329,-3.3303,0.0796,0.0387,0.0314,0.0079,0.0,0.0,0.0,-0.0761,-0.1494,-0.1596,-0.2386,-0.3159,-0.3558,-0.399,-0.44,-0.4678,-0.6122,-0.7404,-0.7884,-0.973,-1.1243,-1.1881,-1.285,-1.3571,-1.3745,-1.3951,-1.4088,-1.4088,-1.4088,-1.4088,-1.4088,-1.4699,-1.5394,-1.6288,-1.7147,-1.8037,-1.8895,-1.9183,-1.9301,-1.9301,-1.9301,-1.9301,-1.932,-2.0026,-2.062,-2.1136,-2.1906,-2.2503,-2.3013,-2.2925,-2.2969,-2.3101,-2.2925,-2.3396,-2.4198,-2.5073,-2.5997,-2.6928,-2.7805,-2.8259,-2.851,-2.851,-2.851,-2.851,-2.851,-2.851,-2.851,-2.851,-2.851,-2.851,-2.851,-2.851,-2.851,-2.851,-2.851,-2.851,-2.851,-2.851,-2.851,-2.851,-2.851,-2.8657,-2.925,-2.9549,-3.019,-3.1563,-3.1928,-3.239,-3.3206,-3.329,-3.329,-3.329,-3.329,-3.329,-3.329,-3.329,-3.329,-3.329,-3.329,-3.329,-3.329,-3.329,-3.329,-3.329,-3.329,-3.329,-3.329,-3.329,-3.329,-3.329,-3.3304,-3.3286,0.1739,0.1293,0.1097,0.0196,0.0,0.0,0.0,-0.0571,-0.1182,-0.1522,-0.2183,-0.282,-0.3159,-0.3789,-0.4361,-0.4484,-0.5574,-0.6783,-0.7859,-0.8974,-1.0055,-1.0985,-1.2237,-1.3026,-1.3026,-1.3664,-1.4088,-1.4088,-1.4088,-1.4088,-1.4088,-1.413,-1.4496,-1.5394,-1.6247,-1.7147,-1.7997,-1.8856,-1.9301,-1.9301,-1.9301,-1.9301,-1.932,-1.9701,-2.0278,-2.0927,-2.1518,-2.2202,-2.2803,-2.3013,-2.3091,-2.3091,-2.3091,-2.3091,-2.3222,-2.4155,-2.5084,-2.5944,-2.6887,-2.7765,-2.851,-2.851,-2.851,-2.851,-2.851,-2.851,-2.851,-2.851,-2.851,-2.851,-2.851,-2.851,-2.851,-2.851,-2.851,-2.851,-2.851,-2.851,-2.851,-2.851,-2.851,-2.851,-2.851,-2.9184,-2.9961,-3.0782,-3.1599,-3.239,-3.3206,-3.329,-3.329,-3.329,-3.329,-3.329,-3.329,-3.329,-3.329,-3.329,-3.329,-3.329,-3.329,-3.329,-3.329,-3.329,-3.329,-3.329,-3.329,-3.329,-3.329,-3.329,-3.3314,-3.3303,0.1845,0.1342,0.1045,0.0485,0.0186,-0.0037,-0.0178,-0.0669,-0.1251,-0.1692,-0.2285,-0.2855,-0.3328,-0.3794,-0.4256,-0.4771,-0.5606,-0.6421,-0.7074,-0.89,-1.0357,-1.0771,-1.254,-1.3732,-1.3732,-1.3951,-1.4088,-1.4088,-1.4088,-1.4088,-1.4088,-1.4088,-1.4496,-1.5352,-1.5684,-1.6535,-1.7997,-1.8278,-1.8727,-1.9301,-1.9301,-1.9301,-1.932,-1.9742,-2.0351,-2.1127,-2.1603,-2.2279,-2.3013,-2.3057,-2.3091,-2.3091,-2.3091,-2.3091,-2.3222,-2.4155,-2.4659,-2.5041,-2.5913,-2.6835,-2.7603,-2.7603,-2.8007,-2.851,-2.851,-2.851,-2.851,-2.851,-2.851,-2.851,-2.851,-2.851,-2.851,-2.851,-2.851,-2.851,-2.851,-2.851,-2.851,-2.851,-2.851,-2.851,-2.851,-2.8697,-2.9145,-2.9961,-3.0769,-3.1563,-3.239,-3.2966,-3.329,-3.329,-3.329,-3.329,-3.329,-3.329,-3.329,-3.329,-3.329,-3.329,-3.329,-3.329,-3.329,-3.329,-3.329,-3.329,-3.329,-3.329,-3.3501,-3.3936,-3.4682,-3.4873,0.2341,0.1783,0.1311,0.0656,0.0289,0.0036,-0.0246,-0.0591,-0.1065,-0.1756,-0.222,-0.2723,-0.3362,-0.3763,-0.4201,-0.4893,-0.5677,-0.6426,-0.7232,-0.8991,-1.0543,-1.1466,-1.2833,-1.3794,-1.4075,-1.4088,-1.4088,-1.4088,-1.4088,-1.4088,-1.4088,-1.4088,-1.4334,-1.4901,-1.5235,-1.609,-1.7513,-1.7836,-1.8447,-1.9301,-1.9301,-1.9301,-1.932,-1.9742,-2.0351,-2.1127,-2.1594,-2.2236,0.0,-2.3057,-2.3091,-2.3091,-2.3091,-2.3091,-2.3178,-2.3777,-2.4198,-2.4584,-2.5115,-2.6133,-2.7185,-2.7185,-2.7805,-2.851,-2.851,-2.851,-2.851,-2.851,-2.851,-2.851,-2.851,-2.851,-2.851,-2.851,-2.851,-2.851,-2.851,-2.851,-2.851,-2.851,-2.851,-2.851,-2.851,-2.851,-2.8776,-2.9588,-3.0367,-3.118,-3.2001,-3.281,-3.329,-3.329,-3.329,-3.329,-3.329,-3.329,-3.329,-3.329,-3.329,-3.329,-3.329,-3.329,-3.329,-3.329,-3.329,-3.329,-3.329,-3.3515,-3.4048,-3.4797,-3.5143,-3.5265,0.0,0.2498,0.1845,0.0797,0.0427,0.021,-0.021,-0.0412,0.0,-0.1716,-0.2087,-0.2456,-0.3364,-0.3763,-0.4204,-0.4905,-0.5717,-0.6726,-0.8045,-0.9283,-1.0799,-1.2756,-1.3051,-1.3326,-1.3935,-1.4046,-1.4088,-1.4088,-1.4088,-1.4088,-1.4088,-1.4088,-1.4088,-1.4088,-1.4908,-1.5718,-1.6617,-1.7464,-1.8367,-1.9222,-1.9262,-1.9301,-1.932,-1.9742,-2.0269,-2.0969,-2.1561,-2.2193,-2.2847,-2.3013,-2.3091,-2.3091,-2.3091,-2.3091,-2.3091,-2.3091,-2.3691,-2.4498,-2.4498,-2.5673,-2.7226,-2.7267,-2.7846,-2.851,-2.851,-2.851,-2.851,-2.851,-2.851,-2.851,-2.851,-2.851,-2.851,-2.851,-2.851,-2.851,-2.851,-2.851,-2.851,-2.851,-2.851,-2.851,-2.851,-2.855,-2.8843,-2.9588,-3.0443,-3.1267,-3.2001,-3.281,-3.329,-3.329,-3.329,-3.329,-3.329,-3.329,-3.329,-3.329,-3.329,-3.329,-3.329,-3.329,-3.329,-3.329,-3.3333,-3.3347,-3.3361,-3.4006,-3.4848,-3.5727,-3.4971,-3.4808,0.2529,0.0,0.1988,0.1165,0.0614,0.017,0.0,-0.061,-0.1011,-0.1952,-0.2154,-0.2522,-0.3527,-0.3792,-0.4196,-0.5212,-0.5635,-0.6446,-0.8129,-1.0228,-1.1867,-1.2675,-1.3387,-1.3623,-1.3088,-1.3695,-1.4088,-1.4088,-1.4088,-1.4088,-1.4088,-1.4088,-1.4088,-1.4088,-1.4292,-1.4824,-1.5718,-1.6576,-1.7432,-1.8327,-1.8975,-1.9301,-1.932,-1.9742,-2.0351,-2.1169,-2.1594,-2.2279,-2.3047,-2.3091,-2.3091,-2.3091,-2.3091,-2.3091,-2.3091,-2.3091,-2.3691,-2.4498,-2.4498,-2.5673,-2.7307,-2.7966,-2.8351,-2.851,-2.851,-2.851,-2.851,-2.851,-2.851,-2.851,-2.851,-2.851,-2.851,-2.851,-2.851,-2.851,-2.851,-2.851,-2.851,-2.851,-2.851,-2.851,-2.851,-2.8988,-2.9484,-2.9665,-3.0932,-3.1892,-3.2074,-3.281,-3.329,-3.329,-3.329,-3.329,-3.329,-3.329,-3.329,-3.329,-3.329,-3.329,-3.329,-3.329,-3.329,-3.329,-3.374,-3.3992,-3.3992,-3.511,-3.5531,-3.5335,-3.5592,-3.5255,0.2356,0.1985,0.1648,0.1109,0.0639,0.0168,-0.0371,-0.064,-0.1011,-0.1783,-0.2087,-0.2455,-0.3357,-0.3942,-0.4488,-0.5161,-0.5877,-0.6954,-0.869,-1.0397,-1.1598,-1.2029,-1.2875,-1.3264,-1.2747,-1.3568,-1.4088,-1.4088,-1.4088,-1.4088,-1.4088,-1.4088,-1.4088,-1.4088,-1.4088,-1.4538,-1.5394,-1.5884,-1.6739,-1.7997,-1.8487,-1.8895,-1.932,-1.9925,-2.056,-2.121,-2.1835,-2.2451,-2.3091,-2.3091,-2.3091,-2.3091,-2.3091,-2.3091,-2.3091,-2.3091,-2.343,-2.3897,-2.437,-2.5673,-2.7348,-2.8219,-2.851,-2.851,-2.851,-2.851,-2.851,-2.851,-2.851,-2.851,-2.851,-2.851,-2.851,-2.851,-2.851,-2.851,-2.851,-2.851,-2.851,-2.851,-2.851,-2.851,-2.851,-2.8843,-2.925,-2.9626,-3.0745,-3.1673,-3.2037,-3.281,-3.329,-3.329,-3.329,-3.329,-3.329,-3.329,-3.329,-3.329,-3.329,-3.329,-3.329,-3.329,-3.3417,-3.3697,-3.4034,-3.4343,-3.466,-3.5358,-3.5513,-3.5189,-3.5208,-3.4871,0.2287,0.1687,0.1116,0.0841,0.0505,0.0101,-0.0438,-0.0708,-0.101,-0.1581,-0.1985,-0.2458,-0.3278,-0.4139,-0.4826,-0.514,-0.6549,-0.8162,-0.9784,-1.0714,-1.1306,-1.1472,-1.2357,-1.2875,-1.2705,-1.3568,-1.4088,-1.4088,-1.4088,-1.4088,-1.4088,-1.4088,-1.4088,-1.4088,-1.4088,-1.4454,-1.5186,-1.5311,-1.6214,-1.7796,-1.7957,-1.8447,-1.9329,-2.0145,-2.0764,-2.1229,-2.2072,-2.2662,-2.3091,-2.3091,-2.3091,-2.3091,-2.3091,-2.3091,-2.3091,-2.3091,-2.3178,-2.3474,-2.4541,-2.6008,-2.751,-2.8259,-2.851,-2.851,-2.851,-2.851,-2.851,-2.851,-2.851,-2.851,-2.851,-2.851,-2.851,-2.851,-2.851,-2.851,-2.851,-2.851,-2.851,-2.851,-2.851,-2.851,-2.851,-2.8697,-2.9106,-2.9781,-3.067,-3.1526,-3.2196,-3.2895,-3.329,-3.329,-3.329,-3.329,-3.329,-3.329,-3.329,-3.329,-3.329,-3.3333,-3.3417,-3.3431,-3.3712,-3.4329,-3.4343,-3.4632,-3.5189,-3.5189,-3.5147,-3.5034,-3.4478,-3.4147,0.2085,0.13,0.0623,0.0574,0.0303,-0.0101,-0.064,-0.0909,-0.1244,-0.1951,-0.2252,-0.2771,-0.415,-0.4338,-0.4673,-0.5888,-0.8252,-1.0354,-1.1685,-1.2869,-1.3305,-1.2571,-1.3307,-1.3568,-1.279,-1.3568,-1.4088,-1.4088,-1.4088,-1.4088,-1.4088,-1.4088,-1.4088,-1.4088,-1.4088,-1.4166,-1.4292,-1.5026,-1.5884,-1.6903,-1.7634,-1.8447,-1.9329,-2.0145,-2.0764,-2.1229,-2.2072,-2.2662,-2.3091,-2.3091,-2.3091,-2.3091,-2.3091,-2.3091,-2.3091,-2.3091,-2.3604,-2.4531,-2.6216,-2.747,-2.8299,-2.8471,-2.851,-2.851,-2.851,-2.851,-2.851,-2.851,-2.851,-2.851,-2.851,-2.851,-2.851,-2.851,-2.851,-2.851,-2.851,-2.851,-2.851,-2.851,-2.851,-2.851,-2.851,-2.9626,-3.0557,-3.0707,-3.1992,-3.298,-3.3086,-3.3206,-3.329,-3.329,-3.329,-3.329,-3.329,-3.329,-3.329,-3.329,-3.329,-3.3515,-3.4034,-3.4062,-3.4379,-3.5034,-3.5048,-3.5105,-3.5189,-3.5189,-3.4922,-3.4343,-3.4245,-3.3922,0.1916,0.1087,0.0343,0.0137,-0.0139,-0.0422,-0.0774,-0.1335,-0.1819,-0.1897,-0.2542,-0.3305,-0.3973,-0.4737,-0.5774,-0.7304,-0.8586,-0.9763,-1.0828,-1.1719,-1.2199,-1.1955,-1.279,-1.3179,-1.2747,-1.3568,-1.4088,-1.4088,-1.4088,-1.4088,-1.4088,-1.4088,-1.4088,-1.4088,-1.4088,-1.4088,-1.4088,-1.4496,-1.5352,-1.6698,-1.7107,-1.8108,-1.9619,-2.0214,-2.08,-2.1381,-2.2079,-2.2618,-2.2969,-2.3057,-2.3091,-2.3091,-2.3091,-2.3091,-2.3091,-2.3091,-2.3983,-2.5326,-2.6163,-2.7336,-2.851,-2.851,-2.851,-2.851,-2.851,-2.851,-2.851,-2.851,-2.851,-2.851,-2.851,-2.851,-2.851,-2.851,-2.851,-2.851,-2.851,-2.851,-2.851,-2.851,-2.851,-2.851,-2.851,-2.9484,-3.0405,-3.082,-3.1905,-3.281,-3.3241,-3.329,-3.329,-3.329,-3.329,-3.329,-3.329,-3.329,-3.3431,-3.3768,-3.3473,-3.3747,-3.4688,-3.4098,-3.4183,-3.5175,-3.4829,-3.466,-3.466,-3.466,-3.4337,-3.3697,-3.3697,-3.374,0.1816,0.0913,0.0137,-0.0246,-0.05,-0.0759,-0.1164,-0.1857,-0.2388,-0.2307,-0.3141,-0.3916,-0.4057,-0.5324,-0.6936,-0.8632,-0.9012,-0.9517,-1.0709,-1.125,-1.1624,-1.1906,-1.2577,-1.3052,-1.3052,-1.3695,-1.4088,-1.4088,-1.4088,-1.4088,-1.4088,-1.4088,-1.4088,-1.4088,-1.4088,-1.4088,-1.4088,-1.4088,-1.4985,-1.6698,-1.6698,-1.7835,-1.9902,-2.0338,-2.0869,-2.1525,-2.2077,-2.253,-2.2794,-2.2969,-2.3057,-2.3091,-2.3091,-2.3091,-2.3091,-2.3091,-2.4231,-2.5777,-2.5777,-2.6999,-2.851,-2.851,-2.851,-2.851,-2.851,-2.851,-2.851,-2.851,-2.851,-2.851,-2.851,-2.851,-2.851,-2.851,-2.851,-2.851,-2.851,-2.851,-2.851,-2.851,-2.8657,-2.8736,-2.855,-2.9484,-3.0405,-3.0857,-3.1759,-3.2583,-3.3206,-3.329,-3.329,-3.329,-3.329,-3.329,-3.329,-3.3417,-3.3697,-3.4175,-3.3768,-3.3958,-3.4936,-3.4028,-3.4042,-3.5175,-3.4548,-3.4203,-3.4203,-3.4062,-3.374,-3.329,-3.3431,-3.3754,0.1816,0.0822,-0.0035,-0.0325,-0.0643,-0.1131,-0.2063,-0.2365,-0.269,-0.3804,-0.4239,-0.4599,-0.5105,-0.6111,-0.7505,-0.9502,-1.0396,-1.1525,-1.3519,-1.3808,-1.3886,-1.3913,-1.3955,-1.4004,-1.4004,-1.4046,-1.4088,-1.4088,-1.4088,-1.4088,-1.4088,-1.4088,-1.4088,-1.4088,-1.4088,-1.4088,-1.4088,-1.4088,-1.4985,-1.6698,-1.6698,-1.7835,-1.9902,-2.0338,-2.0869,-2.1525,-2.1954,-2.2362,-2.2803,-2.2803,-2.2925,-2.3091,-2.3091,-2.3091,-2.3091,-2.3091,-2.4231,-2.5777,-2.5777,-2.6999,-2.851,-2.851,-2.851,-2.851,-2.851,-2.851,-2.851,-2.851,-2.851,-2.851,-2.851,-2.851,-2.851,-2.851,-2.851,-2.851,-2.851,-2.851,-2.851,-2.851,-2.9106,-2.9367,-2.8618,-3.0405,-3.1709,-3.0994,-3.2223,-3.3241,-3.329,-3.329,-3.329,-3.329,-3.329,-3.329,-3.329,-3.381,-3.4147,-3.4203,-3.4161,-3.4175,-3.4259,-3.4175,-3.4478,-3.5175,-3.4548,-3.4203,-3.4203,-3.3627,-3.3333,-3.329,-3.3866,-3.4161,0.1412,0.0583,-0.0211,-0.0326,-0.0732,-0.129,-0.2157,-0.2719,-0.3261,-0.3932,-0.4648,-0.528,-0.5819,-0.6649,-0.7726,-0.9345,-1.0508,-1.166,-1.3045,-1.3743,-1.4088,-1.4088,-1.4088,-1.4088,-1.4088,-1.4088,-1.4088,-1.4088,-1.4088,-1.4088,-1.4088,-1.4088,-1.4088,-1.4088,-1.4088,-1.4088,-1.4088,-1.4088,-1.4699,-1.5884,-1.6453,-1.7664,-1.9488,-2.0196,-2.0921,-2.1644,-2.1978,-2.2185,-2.2407,-2.2671,-2.2838,-2.2925,-2.3047,-2.3091,-2.3091,-2.3091,-2.4231,-2.5777,-2.5777,-2.6999,-2.851,-2.851,-2.851,-2.851,-2.851,-2.851,-2.851,-2.851,-2.851,-2.851,-2.851,-2.851,-2.851,-2.851,-2.851,-2.851,-2.851,-2.851,-2.851,-2.851,-2.9145,-2.9588,-2.9289,-3.082,-3.2001,-3.1709,-3.2596,-3.329,-3.329,-3.329,-3.3431,-3.381,-3.4239,-3.4309,-3.3894,-3.445,-3.4478,-3.3683,-3.3627,-3.4014,-3.4773,-3.407,-3.3958,-3.4576,-3.3972,-3.3627,-3.3627,-3.3782,-3.3852,-3.3866,-3.452,-3.5012,0.0886,0.0242,-0.0388,-0.0804,-0.1181,-0.1703,-0.2795,-0.3325,-0.3791,-0.4504,-0.511,-0.5695,-0.6254,-0.7086,-0.8127,-0.9494,-1.0868,-1.2057,-1.3003,-1.3701,-1.4088,-1.4088,-1.4088,-1.4088,-1.4088,-1.4088,-1.4088,-1.4088,-1.4088,-1.4088,-1.4088,-1.4088,-1.4088,-1.4088,-1.4088,-1.4088,-1.4088,-1.4088,-1.4538,-1.5394,-1.6288,-1.7564,-1.9221,-2.0081,-2.0918,-2.1687,-2.1874,-2.2008,-2.2141,-2.2539,-2.275,-2.2925,-2.3057,-2.3091,-2.3091,-2.3091,-2.4231,-2.5777,-2.5777,-2.6999,-2.851,-2.851,-2.851,-2.851,-2.851,-2.851,-2.851,-2.851,-2.851,-2.851,-2.851,-2.851,-2.851,-2.851,-2.851,-2.851,-2.851,-2.851,-2.859,-2.8843,-2.9523,-3.0075,-3.0075,-3.1415,-3.239,-3.216,-3.2775,-3.329,-3.329,-3.3459,-3.381,-3.4464,-3.4936,-3.4936,-3.4259,-3.4618,-3.4421,-3.3382,-3.329,-3.3691,-3.457,-3.3761,-3.3473,-3.3908,-3.3501,-3.3375,-3.3585,-3.3992,-3.4301,-3.4548,-3.5189,-3.5709,0.0175,-0.014,-0.0603,-0.1865,-0.2073,-0.2394,-0.4193,-0.4192,-0.4228,-0.5679,-0.5732,-0.5728,-0.6393,-0.7493,-0.876,-1.016,-1.1705,-1.3052,-1.3962,-1.4088,-1.4088,-1.4088,-1.4088,-1.4088,-1.4088,-1.4088,-1.4088,-1.4088,-1.4088,-1.4088,-1.4088,-1.4088,-1.4088,-1.4088,-1.4088,-1.4088,-1.4088,-1.413,-1.4538,-1.5394,-1.6296,-1.7614,-1.9221,-2.0081,-2.0918,-2.1696,-2.1696,-2.1874,-2.2097,-2.2309,-2.2696,-2.3091,-2.3091,-2.3091,-2.3091,-2.3091,-2.4274,-2.5777,-2.5819,-2.6999,-2.851,-2.851,-2.851,-2.851,-2.851,-2.851,-2.851,-2.851,-2.851,-2.851,-2.851,-2.851,-2.851,-2.851,-2.851,-2.851,-2.851,-2.851,-2.8736,-2.9549,-3.0367,-3.0932,-3.0932,-3.2259,-3.3016,-3.2232,-3.2775,-3.329,-3.329,-3.3824,-3.4478,-3.5119,-3.5189,-3.4936,-3.4259,-3.4203,-3.3936,-3.3333,-3.329,-3.329,-3.329,-3.329,-3.329,-3.329,-3.329,-3.3599,-3.4217,-3.4217,-3.4562,-3.5217,-3.5836,-3.6117,-0.0102,-0.0875,-0.1624,-0.1869,-0.2469,-0.3307,-0.4412,-0.4523,-0.4657,-0.579,-0.6153,-0.6308,-0.6467,-0.7797,-0.9217,-1.0226,-1.1705,-1.3052,-1.3962,-1.4088,-1.4088,-1.4088,-1.4088,-1.4088,-1.4088,-1.4088,-1.4088,-1.4088,-1.4088,-1.4088,-1.4088,-1.4088,-1.4088,-1.4088,-1.4088,-1.4088,-1.4088,-1.4699,-1.5151,-1.5436,-1.7201,-1.8456,-1.9221,-2.0081,-2.0918,-2.1696,-2.1696,-2.1874,-2.2141,-2.253,-2.2838,-2.3091,-2.3091,-2.3091,-2.3178,-2.3854,-2.4819,-2.5902,-2.6547,-2.7551,-2.851,-2.851,-2.851,-2.851,-2.851,-2.851,-2.851,-2.851,-2.851,-2.851,-2.851,-2.851,-2.851,-2.851,-2.851,-2.8657,-2.9223,-2.9328,-2.9588,-3.0367,-3.118,-3.1746,-3.1746,-3.2596,-3.3206,-3.298,-3.3136,-3.3445,-3.388,-3.4506,-3.4992,-3.5175,-3.5189,-3.4936,-3.4259,-3.4203,-3.3936,-3.3333,-3.329,-3.329,-3.329,-3.329,-3.3487,-3.3922,-3.3922,-3.4267,-3.4922,-3.5321,-3.5616,-3.585,-3.6469,-3.675,-0.1402,-0.2055,-0.2691,-0.2912,-0.3442,-0.4112,-0.5018,-0.5196,-0.5347,-0.5975,-0.626,-0.6514,-0.7027,-0.8455,-0.9855,-1.0868,-1.2288,-1.3434,-1.3997,-1.4088,-1.4088,-1.4088,-1.4088,-1.4088,-1.4088,-1.4088,-1.4088,-1.4088,-1.4088,-1.4088,-1.4088,-1.4088,-1.4088,-1.4088,-1.4088,-1.425,-1.4615,-1.5151,-1.576,-1.646,-1.7904,-1.8986,-1.9742,-2.0422,-2.1074,-2.1696,-2.1696,-2.1874,-2.2141,-2.2495,-2.2794,-2.3013,-2.3057,-2.3091,-2.3222,-2.4155,-2.5031,-2.5944,-2.6887,-2.7765,-2.851,-2.851,-2.851,-2.851,-2.851,-2.851,-2.851,-2.851,-2.851,-2.851,-2.851,-2.8736,-2.8882,-2.859,-2.8736,-2.9106,-2.96,-2.9961,-3.0405,-3.123,-3.1783,-3.2196,-3.2511,-3.298,-3.329,-3.329,-3.3487,-3.388,-3.452,-3.4964,-3.5189,-3.5189,-3.4978,-3.4632,-3.4231,-3.3978,-3.3683,-3.3304,-3.3515,-3.3655,-3.3655,-3.3655,-3.3936,-3.459,-3.4604,-3.4899,-3.5555,-3.592,-3.623,-3.6483,-3.681,-3.6978,-0.3053,-0.3397,-0.3703,-0.4564,-0.4722,-0.4862,-0.5791,-0.5993,-0.6091,-0.6272,-0.6187,-0.6481,-0.7862,-0.9263,-1.0639,-1.1844,-1.3173,-1.4088,-1.4088,-1.4088,-1.4088,-1.4088,-1.4088,-1.4088,-1.4088,-1.4088,-1.4088,-1.4088,-1.4088,-1.4088,-1.4088,-1.4088,-1.4088,-1.4088,-1.4166,-1.4622,-1.5394,-1.556,-1.6412,-1.8006,-1.8516,-1.9364,-2.0488,-2.0924,-2.1337,-2.1696,-2.1741,-2.1874,-2.2097,-2.2353,-2.2574,-2.2803,-2.3013,-2.3091,-2.3222,-2.4241,-2.5115,-2.5955,-2.6969,-2.7846,-2.851,-2.851,-2.851,-2.851,-2.851,-2.851,-2.851,-2.851,-2.851,-2.851,-2.859,-2.9145,-2.951,-2.8882,-2.9302,-2.9807,-2.9884,-3.0481,-3.1267,-3.2051,-3.2196,-3.2426,-3.3157,-3.329,-3.3304,-3.3361,-3.3894,-3.452,-3.5119,-3.5147,-3.5105,-3.5105,-3.452,-3.4119,-3.4119,-3.3655,-3.3361,-3.3361,-3.3936,-3.4315,-3.4357,-3.4315,-3.4604,-3.5259,-3.5273,-3.5583,-3.6188,-3.6188,-3.6469,-3.6978,-3.6978,-3.6978,-0.2526,-0.3426,-0.4295,-0.451,-0.5138,-0.5697,-0.5834,-0.6037,-0.6259,-0.6293,-0.6384,-0.6847,-0.8126,-0.9502,-1.0838,-1.2034,-1.3294,-1.4088,-1.4088,-1.4088,-1.4088,-1.4088,-1.4088,-1.4088,-1.4088,-1.4088,-1.4088,-1.4088,-1.4088,-1.4088,-1.4088,-1.4088,-1.4088,-1.4088,-1.4741,-1.5193,-1.5394,-1.678,-1.7634,-1.8006,-1.9407,-2.0219,-2.0488,-2.0924,-2.1337,-2.1687,-2.1919,-2.2052,-2.2141,-2.253,-2.2759,-2.2803,-2.2847,-2.2969,-2.3266,-2.4734,-2.5484,-2.6038,-2.7672,-2.8339,-2.851,-2.851,-2.851,-2.851,-2.851,-2.851,-2.851,-2.851,-2.851,-2.8669,-2.9302,-2.9549,-2.9819,-3.0253,-3.0519,-3.082,-3.1452,-3.1709,-3.2087,-3.2895,-3.3051,-3.3086,-3.3276,-3.329,-3.3445,-3.3936,-3.4562,-3.5048,-3.5175,-3.4731,-3.4436,-3.4436,-3.3852,-3.3473,-3.3473,-3.381,-3.4006,-3.4006,-3.4618,-3.5217,-3.5658,-3.5245,-3.5287,-3.5892,-3.592,-3.6216,-3.6796,-3.6796,-3.6852,-3.6978,-3.6978,-3.6978,-0.363,-0.4374,-0.4927,-0.5167,-0.5567,-0.5939,-0.6006,-0.6184,-0.6338,-0.6412,-0.6756,-0.7547,-0.9309,-1.0358,-1.1339,-1.2602,-1.3555,-1.4088,-1.4088,-1.4088,-1.4088,-1.4088,-1.4088,-1.4088,-1.4088,-1.4088,-1.4088,-1.4088,-1.4088,-1.4088,-1.4088,-1.4088,-1.4292,-1.4699,-1.5151,-1.5801,-1.6657,-1.7553,-1.8302,-1.8908,-1.9969,-2.068,-2.1065,-2.1275,-2.1485,-2.1696,-2.183,-2.1919,-2.1954,-2.2397,-2.253,-2.2495,-2.2838,-2.3135,-2.3594,-2.5105,-2.5902,-2.6483,-2.7966,-2.851,-2.851,-2.851,-2.851,-2.851,-2.851,-2.851,-2.851,-2.851,-2.8776,-2.9184,-2.9588,-3.0266,-3.097,-3.1365,-3.1476,-3.1599,-3.2001,-3.239,-3.281,-3.3206,-3.329,-3.329,-3.329,-3.3529,-3.3972,-3.459,-3.4992,-3.5091,-3.4745,-3.4436,-3.409,-3.3796,-3.3473,-3.3403,-3.3697,-3.402,-3.4329,-3.466,-3.5287,-3.5766,-3.6103,-3.6089,-3.6216,-3.6539,-3.6539,-3.6708,-3.6978,-3.6978,-3.6978,-3.6978,-3.6978,-3.6978,-0.4908,-0.5352,-0.5472,-0.5885,-0.5915,-0.5908,-0.6201,-0.6395,-0.6606,-0.6945,-0.7292,-0.8246,-1.0445,-1.118,-1.188,-1.3218,-1.3828,-1.4088,-1.4088,-1.4088,-1.4088,-1.4088,-1.4088,-1.4088,-1.4088,-1.4088,-1.4088,-1.4088,-1.4088,-1.4088,-1.4088,-1.4088,-1.4496,-1.5352,-1.556,-1.637,-1.7997,-1.8158,-1.877,-1.9893,-2.036,-2.0973,-2.1696,-2.1696,-2.1696,-2.1696,-2.1696,-2.1696,-2.1741,-2.222,-2.2264,-2.2185,-2.2916,-2.3464,-2.4006,-2.5368,-2.6276,-2.6946,-2.8047,-2.8471,-2.8471,-2.8471,-2.851,-2.851,-2.851,-2.851,-2.851,-2.851,-2.9067,-2.9742,-2.9884,-3.1007,-3.216,-3.2268,-3.2318,-3.2318,-3.2318,-3.281,-3.329,-3.329,-3.3361,-3.3445,-3.3445,-3.395,-3.4562,-3.5119,-3.5105,-3.4815,-3.4273,-3.4104,-3.3852,-3.3333,-3.3375,-3.3655,-3.4161,-3.4399,-3.4773,-3.5316,-3.592,-3.6272,-3.6272,-3.675,-3.6978,-3.6978,-3.6978,-3.6978,-3.6978,-3.6978,-3.6978,-3.6978,-3.7091,-3.7147,-0.4323,-0.5129,-0.5734,-0.5827,-0.5915,-0.5973,-0.6013,-0.673,-0.7595,-0.8508,-0.8199,-0.828,-0.9913,-1.1014,-1.2118,-1.3429,-1.3913,-1.4088,-1.4088,-1.4088,-1.4088,-1.4088,-1.4088,-1.4088,-1.4088,-1.4088,-1.4088,-1.4088,-1.4088,-1.4088,-1.4088,-1.4088,-1.4496,-1.5352,-1.6124,-1.6984,-1.7997,-1.8767,-1.9392,-1.9902,-2.0677,-2.1282,-2.1696,-2.1696,-2.1696,-2.1696,-2.1696,-2.1696,-2.1741,-2.222,-2.2264,-2.223,-2.329,-2.3844,-2.4221,-2.5631,-2.6412,-2.6946,-2.7914,-2.8259,-2.8259,-2.8431,-2.851,-2.851,-2.851,-2.851,-2.851,-2.851,-2.9067,-2.9845,-3.0557,-3.1415,-3.2268,-3.2966,-3.3122,-3.3122,-3.3122,-3.3206,-3.329,-3.329,-3.3712,-3.4076,-3.4076,-3.4618,-3.5105,-3.5175,-3.4702,-3.4287,-3.4217,-3.374,-3.3375,-3.329,-3.3768,-3.4104,-3.4189,-3.5208,-3.5892,-3.5977,-3.6567,-3.6866,-3.6866,-3.695,-3.6978,-3.6978,-3.6978,-3.6978,-3.6978,-3.6978,-3.6978,-3.6993,-3.754,-3.7779,-0.4374,-0.5253,-0.5928,-0.5928,-0.6053,-0.6159,-0.6177,-0.6931,-0.7821,-0.8389,-0.8912,-0.9734,-1.1044,-1.1868,-1.2622,-1.3429,-1.387,-1.4088,-1.4088,-1.4088,-1.4088,-1.4088,-1.4088,-1.4088,-1.4088,-1.4088,-1.4088,-1.4088,-1.4088,-1.4088,-1.4088,-1.458,-1.5235,-1.609,-1.6976,-1.7836,-1.8727,-1.933,-1.9971,-2.0594,-2.1138,-2.1513,-2.1696,-2.1696,-2.1696,-2.1696,-2.1696,-2.1785,-2.1963,-2.2264,-2.2608,-2.295,-2.3724,-2.4435,-2.5147,-2.6049,-2.6816,-2.7482,-2.8007,-2.8259,-2.8379,-2.8471,-2.851,-2.851,-2.851,-2.851,-2.8578,-2.9028,-2.9742,-3.0557,-3.1378,-3.216,-3.286,-3.3206,-3.329,-3.329,-3.329,-3.329,-3.329,-3.329,-3.3782,-3.4315,-3.4688,-3.5006,-3.5189,-3.5189,-3.4632,-3.4076,-3.374,-3.3445,-3.3417,-3.3768,-3.4034,-3.4483,-3.5208,-3.5794,-3.6244,-3.6595,-3.6838,-3.6978,-3.6978,-3.6978,-3.6978,-3.6978,-3.6978,-3.6978,-3.6978,-3.6978,-3.7161,-3.7498,-3.7779,-3.8088,-0.4567,-0.5354,-0.5899,-0.5973,-0.6284,-0.6548,-0.6605,-0.7557,-0.8466,-0.8613,-0.9906,-1.127,-1.2153,-1.2684,-1.3078,-1.3345,-1.3786,-1.4088,-1.4088,-1.4088,-1.4088,-1.4088,-1.4088,-1.4088,-1.4088,-1.4088,-1.4088,-1.4088,-1.4088,-1.4088,-1.4088,-1.495,-1.5801,-1.6657,-1.7553,-1.8407,-1.9301,-1.9815,-2.0429,-2.1108,-2.1495,-2.1696,-2.1696,-2.1696,-2.1696,-2.1696,-2.1696,-2.1874,-2.2141,-2.2564,-2.2994,-2.3497,-2.4402,-2.5253,-2.5955,-2.6487,-2.7167,-2.7829,-2.7978,-2.8179,-2.8351,-2.8391,-2.8471,-2.851,-2.851,-2.851,-2.863,-2.9223,-2.9961,-3.0782,-3.1599,-3.239,-3.3051,-3.3241,-3.329,-3.329,-3.329,-3.329,-3.3333,-3.3487,-3.4006,-3.4618,-3.5105,-3.5189,-3.5133,-3.4978,-3.4393,-3.381,-3.3347,-3.3417,-3.3697,-3.4147,-3.4483,-3.5082,-3.6033,-3.6244,-3.6539,-3.695,-3.6978,-3.6978,-3.6978,-3.6978,-3.6978,-3.6978,-3.7133,-3.7217,-3.7217,-3.7217,-3.754,-3.8145,-3.8313,-3.8636,-0.4689,-0.5213,-0.5681,-0.5922,-0.6582,-0.7215,-0.7405,-0.8813,-1.0067,-1.0105,-1.1329,-1.2415,-1.256,-1.2889,-1.3239,-1.3393,-1.3786,-1.4088,-1.4088,-1.4088,-1.4088,-1.4088,-1.4088,-1.4088,-1.4088,-1.4088,-1.4088,-1.4088,-1.4088,-1.4088,-1.4088,-1.495,-1.5801,-1.6657,-1.7553,-1.8407,-1.9301,-2.009,-2.0695,-2.1108,-2.1495,-2.1696,-2.1696,-2.1696,-2.1696,-2.1696,-2.1696,-2.1874,-2.2185,-2.329,-2.3487,-2.3357,-2.5537,-2.631,-2.6268,-2.6933,-2.7342,-2.7522,-2.7522,-2.7696,-2.7962,-2.8139,-2.8339,-2.851,-2.851,-2.851,-2.851,-2.855,-2.9145,-2.9961,-3.0745,-3.1563,-3.2354,-3.3122,-3.329,-3.329,-3.329,-3.329,-3.3459,-3.4034,-3.4688,-3.5161,-3.5189,-3.5189,-3.4992,-3.4343,-3.3726,-3.3333,-3.329,-3.3796,-3.4175,-3.4203,-3.5278,-3.6047,-3.6103,-3.6638,-3.695,-3.6978,-3.6978,-3.6978,-3.6978,-3.6978,-3.6978,-3.6978,-3.7555,-3.785,-3.785,-3.785,-3.8187,-3.8874,-3.9409,-3.9704,-0.4791,-0.5292,-0.5728,-0.5742,-0.6716,-0.759,-0.7364,-0.8895,-1.04,-1.0389,-1.1411,-1.2396,-1.2718,-1.316,-1.3498,-1.3587,-1.387,-1.4088,-1.4088,-1.4088,-1.4088,-1.4088,-1.4088,-1.4088,-1.4088,-1.4088,-1.4088,-1.4088,-1.4088,-1.4334,-1.4908,-1.576,-1.6617,-1.7513,-1.8359,-1.9218,-2.0081,-2.0622,-2.1108,-2.1511,-2.1623,-2.1696,-2.1696,-2.1696,-2.1776,-2.1963,-2.1776,-2.1919,-2.2353,-2.3367,-2.4059,-2.4584,-2.581,-2.6539,-2.688,-2.7097,-2.733,-2.7522,-2.7522,-2.7696,-2.7921,-2.8139,-2.8139,-2.8122,-2.8271,-2.8299,-2.8419,-2.8937,-2.9768,-3.067,-3.1452,-3.2282,-3.2931,-3.3241,-3.329,-3.3403,-3.3782,-3.388,-3.3936,-3.4161,-3.4731,-3.5189,-3.5189,-3.4829,-3.4492,-3.4231,-3.3683,-3.3431,-3.3824,-3.4062,-3.4497,-3.5321,-3.585,-3.6272,-3.6652,-3.6866,-3.6978,-3.6978,-3.6978,-3.6978,-3.6978,-3.7358,-3.7569,-3.7569,-3.8201,-3.8313,-3.7906,-3.8313,-3.8847,-3.9493,-3.9676,-3.9999,-0.4807,-0.5165,-0.5508,-0.5511,-0.6522,-0.7517,-0.7709,-0.9153,-1.0582,-1.1077,-1.189,-1.2661,-1.3061,-1.3472,-1.3771,-1.3704,-1.3913,-1.4088,-1.4088,-1.4088,-1.4088,-1.4088,-1.4088,-1.4088,-1.4088,-1.4088,-1.4088,-1.4088,-1.4088,-1.4496,-1.5352,-1.6206,-1.722,-1.8407,-1.911,-1.9833,-2.047,-2.0906,-2.1319,-2.1696,-2.1696,-2.1696,-2.1696,-2.1696,-2.1785,-2.1963,-2.2211,-2.2299,-2.2388,-2.3617,-2.4478,-2.5062,-2.6185,-2.688,-2.719,-2.719,-2.726,-2.7412,-2.7412,-2.7574,-2.7788,-2.7938,-2.795,-2.7921,-2.807,-2.8111,-2.8219,-2.874,-2.9381,-3.0139,-3.1304,-3.2439,-3.329,-3.329,-3.329,-3.3459,-3.4062,-3.4203,-3.4259,-3.4506,-3.4922,-3.5119,-3.4922,-3.4506,-3.4133,-3.3922,-3.3726,-3.374,-3.4147,-3.4554,-3.5166,-3.6019,-3.6286,-3.6581,-3.695,-3.6978,-3.6978,-3.6978,-3.6978,-3.7077,-3.7274,-3.7681,-3.8004,-3.8215,-3.8888,-3.9,-3.8538,-3.8959,-3.9535,-4.0083,-4.0083,-4.0308,0.0,0.0,0.0,-0.531,-0.6013,-0.6986,-0.8396,-0.9534,-1.0681,-1.2151,-1.283,-1.326,-1.3547,-1.3888,-1.3997,-1.3737,-1.3913,-1.4088,-1.4088,-1.4088,-1.4088,-1.4088,-1.4088,-1.4088,-1.4088,-1.4088,-1.4088,-1.4088,-1.4088,-1.4496,-1.5394,-1.6288,-1.7553,-1.928,-1.9723,-2.0095,-2.0488,-2.0934,-2.1328,-2.1696,-2.1696,-2.1696,-2.1696,-2.1696,-2.1696,-2.1776,-2.294,-2.295,-2.222,-2.4072,-2.4723,-2.4754,-2.6723,-2.7371,-2.719,-2.719,-2.719,-2.719,-2.719,-2.733,-2.7482,-2.7522,-2.7655,-2.7881,-2.7893,-2.7893,-2.7893,-2.7893,-2.7933,-2.8339,-3.0152,-3.1955,-3.3276,-3.3276,-3.329,-3.3473,-3.4062,-3.4217,-3.4399,-3.5077,-3.5189,-3.4992,-3.4301,-3.4189,-3.3978,-3.3403,-3.381,-3.4217,-3.4245,-3.5335,-3.6117,-3.6131,-3.6666,-3.6978,-3.6978,-3.6978,-3.6978,-3.6978,-3.7007,-3.7274,-3.7878,-3.7934,-3.8257,-3.893,-3.9535,-3.9816,-3.9816,-3.9816,-4.0112,-4.0702,-4.0702,-4.0702,-0.4793,0.0,0.0,0.0,0.0,0.0,-0.7166,-0.8232,-0.9594,-1.0917,-1.1582,-1.2234,-1.3383,-1.3888,-1.4088,-1.3997,-1.4039,-1.4088,-1.4088,-1.4088,-1.4088,-1.4088,-1.4088,-1.4088,-1.4088,-1.4088,-1.4088,-1.4088,-1.4088,-1.4741,-1.6247,-1.7755,-1.895,-1.971,-2.0104,-2.0549,-2.0943,-2.1312,-2.1577,-2.1696,-2.1696,-2.1696,-2.1696,-2.1696,-2.1696,-2.1741,-2.2033,-2.2043,-2.2043,-2.4734,-2.5799,-2.581,-2.688,-2.726,-2.719,-2.719,-2.719,-2.719,-2.719,-2.7219,-2.7301,-2.7441,-2.7452,-2.7423,-2.7574,-2.7603,-2.7603,-2.7603,-2.8155,-2.9199,-3.1007,-3.1942,-3.2583,-3.3171,-3.3627,-3.3992,-3.4161,-3.459,-3.4992,-3.5161,-3.5189,-3.4992,-3.4301,-3.3838,-3.3627,-3.3908,-3.409,-3.4526,-3.5447,-3.5892,-3.6286,-3.6722,-3.688,-3.6978,-3.6978,-3.6978,-3.6978,-3.6978,-3.74,-3.7723,-3.7892,-3.8777,-3.9339,-3.9563,-4.0126,-4.0449,-4.0449,-4.0449,-4.0533,-4.0702,-4.0702,-4.0702,-0.4874,-0.5087,-0.5223,-0.5019,0.0,0.0,-0.7337,-0.8333,-0.9595,-1.1379,-1.2058,-1.261,-1.3602,-1.3968,-1.4088,-1.4088,-1.4088,-1.4088,-1.4088,-1.4088,-1.4088,-1.4088,-1.4088,-1.4088,-1.4088,-1.4088,-1.4088,-1.4088,-1.4088,-1.4866,-1.6617,-1.7997,-1.9124,-1.9875,-2.0278,-2.0704,-2.1099,-2.1485,-2.1696,-2.1696,-2.1696,-2.1696,-2.1696,-2.1696,-2.1696,-2.1741,-2.2113,-2.2511,-2.3028,-2.5158,-2.5799,-2.56,-2.6757,-2.719,-2.719,-2.719,-2.719,-2.719,-2.719,-2.719,-2.7231,-2.733,-2.7301,-2.7231,-2.733,-2.7371,-2.7371,-2.7371,-2.845,-2.9897,-3.1217,-3.2051,-3.2759,-3.3493,-3.374,-3.395,-3.4506,-3.4688,-3.4773,-3.4773,-3.4773,-3.4576,-3.3922,-3.3515,-3.3487,-3.4104,-3.445,-3.4969,-3.5977,-3.6328,-3.6624,-3.695,-3.6978,-3.6978,-3.6978,-3.6978,-3.7091,-3.7358,-3.7709,-3.8145,-3.8664,-3.9395,-3.9901,-4.0154,-4.0519,-4.0702,-4.0702,-4.0702,-4.0702,-4.0702,-4.0702,-4.0702,-0.4944,-0.5029,-0.512,-0.5103,-0.5276,0.0,-0.7971,-0.8776,-0.9805,-1.2138,-1.2842,-1.3127,-1.3625,-1.3684,-1.3697,-1.3723,-1.384,-1.3964,-1.4082,-1.4088,-1.4088,-1.4088,-1.4088,-1.4088,-1.4088,-1.4088,-1.4088,-1.4088,-1.4173,-1.4943,-1.6617,-1.7587,-1.8652,-1.9939,-2.0383,-2.0778,-2.1172,-2.1504,-2.1696,-2.1696,-2.1696,-2.1696,-2.1696,-2.1696,-2.1696,-2.1731,-2.2589,-2.3497,-2.4402,-2.5284,-2.5326,-2.4967,-2.6592,-2.719,-2.719,-2.719,-2.719,-2.719,-2.719,-2.719,-2.719,-2.719,-2.719,-2.719,-2.719,-2.719,-2.7231,-2.7313,-2.8648,-3.0241,-3.0957,-3.2064,-3.3218,-3.3976,-3.371,-3.3648,-3.4815,-3.4618,-3.4175,-3.4104,-3.4147,-3.4006,-3.3389,-3.3347,-3.3599,-3.4217,-3.4857,-3.5513,-3.6131,-3.6694,-3.6978,-3.6978,-3.6978,-3.6978,-3.6978,-3.7049,-3.7316,-3.7864,-3.8032,-3.8608,-3.9732,-3.9845,-4.014,-4.0688,-4.0702,-4.0702,-4.0702,-4.0702,-4.0702,-4.0702,-4.0702,-4.0702,-0.5317,-0.5327,-0.5287,-0.513,-0.5316,0.0,-0.5982,-0.6415,-0.7206,-0.8764,-0.9216,-0.9721,-1.0976,-1.1186,-1.1249,-1.1404,-1.2187,-1.3041,-1.3964,-1.4088,-1.4088,-1.4088,-1.4088,-1.4088,-1.4088,-1.4088,-1.4088,-1.4088,-1.4741,-1.5602,-1.6657,-1.7845,-1.9064,-2.0351,-2.0787,-2.12,-2.1568,-2.165,-2.1696,-2.1696,-2.1696,-2.1696,-2.1696,-2.1696,-2.1696,-2.1687,-2.1909,-2.2501,-2.3444,-2.4349,-2.5516,-2.6715,-2.7056,-2.719,-2.719,-2.719,-2.719,-2.719,-2.719,-2.719,-2.719,-2.719,-2.719,-2.719,-2.719,-2.719,-2.7301,-2.7857,-2.8407,-2.9145,-3.038,-3.1033,-3.175,-3.3354,-3.3628,-3.3687,-3.4279,-3.4287,-3.4062,-3.3557,-3.3866,-3.4006,-3.3389,-3.3697,-3.4267,-3.4922,-3.5541,-3.6145,-3.6764,-3.6908,-3.6978,-3.6978,-3.6978,-3.6978,-3.6978,-3.7442,-3.7765,-3.7892,-3.8847,-3.9521,-3.9774,-4.0266,-4.0575,-4.0702,-4.0702,-4.0702,-4.0702,-4.0702,-4.0702,-4.0702,-4.0702,-4.0702,-0.5349,-0.5395,-0.5378,-0.5267,-0.5498,0.0,0.0,-0.6819,-0.7553,-0.8829,-0.9159,-0.9488,-1.0346,-1.0489,-1.0528,-1.0649,-1.1624,-1.2591,-1.3156,-1.373,-1.4088,-1.4088,-1.4088,-1.4088,-1.4088,-1.4088,-1.4088,-1.4088,-1.4496,-1.5311,-1.6617,-1.749,-1.8742,-2.0461,-2.0906,-2.131,-2.1687,-2.1696,-2.1696,-2.1696,-2.1696,-2.1696,-2.1696,-2.1696,-2.1696,-2.1696,-2.1696,-2.2511,-2.3833,-2.4317,-2.5569,-2.719,-2.719,-2.719,-2.719,-2.719,-2.719,-2.719,-2.719,-2.719,-2.719,-2.719,-2.719,-2.719,-2.719,-2.7423,-2.7817,-2.8474,-2.9094,-2.9793,-3.0822,-3.1519,-3.2222,-3.3349,-3.3615,-3.3702,-3.4116,-3.395,-3.3655,-3.3347,-3.3782,-3.4104,-3.3796,-3.3992,-3.4548,-3.5513,-3.592,-3.6328,-3.6908,-3.6978,-3.6978,-3.6978,-3.6978,-3.7105,-3.7414,-3.7723,-3.8173,-3.8805,-3.9437,-3.9915,-4.0224,-4.0533,-4.0702,-4.0702,-4.0702,-4.0702,-4.0702,-4.0702,-4.0702,-4.0702,-4.0702,-4.0702,-0.5343,-0.5416,-0.5433,-0.5435,-0.5682,-0.6163,0.0,0.0,0.0,-0.9249,-0.9474,-0.9596,-0.9837,-0.9853,-0.9837,-0.9846,-1.0914,-1.1735,-1.1735,-1.2801,-1.3686,-1.4068,-1.4088,-1.4088,-1.4088,-1.4088,-1.4088,-1.4088,-1.4088,-1.4887,-1.6711,-1.7203,-1.8414,-2.0528,-2.1016,-2.1392,-2.1687,-2.1696,-2.1696,-2.1696,-2.1696,-2.1696,-2.1696,-2.1696,-2.1696,-2.1696,-2.1696,-2.2775,-2.4498,-2.4498,-2.5569,-2.719,-2.719,-2.719,-2.719,-2.719,-2.719,-2.719,-2.719,-2.719,-2.719,-2.719,-2.719,-2.7231,-2.7342,-2.7667,-2.8167,-2.8897,-2.9691,-3.0482,-3.1266,-3.2057,-3.279,-3.349,-3.3431,-3.3381,-3.3944,-3.3569,-3.3065,-3.3065,-3.3553,-3.4008,-3.4153,-3.4399,-3.4927,-3.5963,-3.6216,-3.6469,-3.6922,-3.6978,-3.6978,-3.6978,-3.7091,-3.7358,-3.7864,-3.8116,-3.8693,-3.9718,-3.9901,-4.0182,-4.0674,-4.0702,-4.0702,-4.0702,-4.0702,-4.0702,-4.0702,-4.0702,-4.0702,-4.0702,-4.0702,-4.0702,-0.5406,-0.5494,-0.5562,-0.5586,-0.5828,-0.6109,-0.6307,0.0,-0.6701,-0.7017,0.0,-0.7201,-0.7516,0.0,0.0,-0.7554,-0.8538,-0.9293,-0.9293,-1.0656,-1.2234,-1.3904,-1.4088,-1.4088,-1.4088,-1.4088,-1.4088,-1.4088,-1.4088,-1.5021,-1.7127,-1.7621,-1.8807,-2.0939,-2.1403,-2.1641,-2.1696,-2.1696,-2.1696,-2.1696,-2.1696,-2.1696,-2.1696,-2.1696,-2.1696,-2.1696,-2.1696,-2.2775,-2.4498,-2.4498,-2.5569,-2.719,-2.719,-2.719,-2.719,-2.719,-2.719,-2.719,-2.719,-2.719,-2.719,-2.719,-2.719,-2.7301,-2.7898,-2.7696,-2.7574,-2.8767,-2.9199,-2.9545,-3.0672,-3.1111,-3.1666,-3.3439,-3.2809,-3.2165,-3.3418,-3.2914,-3.225,-3.225,-3.2713,-3.3357,-3.408,-3.5138,-3.5949,-3.6089,-3.6581,-3.6908,-3.6978,-3.6978,-3.6978,-3.6978,-3.747,-3.7835,-3.7892,-3.8931,-3.9634,-3.9774,-4.0294,-4.0631,-4.0702,-4.0702,-4.0702,-4.0702,-4.0702,-4.0702,-4.0702,-4.0702,-4.0702,-4.0702,-4.0702,-4.0702,-0.5518,-0.5597,-0.5649,-0.5617,-0.5811,-0.6038,-0.6015,-0.6293,-0.6619,-0.6841,0.0,0.0,0.0,0.0,0.0,0.0,-0.8019,-0.8738,-0.8738,-0.9825,-1.1161,-1.2535,-1.2762,-1.2996,-1.3422,-1.3856,-1.4088,-1.4088,-1.4088,-1.5035,-1.7183,-1.7677,-1.8866,-2.1046,-2.1476,-2.1696,-2.1696,-2.1696,-2.1696,-2.1696,-2.1696,-2.1696,-2.1696,-2.1696,-2.1696,-2.1696,-2.1696,-2.2775,-2.4498,-2.4498,-2.5569,-2.719,-2.719,-2.719,-2.719,-2.719,-2.719,-2.719,-2.719,-2.719,-2.719,-2.719,-2.719,-2.7272,-2.7545,-2.7696,-2.7978,-2.8846,-2.9355,-2.974,-3.0238,-3.065,-3.1138,-3.183,-3.1764,-3.1759,-3.2558,-3.2414,-3.2186,-3.2539,-3.3118,-3.3723,-3.4448,-3.5197,-3.5808,-3.6223,-3.6668,-3.6978,-3.6978,-3.6978,-3.7119,-3.747,-3.7751,-3.8201,-3.8931,-3.9479,-3.9929,-4.0294,-4.0561,-4.0702,-4.0702,-4.0702,-4.0702,-4.0702,-4.0702,-4.0702,-4.0702,-4.0702,-4.0702,-4.0702,-4.0702,-4.0702,-0.5606,-0.5679,-0.5762,-0.5792,-0.5941,-0.6093,-0.6124,-0.6421,-0.6784,-0.7016,-0.7065,0.0,0.0,0.0,-0.7049,-0.6996,0.0,-0.8143,-0.8082,-0.899,-1.0124,-1.1473,-1.1965,-1.2373,-1.2832,-1.3539,-1.3968,-1.3968,-1.4115,-1.5042,-1.6943,-1.7648,-1.8885,-2.0808,-2.1389,-2.1696,-2.1696,-2.1696,-2.1696,-2.1696,-2.1696,-2.1696,-2.1696,-2.1696,-2.1696,-2.1687,-2.1945,-2.2984,-2.4541,-2.4744,-2.5768,-2.7179,-2.7082,-2.7105,-2.719,-2.719,-2.719,-2.719,-2.719,-2.719,-2.719,-2.719,-2.719,-2.7231,-2.7423,-2.7708,-2.8059,-2.8661,-2.9172,-2.9521,-2.9683,-3.0052,-3.0479,-3.0765,-3.0984,-3.1266,-3.1857,-3.2008,-3.2139,-3.2605,-3.329,-3.3987,-3.4524,-3.5213,-3.5827,-3.6336,-3.6733,-3.6978,-3.6978,-3.7133,-3.74,-3.785,-3.8215,-3.8791,-3.9704,-3.9929,-4.0224,-4.0674,-4.0702,-4.0702,-4.0702,-4.0702,-4.0702,-4.0702,-4.0702,-4.0702,-4.0702,-4.0702,-4.0702,-4.0702,-4.0702,-4.0702,-0.5635,-0.5781,-0.594,-0.6194,-0.6297,-0.6367,-0.6625,-0.6692,-0.6794,-0.711,-0.7179,-0.7269,-0.7443,-0.7334,-0.7159,-0.7016,-0.7027,0.0,0.0,-0.7612,-0.9041,-1.1153,-1.2263,-1.2803,-1.2624,-1.3197,-1.362,-1.362,-1.4139,-1.5053,-1.6345,-1.7606,-1.8901,-2.0268,-2.1221,-2.1696,-2.1696,-2.1696,-2.1696,-2.1696,-2.1696,-2.1696,-2.1696,-2.1696,-2.1696,-2.1731,-2.2668,-2.3617,-2.4584,-2.5411,-2.631,-2.7133,-2.668,-2.6795,-2.719,-2.719,-2.719,-2.719,-2.719,-2.719,-2.719,-2.719,-2.719,-2.7301,-2.7978,-2.7748,-2.7383,-2.8059,-2.8247,-2.8366,-2.892,-2.9112,-2.9555,-3.11,-3.0753,-3.033,-3.1408,-3.1708,-3.1823,-3.1836,-3.2817,-3.3723,-3.4166,-3.541,-3.6377,-3.6405,-3.6733,-3.6978,-3.6978,-3.7498,-3.7878,-3.7906,-3.8988,-3.9746,-3.9788,-4.0336,-4.0674,-4.0702,-4.0702,-4.0702,-4.0702,-4.0702,-4.0702,-4.0702,-4.0702,-4.0702,-4.0702,-4.0702,-4.0702,-4.0702,-4.0702,-4.0702,0.0,0.0,-0.6352,-0.6318,-0.6447,-0.654,-0.6527,-0.6777,-0.7114,-0.735,-0.7395,-0.7452,-0.7669,-0.7423,-0.7167,-0.7143,-0.6936,-0.6796,0.0,-0.7637,-0.8559,-0.9145,-1.0713,-1.1708,-1.1558,-1.2568,-1.3235,-1.3333,-1.4082,-1.5074,-1.6316,-1.7621,-1.8917,-2.024,-2.1221,-2.1696,-2.1696,-2.1696,-2.1696,-2.1696,-2.1696,-2.1696,-2.1696,-2.1696,-2.1696,-2.1741,-2.2033,-2.2862,-2.398,-2.4305,-2.5134,-2.6244,-2.6444,-2.6605,-2.6726,-2.6726,-2.6932,-2.719,-2.719,-2.719,-2.719,-2.719,-2.719,-2.7231,-2.7464,-2.7394,-2.7353,-2.8018,-2.8219,-2.8335,-2.893,-2.9071,-2.9326,-3.0265,-3.0253,-3.0228,-3.1048,-3.1507,-3.1915,-3.2333,-3.3051,-3.3868,-3.4645,-3.544,-3.6058,-3.6351,-3.6733,-3.7133,-3.754,-3.7765,-3.8215,-3.9058,-3.9521,-3.9943,-4.035,-4.0575,-4.0702,-4.0702,-4.0702,-4.0702,-4.0702,-4.0702,-4.0702,-4.0702,-4.0702,-4.0702,-4.0702,-4.0702,-4.0702,-4.0702,-4.0702,-4.0702,-0.6484,-0.6563,0.0,-0.6538,-0.6607,-0.672,-0.6746,-0.7028,-0.731,-0.7521,-0.7587,-0.7599,-0.762,-0.7445,-0.726,-0.7121,-0.6941,-0.681,0.0,-0.7664,-0.8266,-0.8333,-0.9886,-1.0991,-1.1155,-1.1942,-1.2673,-1.3307,-1.3988,-1.479,-1.5844,-1.7521,-1.8875,-1.9741,-2.0997,-2.1696,-2.1696,-2.1696,-2.1696,-2.1696,-2.1696,-2.1696,-2.1696,-2.1696,-2.1604,-2.1511,-2.1864,-2.2551,-2.3495,-2.3874,-2.4683,-2.5739,-2.6071,-2.6341,-2.6524,-2.6708,-2.6944,-2.719,-2.719,-2.719,-2.719,-2.719,-2.719,-2.719,-2.719,-2.719,-2.7347,-2.7959,-2.816,-2.8335,-2.8891,-2.9071,-2.9238,-2.9883,-2.9999,-3.0164,-3.0803,-3.1539,-3.2228,-3.2549,-3.3307,-3.4157,-3.4978,-3.5318,-3.5683,-3.6312,-3.6615,-3.706,-3.7821,-3.7968,-3.8459,-3.9676,-3.9971,-4.0266,-4.0674,-4.0702,-4.0702,-4.0702,-4.0702,-4.0702,-4.0702,-4.0702,-4.0702,-4.0702,-4.0702,-4.0702,-4.0702,-4.0702,-4.0702,-4.0702,-4.0702,-4.0814]}]]